[[{"header":{"parameterUnit":"m.s-1","parameterCategory":1,"la1":31.0,"la2":29.5877,"lo1":-88.7671,"lo2":-86.6584,"dx":0.0162,"dy":0.0185,"nx":115,"ny":88,"refTime":"2022-11-04T18:00:00:Z","depth":0,"parameterNumber":2,"parameterNumberName":"U-component_of_WINDS"},"data":[0.0,0.0,0.0,0.0,0.0,0.0,0.0,0.0,0.0,0.0,0.0,0.0,0.0,0.0,0.0,0.0,0.0,0.0,0.0,0.0,0.0,0.0,0.0,0.0,0.0,0.0,0.0,0.0,0.0,0.0,0.0,0.0,0.0,0.0,0.0,0.0,0.0,0.0,0.0,0.0,0.0,0.0,0.0,0.0,0.0,0.0,0.0,0.0,0.0,0.0,0.0,0.0,0.0,0.0,0.0,0.0,0.0,0.0,0.0,0.0,0.0,0.0,0.0,0.0,0.0,0.0,0.0,0.0,0.0,0.0,0.0,0.0,0.0,0.0,0.0,0.0,0.0,0.0,0.0,0.0,0.0,0.0,0.0,0.0,0.0,0.0,0.0,0.0,0.0,0.0,0.0,0.0,0.0,0.0,0.0,0.0,0.0,0.0,0.0,0.0,0.0,0.0,0.0,0.0,0.0,0.0,0.0,0.0,0.0,0.0,0.0,0.0,0.0,0.0,0.0,0.0,0.0,0.0,0.0,0.0,0.0,0.0,0.0,0.0,0.0,0.0,0.0,0.0,0.0,0.0,0.0,0.0,0.0,0.0,0.0,0.0,0.0,0.0,0.0,0.0,0.0,0.0,0.0,0.0,0.0,0.0,0.0,0.0,0.0,0.0,0.0,0.0,0.0,0.0,0.0,0.0,0.0,0.0,0.0,0.0,0.0,0.0,0.0,0.0,0.0,0.0,0.0,0.0,0.0,0.0,0.0,0.0,0.0,0.0,0.0,0.0,0.0,0.0,0.0,0.0,0.0,0.0,0.0,0.0,0.0,0.0,0.0,0.0,0.0,0.0,0.0,0.0,0.0,0.0,0.0,0.0,0.0,0.0,0.0,0.0,0.0,0.0,0.0,0.0,0.0,0.0,0.0,0.0,0.0,0.0,0.0,0.0,0.0,0.0,0.0,0.0,0.0,0.0,0.0,0.0,0.0,0.0,0.0,0.0,0.0,0.0,0.0,0.0,0.0,0.0,0.0,0.0,0.0,0.0,0.0,0.0,0.0,0.0,0.0,0.0,0.0,0.0,0.0,0.0,0.0,0.0,0.0,0.0,0.0,0.0,0.0,0.0,0.0,0.0,0.0,0.0,0.0,0.0,0.0,0.0,0.0,0.0,0.0,0.0,0.0,0.0,0.0,0.0,0.0,0.0,0.0,0.0,0.0,0.0,0.0,0.0,0.0,0.0,0.0,0.0,0.0,0.0,0.0,0.0,0.0,0.0,0.0,0.0,0.0,0.0,0.0,0.0,0.0,0.0,0.0,0.0,0.0,0.0,0.0,0.0,0.0,0.0,0.0,0.0,0.0,0.0,0.0,0.0,0.0,0.0,0.0,0.0,0.0,0.0,0.0,0.0,0.0,0.0,0.0,0.0,0.0,0.0,0.0,0.0,0.0,0.0,0.0,0.0,0.0,0.0,0.0,0.0,0.0,0.0,0.0,0.0,0.0,0.0,0.0,0.0,0.0,0.0,0.0,0.0,0.0,0.0,0.0,0.0,0.0,0.0,0.0,0.0,0.0,0.0,0.0,0.0,0.0,0.0,0.0,0.0,0.0,0.0,0.0,0.0,0.0,0.0,0.0,0.0,0.0,0.0,0.0,0.0,0.0,0.0,0.0,0.0,0.0,0.0,0.0,0.0,0.0,0.0,0.0,0.0,0.0,0.0,0.0,0.0,0.0,0.0,0.0,0.0,0.0,0.0,0.0,0.0,0.0,0.0,0.0,0.0,0.0,0.0,0.0,0.0,0.0,0.0,0.0,0.0,0.0,0.0,0.0,0.0,0.0,0.0,0.0,0.0,0.0,0.0,0.0,0.0,0.0,0.0,0.0,0.0,0.0,0.0,0.0,0.0,0.0,0.0,0.0,0.0,0.0,0.0,0.0,0.0,0.0,0.0,0.0,0.0,0.0,0.0,0.0,0.0,0.0,0.0,0.0,0.0,0.0,0.0,0.0,0.0,0.0,0.0,0.0,0.0,0.0,0.0,0.0,0.0,0.0,0.0,0.0,0.0,0.0,0.0,0.0,0.0,0.0,0.0,0.0,0.0,0.0,0.0,0.0,0.0,0.0,0.0,0.0,0.0,0.0,0.0,0.0,0.0,0.0,0.0,0.0,0.0,0.0,0.0,0.0,0.0,0.0,0.0,0.0,0.0,0.0,0.0,0.0,0.0,0.0,0.0,0.0,0.0,0.0,0.0,0.0,0.0,0.0,0.0,0.0,0.0,0.0,0.0,0.0,0.0,0.0,0.0,0.0,0.0,0.0,0.0,0.0,0.0,0.0,0.0,0.0,0.0,0.0,0.0,0.0,0.0,0.0,0.0,0.0,0.0,0.0,0.0,0.0,0.0,0.0,0.0,0.0,0.0,0.0,0.0,0.0,0.0,0.0,0.0,0.0,0.0,0.0,0.0,0.0,0.0,0.0,0.0,0.0,0.0,0.0,0.0,0.0,0.0,0.0,0.0,0.0,0.0,0.0,0.0,0.0,0.0,0.0,0.0,0.0,0.0,0.0,0.0,0.0,0.0,0.0,0.0,0.0,0.0,0.0,0.0,0.0,0.0,0.0,0.0,0.0,0.0,0.0,0.0,0.0,0.0,0.0,0.0,0.0,0.0,0.0,0.0,0.0,0.0,0.0,0.0,0.0,0.0,0.0,0.0,0.0,0.0,0.0,0.0,0.0,0.0,0.0,0.0,0.0,0.0,0.0,0.0,0.0,0.0,0.0,0.0,0.0,0.0,0.0,0.0,0.0,0.0,0.0,0.0,0.0,0.0,0.0,0.0,0.0,0.0,0.0,0.0,0.0,0.0,0.0,0.0,0.0,0.0,0.0,0.0,0.0,0.0,0.0,0.0,0.0,0.0,0.0,0.0,0.0,0.0,0.0,0.0,0.0,0.0,0.0,0.0,0.0,0.0,0.0,0.0,0.0,0.0,0.0,0.0,0.0,0.0,0.0,0.0,0.0,0.0,0.0,0.0,0.0,0.0,0.0,0.0,0.0,0.0,0.0,0.0,0.0,0.0,0.0,0.0,0.0,0.0,0.0,0.0,0.0,0.0,0.0,0.0,0.0,0.0,0.0,0.0,0.0,0.0,0.0,0.0,0.0,0.0,0.0,0.0,0.0,0.0,0.0,0.0,0.0,0.0,0.0,0.0,0.0,0.0,0.0,0.0,0.0,0.0,0.0,0.0,0.0,0.0,0.0,0.0,0.0,0.0,0.0,0.0,0.0,0.0,0.0,0.0,0.0,0.0,0.0,0.0,0.0,0.0,0.0,0.0,0.0,0.0,0.0,0.0,0.0,0.0,0.0,0.0,0.0,0.0,0.0,0.0,0.0,0.0,0.0,0.0,0.0,0.0,0.0,0.0,0.0,0.0,0.0,0.0,0.0,0.0,0.0,0.0,0.0,0.0,0.0,0.0,0.0,0.0,0.0,0.0,0.0,0.0,0.0,0.0,0.0,0.0,0.0,0.0,0.0,0.0,0.0,0.0,0.0,0.0,0.0,0.0,0.0,0.0,0.0,0.0,0.0,0.0,0.0,0.0,0.0,0.0,0.0,0.0,0.0,0.0,0.0,0.0,0.0,0.0,0.0,0.0,0.0,0.0,0.0,0.0,0.0,0.0,0.0,0.0,0.0,0.0,0.0,0.0,0.0,0.0,0.0,0.0,0.0,0.0,0.0,0.0,0.0,0.0,0.0,0.0,0.0,0.0,0.0,0.0,0.0,0.0,0.0,0.0,0.0,0.0,0.0,0.0,0.0,0.0,0.0,0.0,0.0,0.0,0.0,0.0,0.0,0.0,0.0,0.0,0.0,0.0,0.0,0.0,0.0,0.0,0.0,0.0,0.0,0.0,0.0,0.0,0.0,0.0,0.0,0.0,0.0,0.0,0.0,0.0,0.0,0.0,0.0,0.0,0.0,0.0,0.0,0.0,0.0,0.0,0.0,0.0,0.0,0.0,0.0,0.0,0.0,0.0,0.0,0.0,0.0,0.0,0.0,0.0,0.0,0.0,0.0,0.0,0.0,0.0,0.0,0.0,0.0,0.0,0.0,0.0,0.0,0.0,0.0,0.0,0.0,0.0,0.0,0.0,0.0,0.0,0.0,0.0,0.0,0.0,0.0,0.0,0.0,0.0,0.0,0.0,0.0,0.0,0.0,0.0,0.0,0.0,0.0,0.0,0.0,0.0,0.0,0.0,0.0,0.0,0.0,0.0,2.1071,0.0,0.0,0.0,2.0907,0.0,0.0,0.0,0.0,0.0,0.0,0.0,0.0,0.0,0.0,0.0,0.0,0.0,0.0,0.0,0.0,0.0,0.0,0.0,0.0,0.0,0.0,0.0,0.0,0.0,0.0,0.0,0.0,0.0,0.0,0.0,0.0,0.0,0.0,0.0,0.0,0.0,0.0,0.0,0.0,0.0,0.0,0.0,0.0,0.0,0.0,0.0,0.0,0.0,0.0,0.0,0.0,0.0,0.0,0.0,0.0,0.0,0.0,0.0,0.0,0.0,0.0,0.0,0.0,0.0,0.0,0.0,0.0,0.0,0.0,0.0,0.0,0.0,0.0,0.0,0.0,0.0,0.0,0.0,0.0,0.0,0.0,0.0,0.0,0.0,0.0,0.0,0.0,0.0,0.0,0.0,0.0,0.0,0.0,0.0,0.0,0.0,0.0,0.0,0.0,0.0,0.0,0.0,0.0,0.0,0.0,0.0,0.0,0.0,0.0,2.1046,1.9793,2.2014,2.2457,2.0778,0.0,0.0,0.0,0.0,0.0,0.0,0.0,0.0,0.0,0.0,0.0,0.0,0.0,0.0,0.0,0.0,0.0,0.0,0.0,0.0,0.0,0.0,0.0,0.0,0.0,0.0,0.0,0.0,0.0,0.0,0.0,0.0,0.0,0.0,0.0,0.0,0.0,0.0,0.0,0.0,0.0,0.0,0.0,0.0,0.0,0.0,0.0,0.0,0.0,0.0,0.0,0.0,0.0,0.0,0.0,0.0,0.0,0.0,0.0,0.0,0.0,0.0,0.0,0.0,0.0,0.0,0.0,0.0,0.0,0.0,0.0,0.0,0.0,0.0,0.0,0.0,0.0,0.0,0.0,0.0,0.0,0.0,0.0,0.0,0.0,0.0,0.0,0.0,0.0,0.0,0.0,0.0,0.0,0.0,0.0,0.0,0.0,0.0,0.0,0.0,0.0,0.0,0.0,0.0,0.0,0.0,0.0,0.0,0.0,0.0,0.0,0.0,2.2761,2.3294,2.147,0.0,0.0,0.0,0.0,0.0,0.0,0.0,0.0,0.0,0.0,0.0,0.0,0.0,0.0,0.0,0.0,0.0,0.0,0.0,0.0,0.0,0.0,0.0,0.0,0.0,0.0,0.0,0.0,0.0,0.0,0.0,0.0,0.0,0.0,0.0,0.0,0.0,0.0,0.0,0.0,0.0,0.0,0.0,0.0,0.0,0.0,0.0,0.0,0.0,0.0,0.0,0.0,0.0,0.0,0.0,0.0,0.0,0.0,0.0,0.0,0.0,0.0,0.0,0.0,0.0,0.0,0.0,0.0,0.0,0.0,0.0,0.0,0.0,0.0,0.0,0.0,0.0,0.0,0.0,0.0,0.0,0.0,0.0,0.0,0.0,0.0,0.0,0.0,0.0,0.0,0.0,0.0,0.0,0.0,0.0,0.0,0.0,0.0,0.0,0.0,0.0,0.0,0.0,0.0,0.0,0.0,0.0,0.0,0.0,0.0,2.0387,2.1495,2.2403,0.0,2.3286,0.0,0.0,0.0,0.0,0.0,0.0,0.0,0.0,0.0,0.0,0.0,0.0,0.0,0.0,0.0,0.0,0.0,0.0,0.0,0.0,0.0,0.0,0.0,0.0,0.0,0.0,0.0,0.0,0.0,0.0,0.0,0.0,0.0,0.0,0.0,0.0,0.0,0.0,0.0,0.0,0.0,0.0,0.0,0.0,0.0,0.0,0.0,0.0,0.0,0.0,0.0,0.0,0.0,0.0,0.0,0.0,0.0,0.0,0.0,0.0,0.0,0.0,0.0,0.0,0.0,0.0,0.0,0.0,0.0,0.0,0.0,0.0,0.0,0.0,0.0,0.0,0.0,0.0,0.0,0.0,0.0,0.0,0.0,0.0,0.0,0.0,0.0,0.0,0.0,0.0,0.0,0.0,0.0,0.0,0.0,0.0,0.0,0.0,0.0,0.0,0.0,0.0,0.0,0.0,0.0,0.0,0.0,0.0,0.0,0.0,2.0921,2.2278,2.3281,2.3574,0.0,0.0,0.0,0.0,0.0,0.0,0.0,0.0,0.0,0.0,0.0,0.0,0.0,0.0,0.0,0.0,0.0,0.0,0.0,0.0,0.0,0.0,0.0,0.0,0.0,0.0,0.0,0.0,0.0,0.0,0.0,0.0,0.0,0.0,0.0,0.0,0.0,0.0,0.0,0.0,0.0,0.0,0.0,0.0,0.0,0.0,0.0,0.0,0.0,0.0,0.0,0.0,0.0,0.0,0.0,0.0,0.0,0.0,0.0,0.0,0.0,0.0,0.0,0.0,0.0,0.0,0.0,0.0,0.0,0.0,0.0,0.0,0.0,0.0,0.0,0.0,0.0,0.0,0.0,0.0,0.0,0.0,0.0,0.0,0.0,0.0,0.0,0.0,0.0,0.0,0.0,0.0,0.0,0.0,0.0,0.0,0.0,0.0,0.0,0.0,0.0,0.0,0.0,0.0,0.0,0.0,0.0,0.0,0.0,0.0,2.1186,2.2148,2.3942,2.4592,2.4442,2.3536,0.0,0.0,0.0,0.0,0.0,0.0,0.0,0.0,0.0,0.0,0.0,0.0,0.0,0.0,0.0,0.0,0.0,0.0,0.0,0.0,0.0,0.0,0.0,0.0,0.0,0.0,0.0,0.0,0.0,0.0,0.0,0.0,0.0,0.0,0.0,0.0,0.0,0.0,0.0,0.0,0.0,0.0,0.0,0.0,0.0,0.0,0.0,0.0,0.0,0.0,0.0,0.0,0.0,0.0,0.0,0.0,0.0,0.0,0.0,0.0,0.0,0.0,0.0,0.0,0.0,0.0,0.0,0.0,0.0,0.0,0.0,0.0,0.0,0.0,0.0,0.0,0.0,0.0,0.0,0.0,0.0,0.0,0.0,0.0,0.0,0.0,0.0,0.0,0.0,0.0,0.0,0.0,0.0,0.0,0.0,0.0,0.0,0.0,0.0,0.0,0.0,0.0,0.0,0.0,0.0,0.0,0.0,0.0,2.4121,2.3221,2.414,2.7165,2.6183,2.5513,0.0,0.0,0.0,0.0,0.0,0.0,0.0,0.0,0.0,0.0,0.0,0.0,0.0,0.0,0.0,0.0,0.0,0.0,0.0,0.0,0.0,0.0,0.0,0.0,0.0,0.0,0.0,0.0,0.0,0.0,0.0,0.0,0.0,0.0,0.0,0.0,0.0,0.0,0.0,0.0,0.0,0.0,0.0,0.0,0.0,0.0,0.0,0.0,0.0,0.0,0.0,0.0,0.0,0.0,0.0,0.0,0.0,0.0,0.0,0.0,0.0,0.0,0.0,0.0,0.0,0.0,0.0,0.0,0.0,0.0,0.0,0.0,0.0,0.0,0.0,0.0,0.0,0.0,0.0,0.0,0.0,0.0,0.0,0.0,0.0,0.0,0.0,0.0,0.0,0.0,0.0,0.0,0.0,0.0,0.0,0.0,0.0,0.0,0.0,0.0,0.0,0.0,0.0,0.0,0.0,0.0,0.0,0.0,0.0,2.2767,2.4328,2.5962,2.7507,2.7129,2.6674,0.0,0.0,0.0,0.0,0.0,0.0,0.0,0.0,0.0,0.0,0.0,0.0,0.0,0.0,0.0,0.0,0.0,0.0,0.0,0.0,0.0,0.0,0.0,0.0,0.0,0.0,0.0,0.0,0.0,0.0,0.0,0.0,0.0,0.0,0.0,0.0,0.0,0.0,0.0,0.0,0.0,0.0,0.0,0.0,0.0,0.0,0.0,0.0,0.0,0.0,0.0,0.0,0.0,0.0,0.0,0.0,0.0,0.0,0.0,0.0,0.0,0.0,0.0,0.0,0.0,0.0,0.0,0.0,0.0,0.0,0.0,0.0,0.0,0.0,0.0,0.0,0.0,0.0,0.0,0.0,0.0,0.0,0.0,0.0,0.0,0.0,0.0,0.0,0.0,0.0,0.0,0.0,0.0,0.0,0.0,0.0,0.0,0.0,0.0,0.0,0.0,0.0,0.0,0.0,0.0,0.0,0.0,0.0,0.0,2.365,2.6393,2.7991,2.8214,2.8028,2.7512,0.0,0.0,0.0,0.0,0.0,0.0,0.0,0.0,0.0,0.0,0.0,0.0,0.0,0.0,0.0,0.0,0.0,0.0,0.0,0.0,0.0,0.0,0.0,0.0,0.0,0.0,0.0,0.0,0.0,0.0,0.0,0.0,0.0,0.0,0.0,0.0,0.0,0.0,0.0,0.0,0.0,0.0,0.0,0.0,0.0,0.0,0.0,0.0,0.0,0.0,0.0,0.0,0.0,0.0,0.0,0.0,0.0,0.0,0.0,0.0,0.0,0.0,0.0,0.0,0.0,0.0,0.0,0.0,0.0,0.0,0.0,0.0,0.0,0.0,0.0,0.0,0.0,0.0,0.0,0.0,0.0,0.0,0.0,0.0,0.0,0.0,0.0,0.0,0.0,0.0,0.0,0.0,0.0,0.0,0.0,0.0,0.0,0.0,0.0,0.0,0.0,0.0,0.0,0.0,0.0,0.0,0.0,0.0,2.3675,2.7369,2.9368,3.002,2.9585,2.8919,2.7985,0.0,0.0,0.0,0.0,0.0,0.0,0.0,0.0,0.0,0.0,0.0,0.0,0.0,0.0,0.0,0.0,0.0,0.0,0.0,0.0,0.0,0.0,0.0,0.0,0.0,0.0,0.0,0.0,0.0,0.0,0.0,0.0,0.0,0.0,0.0,0.0,0.0,0.0,0.0,0.0,0.0,0.0,0.0,0.0,0.0,0.0,0.0,0.0,0.0,0.0,0.0,0.0,0.0,0.0,0.0,0.0,0.0,0.0,0.0,0.0,0.0,0.0,0.0,0.0,0.0,0.0,0.0,0.0,0.0,0.0,0.0,0.0,0.0,0.0,0.0,0.0,0.0,0.0,0.0,0.0,0.0,0.0,0.0,0.0,0.0,0.0,0.0,0.0,0.0,0.0,0.0,0.0,0.0,0.0,0.0,0.0,0.0,0.0,0.0,0.0,0.0,0.0,0.0,0.0,0.0,0.0,0.0,0.0,0.0,2.695,2.8853,2.9571,2.8943,2.8697,2.8607,0.0,0.0,0.0,0.0,0.0,0.0,0.0,0.0,0.0,0.0,0.0,0.0,0.0,0.0,0.0,0.0,0.0,0.0,0.0,0.0,0.0,0.0,0.0,0.0,0.0,0.0,0.0,0.0,0.0,0.0,0.0,0.0,0.0,0.0,0.0,0.0,0.0,0.0,0.0,0.0,0.0,0.0,0.0,0.0,0.0,0.0,0.0,0.0,0.0,0.0,0.0,0.0,0.0,0.0,0.0,0.0,0.0,0.0,0.0,0.0,0.0,0.0,0.0,0.0,0.0,0.0,0.0,0.0,0.0,0.0,0.0,0.0,0.0,0.0,0.0,0.0,0.0,0.0,0.0,0.0,0.0,0.0,0.0,0.0,0.0,0.0,0.0,0.0,0.0,0.0,0.0,0.0,0.0,0.0,0.0,0.0,0.0,0.0,0.0,0.0,0.0,0.0,0.0,0.0,0.0,0.0,0.0,0.0,0.0,2.8164,2.9535,2.9983,2.9332,2.9092,2.8943,2.8806,0.0,0.0,0.0,0.0,0.0,0.0,0.0,0.0,0.0,0.0,0.0,0.0,0.0,0.0,0.0,0.0,0.0,0.0,0.0,0.0,0.0,0.0,0.0,0.0,0.0,0.0,0.0,0.0,0.0,0.0,0.0,0.0,0.0,0.0,0.0,0.0,0.0,0.0,0.0,0.0,0.0,0.0,0.0,0.0,0.0,0.0,0.0,0.0,0.0,0.0,0.0,0.0,0.0,0.0,0.0,0.0,0.0,0.0,0.0,0.0,0.0,0.0,0.0,0.0,0.0,0.0,0.0,0.0,0.0,0.0,0.0,0.0,0.0,0.0,0.0,0.0,0.0,0.0,0.0,0.0,0.0,0.0,0.0,0.0,0.0,0.0,0.0,0.0,0.0,0.0,0.0,0.0,0.0,0.0,0.0,0.0,0.0,0.0,0.0,0.0,0.0,0.0,0.0,0.0,0.0,0.0,0.0,0.0,3.0538,3.1249,3.1241,3.0478,2.993,2.9009,0.0,0.0,0.0,0.0,0.0,0.0,0.0,0.0,0.0,0.0,0.0,0.0,0.0,0.0,0.0,0.0,0.0,0.0,0.0,0.0,0.0,0.0,0.0,0.0,0.0,0.0,0.0,0.0,0.0,0.0,0.0,0.0,0.0,0.0,0.0,0.0,0.0,0.0,0.0,0.0,0.0,0.0,0.0,0.0,0.0,0.0,0.0,0.0,0.0,0.0,0.0,0.0,0.0,0.0,0.0,0.0,0.0,0.0,0.0,0.0,0.0,0.0,0.0,0.0,0.0,0.0,0.0,0.0,0.0,0.0,0.0,0.0,0.0,0.0,0.0,0.0,0.0,0.0,0.0,0.0,0.0,0.0,0.0,0.0,0.0,0.0,0.0,0.0,0.0,0.0,0.0,0.0,0.0,0.0,0.0,0.0,0.0,0.0,0.0,0.0,0.0,0.0,0.0,0.0,0.0,0.0,0.0,0.0,0.0,3.1241,3.2362,3.2198,3.0575,3.0342,2.9661,0.0,0.0,0.0,0.0,0.0,0.0,0.0,0.0,0.0,0.0,0.0,0.0,0.0,0.0,0.0,0.0,0.0,0.0,0.0,0.0,0.0,0.0,0.0,0.0,0.0,0.0,0.0,0.0,0.0,0.0,0.0,0.0,0.0,0.0,0.0,0.0,0.0,0.0,0.0,0.0,0.0,0.0,0.0,0.0,0.0,0.0,0.0,0.0,0.0,0.0,0.0,0.0,0.0,0.0,0.0,0.0,0.0,0.0,0.0,0.0,0.0,0.0,0.0,0.0,0.0,0.0,0.0,0.0,0.0,0.0,0.0,0.0,0.0,0.0,0.0,0.0,0.0,0.0,0.0,0.0,0.0,0.0,0.0,0.0,0.0,0.0,0.0,0.0,0.0,0.0,0.0,0.0,0.0,0.0,0.0,0.0,0.0,0.0,0.0,0.0,0.0,0.0,0.0,0.0,0.0,0.0,0.0,0.0,3.1375,3.3125,3.3955,3.3634,3.2198,3.1629,3.0462,0.0,0.0,0.0,0.0,0.0,0.0,0.0,0.0,0.0,0.0,0.0,0.0,0.0,0.0,0.0,0.0,0.0,0.0,0.0,0.0,0.0,0.0,0.0,0.0,0.0,0.0,0.0,0.0,0.0,0.0,0.0,0.0,0.0,0.0,0.0,0.0,0.0,0.0,0.0,0.0,0.0,0.0,0.0,0.0,0.0,0.0,0.0,0.0,0.0,0.0,0.0,0.0,0.0,0.0,0.0,0.0,0.0,0.0,0.0,0.0,0.0,0.0,0.0,0.0,0.0,0.0,0.0,0.0,0.0,0.0,0.0,0.0,0.0,0.0,0.0,0.0,0.0,0.0,0.0,0.0,0.0,0.0,0.0,0.0,0.0,0.0,0.0,0.0,0.0,0.0,0.0,0.0,0.0,0.0,0.0,0.0,0.0,0.0,0.0,0.0,0.0,0.0,0.0,0.0,0.0,0.0,0.0,0.0,3.2445,3.5511,3.5609,3.528,3.4607,3.3305,3.1346,0.0,0.0,0.0,0.0,0.0,0.0,0.0,0.0,0.0,0.0,0.0,0.0,0.0,0.0,0.0,0.0,0.0,0.0,0.0,0.0,0.0,0.0,0.0,0.0,0.0,0.0,0.0,0.0,0.0,0.0,0.0,0.0,0.0,0.0,0.0,0.0,0.0,0.0,0.0,0.0,0.0,0.0,0.0,0.0,0.0,0.0,0.0,0.0,0.0,0.0,0.0,0.0,0.0,0.0,0.0,0.0,0.0,0.0,0.0,0.0,0.0,0.0,0.0,0.0,0.0,0.0,0.0,0.0,0.0,0.0,0.0,0.0,0.0,0.0,0.0,0.0,0.0,0.0,0.0,0.0,0.0,0.0,0.0,0.0,0.0,0.0,0.0,0.0,0.0,0.0,0.0,0.0,0.0,0.0,0.0,0.0,0.0,0.0,0.0,0.0,0.0,0.0,0.0,0.0,0.0,0.0,0.0,0.0,3.4488,3.6216,3.6276,3.5976,3.531,3.3993,3.1801,0.0,0.0,0.0,0.0,0.0,0.0,0.0,0.0,0.0,0.0,0.0,0.0,0.0,0.0,0.0,0.0,0.0,0.0,0.0,0.0,0.0,0.0,0.0,0.0,0.0,0.0,0.0,0.0,0.0,0.0,0.0,0.0,0.0,0.0,0.0,0.0,0.0,0.0,0.0,0.0,0.0,0.0,0.0,0.0,0.0,0.0,0.0,0.0,2.7979,0.0,0.0,0.0,0.0,0.0,0.0,0.0,0.0,0.0,0.0,0.0,0.0,0.0,0.0,0.0,0.0,0.0,0.0,0.0,0.0,0.0,0.0,0.0,0.0,0.0,0.0,0.0,0.0,0.0,0.0,0.0,0.0,0.0,0.0,0.0,0.0,0.0,0.0,0.0,0.0,0.0,0.0,0.0,0.0,0.0,0.0,0.0,0.0,0.0,0.0,0.0,0.0,0.0,0.0,0.0,0.0,0.0,0.0,0.0,3.5446,3.7285,3.7413,3.7242,3.6827,3.5238,3.2819,0.0,0.0,0.0,0.0,0.0,0.0,0.0,0.0,0.0,0.0,0.0,0.0,0.0,0.0,0.0,0.0,0.0,0.0,0.0,0.0,0.0,0.0,0.0,0.0,0.0,0.0,0.0,0.0,0.0,0.0,0.0,0.0,0.0,0.0,0.0,0.0,0.0,0.0,0.0,0.0,0.0,0.0,0.0,0.0,0.0,0.0,0.0,0.0,0.0,0.0,0.0,0.0,0.0,0.0,0.0,0.0,0.0,0.0,0.0,0.0,0.0,0.0,0.0,0.0,0.0,0.0,0.0,0.0,0.0,0.0,0.0,0.0,0.0,0.0,0.0,0.0,0.0,0.0,0.0,0.0,0.0,0.0,0.0,0.0,0.0,0.0,0.0,0.0,0.0,0.0,0.0,0.0,0.0,0.0,0.0,0.0,0.0,0.0,0.0,0.0,0.0,0.0,0.0,0.0,0.0,0.0,0.0,3.433,3.6104,3.8431,3.855,3.8438,3.8195,3.6625,3.4177,3.0757,0.0,0.0,0.0,0.0,0.0,0.0,0.0,0.0,0.0,0.0,0.0,0.0,0.0,0.0,0.0,0.0,0.0,0.0,0.0,0.0,0.0,0.0,0.0,0.0,0.0,0.0,0.0,0.0,0.0,0.0,0.0,0.0,0.0,0.0,0.0,0.0,0.0,0.0,2.4993,2.6273,0.0,0.0,0.0,0.0,0.0,0.0,0.0,0.0,3.0329,0.0,0.0,0.0,0.0,0.0,0.0,0.0,0.0,0.0,0.0,0.0,0.0,0.0,0.0,0.0,0.0,0.0,0.0,0.0,0.0,0.0,0.0,0.0,0.0,0.0,0.0,0.0,0.0,0.0,0.0,0.0,0.0,0.0,0.0,0.0,0.0,0.0,0.0,0.0,0.0,0.0,0.0,0.0,0.0,0.0,0.0,0.0,0.0,0.0,0.0,0.0,0.0,0.0,0.0,0.0,0.0,3.5797,3.6567,3.7665,3.9182,3.9221,3.8647,3.7481,3.7712,3.5798,3.1388,0.0,0.0,0.0,0.0,0.0,0.0,0.0,0.0,0.0,0.0,0.0,0.0,0.0,0.0,0.0,0.0,0.0,0.0,0.0,0.0,0.0,0.0,0.0,0.0,0.0,0.0,0.0,0.0,0.0,0.0,0.0,0.0,0.0,0.0,0.0,0.0,0.0,0.0,0.0,2.8613,2.9535,0.0,0.0,0.0,0.0,0.0,0.0,0.0,0.0,3.1219,0.0,0.0,0.0,0.0,0.0,0.0,0.0,0.0,0.0,0.0,0.0,0.0,0.0,0.0,0.0,0.0,0.0,0.0,0.0,0.0,0.0,0.0,0.0,0.0,0.0,0.0,0.0,0.0,0.0,0.0,0.0,0.0,0.0,0.0,0.0,0.0,0.0,0.0,0.0,0.0,0.0,0.0,0.0,0.0,0.0,0.0,0.0,0.0,0.0,0.0,0.0,0.0,0.0,0.0,0.0,3.5416,3.7434,3.9101,4.0358,3.9968,3.9396,3.8695,3.7605,3.5374,0.0,0.0,0.0,0.0,0.0,0.0,0.0,0.0,0.0,0.0,0.0,0.0,0.0,0.0,0.0,0.0,0.0,0.0,0.0,0.0,0.0,0.0,0.0,0.0,0.0,0.0,0.0,0.0,0.0,0.0,0.0,0.0,0.0,0.0,0.0,0.0,0.0,0.0,0.0,0.0,3.0156,3.1442,3.3776,0.0,0.0,0.0,0.0,0.0,0.0,3.3327,3.2116,0.0,0.0,0.0,0.0,0.0,0.0,0.0,0.0,0.0,0.0,0.0,0.0,0.0,0.0,0.0,0.0,0.0,0.0,0.0,0.0,0.0,0.0,0.0,0.0,0.0,0.0,0.0,0.0,0.0,0.0,0.0,0.0,0.0,0.0,0.0,0.0,0.0,0.0,0.0,0.0,0.0,0.0,0.0,0.0,0.0,0.0,0.0,0.0,0.0,0.0,0.0,0.0,0.0,0.0,0.0,3.4741,3.7646,3.9798,4.1029,4.0529,3.9998,3.9576,3.7453,3.4944,0.0,0.0,0.0,0.0,0.0,0.0,0.0,0.0,0.0,0.0,0.0,0.0,0.0,0.0,0.0,0.0,0.0,0.0,0.0,0.0,0.0,0.0,0.0,0.0,0.0,0.0,0.0,0.0,0.0,0.0,0.0,0.0,0.0,0.0,0.0,0.0,0.0,0.0,0.0,0.0,0.0,3.3439,3.5946,3.7285,0.0,0.0,0.0,0.0,3.6289,3.4695,0.0,0.0,0.0,0.0,0.0,0.0,0.0,0.0,0.0,0.0,0.0,0.0,0.0,0.0,0.0,0.0,0.0,0.0,0.0,0.0,0.0,0.0,0.0,0.0,0.0,0.0,0.0,0.0,0.0,0.0,0.0,0.0,0.0,0.0,0.0,0.0,0.0,0.0,0.0,0.0,0.0,0.0,0.0,0.0,0.0,0.0,0.0,0.0,0.0,0.0,0.0,0.0,0.0,0.0,0.0,0.0,3.5343,3.7345,3.8954,4.012,4.0622,3.9886,3.7888,3.8199,3.6139,0.0,0.0,0.0,0.0,0.0,0.0,0.0,0.0,0.0,0.0,0.0,0.0,0.0,0.0,0.0,0.0,0.0,0.0,0.0,0.0,0.0,0.0,0.0,0.0,0.0,0.0,0.0,0.0,0.0,0.0,0.0,0.0,0.0,0.0,0.0,0.0,0.0,0.0,0.0,0.0,0.0,3.5857,3.5639,3.8144,3.9409,0.0,0.0,3.9601,3.9041,3.7755,0.0,0.0,0.0,0.0,0.0,0.0,0.0,0.0,0.0,0.0,0.0,0.0,0.0,0.0,0.0,0.0,0.0,0.0,0.0,0.0,0.0,0.0,0.0,0.0,0.0,0.0,0.0,0.0,0.0,0.0,0.0,0.0,0.0,0.0,0.0,0.0,0.0,0.0,0.0,0.0,0.0,0.0,0.0,0.0,0.0,0.0,0.0,0.0,0.0,0.0,0.0,0.0,0.0,0.0,0.0,3.3073,3.5492,3.7969,3.9518,4.0011,4.05,3.9908,3.8064,3.7865,3.6113,0.0,0.0,0.0,0.0,0.0,0.0,0.0,0.0,0.0,0.0,0.0,0.0,0.0,0.0,0.0,0.0,0.0,0.0,0.0,0.0,0.0,0.0,0.0,0.0,0.0,0.0,0.0,0.0,0.0,0.0,0.0,0.0,0.0,0.0,0.0,0.0,0.0,0.0,0.0,0.0,0.0,0.0,3.852,4.0077,0.0,0.0,0.0,4.0576,3.9562,0.0,0.0,0.0,0.0,0.0,0.0,0.0,0.0,0.0,0.0,0.0,0.0,0.0,0.0,0.0,0.0,0.0,0.0,0.0,0.0,0.0,0.0,0.0,0.0,0.0,0.0,0.0,0.0,0.0,0.0,0.0,0.0,0.0,0.0,0.0,0.0,0.0,0.0,0.0,0.0,0.0,0.0,0.0,0.0,0.0,0.0,0.0,0.0,0.0,0.0,0.0,0.0,0.0,0.0,0.0,0.0,0.0,3.565,3.8302,3.97,3.978,4.0094,3.9594,3.8307,3.7591,0.0,0.0,0.0,0.0,0.0,0.0,0.0,0.0,0.0,0.0,0.0,0.0,0.0,0.0,0.0,0.0,0.0,0.0,0.0,0.0,0.0,0.0,0.0,0.0,0.0,0.0,0.0,2.321,0.0,0.0,0.0,0.0,0.0,0.0,0.0,0.0,0.0,0.0,0.0,0.0,0.0,0.0,3.6948,4.0571,4.1459,4.1887,0.0,0.0,4.1268,4.0519,4.0118,3.961,0.0,0.0,0.0,0.0,0.0,0.0,0.0,0.0,0.0,0.0,0.0,0.0,0.0,0.0,0.0,0.0,0.0,0.0,0.0,0.0,0.0,0.0,0.0,0.0,0.0,0.0,0.0,0.0,0.0,0.0,0.0,0.0,0.0,0.0,0.0,0.0,0.0,0.0,0.0,0.0,0.0,0.0,0.0,0.0,0.0,0.0,0.0,0.0,0.0,0.0,0.0,0.0,0.0,0.0,0.0,3.6057,3.7674,3.8744,3.9146,3.926,3.8843,3.7974,3.7882,3.675,0.0,0.0,0.0,0.0,0.0,0.0,0.0,0.0,0.0,0.0,0.0,0.0,0.0,0.0,0.0,0.0,0.0,0.0,0.0,0.0,0.0,0.0,0.0,0.0,0.0,0.0,0.0,0.0,0.0,0.0,0.0,0.0,0.0,0.0,0.0,0.0,0.0,0.0,0.0,0.0,0.0,3.9137,4.0079,4.1577,4.2564,0.0,0.0,4.2218,4.2901,4.2033,4.1433,4.1952,0.0,0.0,0.0,0.0,0.0,0.0,0.0,0.0,0.0,0.0,0.0,0.0,0.0,0.0,0.0,0.0,0.0,0.0,0.0,0.0,0.0,0.0,0.0,0.0,0.0,0.0,0.0,0.0,0.0,0.0,0.0,0.0,0.0,0.0,0.0,0.0,0.0,0.0,0.0,0.0,0.0,0.0,0.0,0.0,0.0,0.0,0.0,0.0,0.0,0.0,0.0,0.0,0.0,3.4518,3.5892,3.7552,3.8808,3.9618,3.9712,3.9332,3.8408,3.8385,3.7627,0.0,0.0,0.0,0.0,0.0,0.0,0.0,0.0,0.0,0.0,0.0,0.0,0.0,0.0,0.0,0.0,0.0,0.0,0.0,0.0,0.0,0.0,0.0,0.0,0.0,0.0,0.0,0.0,2.9521,2.997,2.8949,0.0,0.0,0.0,0.0,0.0,0.0,0.0,0.0,0.0,0.0,4.0013,4.1499,4.2266,0.0,0.0,4.2761,4.2553,4.289,4.2277,4.2008,4.2674,4.2343,0.0,0.0,0.0,0.0,0.0,0.0,0.0,0.0,0.0,0.0,0.0,0.0,0.0,0.0,0.0,0.0,0.0,0.0,0.0,0.0,0.0,0.0,0.0,0.0,0.0,0.0,0.0,0.0,0.0,0.0,0.0,0.0,0.0,0.0,0.0,0.0,0.0,0.0,0.0,0.0,0.0,0.0,0.0,0.0,0.0,0.0,0.0,0.0,0.0,0.0,0.0,0.0,3.5234,3.5984,3.78,3.9129,3.9864,3.9926,3.9716,3.9219,3.9038,3.8527,0.0,0.0,0.0,0.0,0.0,0.0,0.0,0.0,0.0,0.0,0.0,0.0,0.0,0.0,0.0,0.0,0.0,0.0,0.0,0.0,0.0,0.0,0.0,0.0,0.0,0.0,0.0,0.0,3.0455,3.1173,3.1082,0.0,0.0,0.0,0.0,0.0,0.0,0.0,0.0,0.0,0.0,4.1077,4.2664,4.2818,4.3025,4.3601,4.3225,4.29,4.3002,4.2898,4.3029,4.3681,0.0,0.0,0.0,0.0,0.0,0.0,0.0,0.0,0.0,0.0,0.0,0.0,0.0,0.0,0.0,0.0,0.0,0.0,0.0,0.0,0.0,0.0,0.0,0.0,0.0,0.0,0.0,0.0,0.0,0.0,2.3615,0.0,0.0,0.0,0.0,0.0,0.0,0.0,0.0,0.0,0.0,0.0,0.0,0.0,0.0,0.0,0.0,0.0,0.0,0.0,0.0,0.0,0.0,3.6947,3.6433,3.8478,3.9582,3.9673,3.9635,3.9884,4.0318,3.9874,3.9299,3.8646,0.0,0.0,0.0,0.0,0.0,0.0,0.0,0.0,0.0,0.0,0.0,0.0,0.0,0.0,0.0,0.0,0.0,0.0,0.0,0.0,0.0,0.0,0.0,0.0,0.0,0.0,2.7117,2.9056,3.1599,0.0,0.0,0.0,0.0,0.0,0.0,0.0,0.0,0.0,0.0,4.2215,4.2497,4.3228,4.3129,4.3187,4.3665,4.3491,4.3399,4.3637,4.416,4.4771,0.0,0.0,0.0,0.0,0.0,0.0,0.0,0.0,0.0,0.0,0.0,0.0,0.0,0.0,0.0,0.0,0.0,0.0,0.0,0.0,0.0,0.0,0.0,0.0,0.0,0.0,0.0,2.9491,2.9521,0.0,0.0,0.0,0.0,0.0,0.0,0.0,0.0,0.0,0.0,0.0,3.5489,3.6857,0.0,0.0,0.0,0.0,0.0,0.0,0.0,0.0,0.0,0.0,0.0,0.0,3.8093,3.7514,3.8839,4.0162,4.1284,4.0932,4.0815,4.0985,4.0815,4.0193,3.9061,0.0,0.0,0.0,0.0,0.0,0.0,0.0,0.0,0.0,0.0,0.0,0.0,0.0,0.0,0.0,0.0,0.0,0.0,0.0,0.0,0.0,0.0,0.0,0.0,0.0,3.1069,0.0,0.0,0.0,0.0,0.0,0.0,0.0,0.0,0.0,0.0,0.0,4.135,4.164,4.2459,4.3512,4.4843,4.4006,4.3594,0.0,0.0,0.0,0.0,0.0,0.0,0.0,0.0,0.0,0.0,0.0,0.0,0.0,0.0,4.3451,4.2264,4.202,4.2177,4.27,0.0,0.0,0.0,0.0,0.0,0.0,0.0,0.0,0.0,0.0,0.0,0.0,0.0,0.0,0.0,0.0,3.3529,0.0,0.0,0.0,0.0,0.0,0.0,0.0,0.0,3.6524,3.74,3.7201,3.8534,3.9033,0.0,3.8456,3.7438,0.0,0.0,0.0,0.0,0.0,0.0,0.0,0.0,3.8573,3.8001,3.943,4.0749,4.1807,4.1899,4.1874,4.1874,4.1419,4.0411,3.8835,3.6987,3.6097,0.0,0.0,0.0,0.0,0.0,0.0,0.0,0.0,0.0,0.0,0.0,0.0,0.0,0.0,0.0,0.0,0.0,0.0,0.0,0.0,0.0,0.0,0.0,3.4063,0.0,0.0,0.0,0.0,0.0,0.0,0.0,0.0,0.0,3.8547,4.0592,4.1951,4.1586,4.2618,4.3668,4.4362,0.0,0.0,0.0,0.0,0.0,0.0,0.0,4.5884,4.504,4.5241,4.5224,4.436,4.4082,4.4033,4.4183,0.0,0.0,4.3784,4.4067,4.4547,4.4878,4.4128,4.3694,4.4376,4.4792,4.5226,0.0,0.0,0.0,0.0,0.0,0.0,0.0,0.0,3.5661,3.5691,0.0,3.5701,0.0,0.0,0.0,0.0,0.0,3.6052,0.0,0.0,3.8619,3.9235,3.9994,3.9256,3.914,3.9687,3.9967,3.9762,3.9136,3.8063,0.0,0.0,0.0,0.0,0.0,0.0,3.8489,3.8124,4.0188,4.1311,4.1403,4.2409,4.2958,4.2892,4.1593,3.9996,3.8197,3.7485,3.6743,3.5987,3.4322,0.0,0.0,0.0,0.0,0.0,0.0,0.0,0.0,0.0,0.0,0.0,0.0,0.0,0.0,0.0,0.0,0.0,0.0,0.0,0.0,3.4493,0.0,0.0,0.0,0.0,0.0,0.0,0.0,0.0,0.0,0.0,4.1071,4.0509,4.049,4.1774,0.0,0.0,0.0,0.0,4.2226,4.3322,4.395,4.4319,4.4258,4.528,4.5755,4.4619,0.0,0.0,4.3539,4.2595,4.2603,4.4689,4.4239,4.3899,4.4993,4.5458,4.6029,4.6815,4.6712,4.6631,4.6387,4.6902,4.7451,3.876,0.0,0.0,0.0,0.0,3.6994,3.7772,3.899,3.899,3.8999,3.9006,3.9254,0.0,0.0,0.0,0.0,0.0,0.0,3.7675,3.8264,3.9184,4.0094,4.097,4.1121,4.1481,4.2004,4.173,4.1471,4.1287,4.0545,4.0395,4.0726,0.0,0.0,0.0,0.0,4.0045,4.0345,4.0972,4.1691,4.2501,4.2448,4.2408,4.2408,4.108,4.0159,3.9787,3.8484,3.7542,3.7057,3.6539,0.0,0.0,0.0,0.0,0.0,0.0,0.0,0.0,0.0,0.0,0.0,0.0,0.0,0.0,0.0,0.0,0.0,0.0,0.0,3.64,3.8179,3.9527,0.0,0.0,0.0,0.0,0.0,0.0,0.0,0.0,0.0,4.1346,4.1715,4.2535,0.0,0.0,4.3224,4.5305,4.3868,4.3,4.4169,0.0,0.0,0.0,4.5497,4.599,4.5236,4.4578,4.4149,4.4149,4.3878,4.3593,4.3617,4.3884,4.4169,4.4226,4.4888,4.5463,4.5749,4.6297,4.6917,4.7282,4.7608,4.7869,4.1683,4.0877,3.984,3.9619,3.9966,3.9975,4.0885,4.2342,4.2342,4.2138,4.1755,4.1743,4.0696,3.8945,3.9069,0.0,0.0,0.0,3.9087,3.9393,4.0171,4.0933,4.1675,4.2042,4.2487,4.2971,4.2568,4.2305,4.2211,4.1686,4.1642,4.1917,0.0,0.0,4.1579,4.1032,4.0933,4.1273,4.152,4.2108,4.2984,4.2931,4.267,4.2199,4.1376,4.0811,4.0491,3.9525,3.8818,3.8389,3.8032,3.7457,0.0,0.0,0.0,0.0,0.0,0.0,0.0,0.0,0.0,0.0,0.0,2.9558,3.073,0.0,0.0,0.0,3.669,3.7584,3.8186,3.9957,0.0,0.0,0.0,0.0,0.0,0.0,0.0,3.9286,4.0489,4.1427,4.1389,4.1848,4.2562,4.3524,4.2947,4.3019,4.4596,0.0,4.2666,4.3818,4.4414,4.4664,4.4358,4.5076,4.5395,4.4573,4.3927,4.3651,4.3796,4.3677,4.3559,4.3625,4.3743,4.3914,4.4108,4.4616,4.5161,4.556,4.614,4.6785,4.7427,4.734,4.7486,4.3379,4.3071,4.0744,4.0763,4.2334,4.2423,4.3379,4.4987,4.5026,4.4522,4.3661,4.3177,4.2156,4.0713,4.0026,0.0,4.0174,4.0614,4.0976,4.1311,4.1338,4.1716,4.2329,4.2343,4.2631,4.3154,4.2836,4.2584,4.2328,4.1996,4.2211,4.2944,4.1952,4.1442,4.1507,4.1364,4.1364,4.152,4.2029,4.2513,4.2997,4.3506,4.3271,4.2265,4.2253,4.1759,4.0658,4.0625,4.04,3.9836,3.9007,3.8575,3.8549,0.0,0.0,0.0,0.0,0.0,0.0,0.0,0.0,0.0,0.0,0.0,0.0,0.0,0.0,3.6837,3.7968,0.0,3.8666,4.047,0.0,0.0,0.0,4.3252,4.2843,4.2456,4.1949,4.1124,0.0,0.0,4.1378,0.0,4.1414,4.1439,4.2259,4.2538,4.1683,4.1626,4.1804,4.2864,4.34,4.3713,4.3682,4.4167,4.4235,4.3303,4.2626,4.2636,4.3039,4.2888,4.3122,4.4328,4.3838,4.3475,4.4513,4.4678,4.499,4.5914,4.6256,4.6549,4.7005,4.6877,4.7048,4.4066,4.29,4.2794,4.2496,4.2118,4.2544,4.2584,4.2456,4.2818,4.2874,4.2665,4.2738,4.2771,4.2746,4.1914,4.1503,4.1364,4.1227,4.1223,4.1324,4.1781,4.2513,4.3467,4.3494,4.3768,4.4251,4.3822,4.3546,4.3454,4.2942,4.2798,4.2958,4.2736,4.2801,4.3219,4.1965,4.1965,4.3271,4.2984,4.2879,4.2997,4.2747,4.2577,4.2502,4.2683,4.2357,4.148,4.1643,4.1518,4.0926,4.0339,3.9988,4.0001,3.9487,0.0,0.0,0.0,0.0,0.0,0.0,0.0,0.0,0.0,3.4918,3.5752,0.0,3.9193,0.0,3.9114,3.9909,4.1042,4.164,0.0,0.0,4.2189,4.2089,4.1209,4.1014,4.0857,4.0678,4.144,4.1984,4.197,4.2347,4.2598,4.2598,4.2454,4.2735,4.3648,4.311,4.2668,4.2932,4.3129,4.319,4.3229,4.3291,4.3376,4.3056,4.3226,4.3463,4.3603,4.3851,4.4191,4.455,4.4432,4.4346,4.4592,4.4632,4.4692,4.505,4.6037,4.7011,4.7152,4.7363,4.7703,4.4165,4.3388,4.3724,4.3284,4.2367,4.2822,4.2943,4.2789,4.3345,4.332,4.2897,4.2599,4.2492,4.2483,4.2284,4.211,4.1975,4.2034,4.22,4.2474,4.2787,4.3415,4.4265,4.4251,4.4421,4.4695,4.467,4.4643,4.4657,4.4591,4.4367,4.3999,4.3832,4.3791,4.3876,4.2932,4.3062,4.4239,4.3544,4.3074,4.2827,4.2639,4.2736,4.3126,4.3157,4.3187,4.3174,4.3028,4.2861,4.2758,4.227,4.1868,4.163,4.1465,4.1306,0.0,0.0,0.0,0.0,0.0,0.0,0.0,0.0,0.0,0.0,0.0,4.0404,4.0173,4.0307,4.0796,4.1784,4.1788,4.1812,4.2003,4.2107,4.1921,4.1321,4.148,4.1605,4.1592,4.2171,4.2551,4.2576,4.2799,4.3076,4.3327,4.3115,4.315,4.374,4.3379,4.309,4.3302,4.3352,4.3438,4.3664,4.3714,4.3729,4.374,4.3951,4.4152,4.4166,4.4403,4.4589,4.4589,4.4589,4.4589,4.4589,4.4589,4.4589,4.4738,4.5588,4.6435,4.6765,4.6633,4.6663,4.4163,4.4057,4.4057,4.3564,4.2768,4.3125,4.3549,4.4081,4.4654,4.4477,4.3685,4.2804,4.2173,4.1782,4.2278,4.2474,4.2447,4.2958,4.3493,4.4017,4.4082,4.4396,4.493,4.4943,4.4943,4.497,4.5374,4.5583,4.5609,4.6055,4.5877,4.5093,4.4792,4.4434,4.4032,4.3928,4.4131,4.46,4.3967,4.338,4.2874,4.3098,4.3448,4.3943,4.369,4.3993,4.489,4.4346,4.4177,4.4554,4.4041,4.3503,4.3039,4.2981,4.2539,0.0,4.0704,0.0,0.0,0.0,0.0,0.0,0.0,0.0,0.0,4.0728,4.1163,4.1437,4.1509,4.1597,4.1853,4.1663,4.1717,4.221,4.2299,4.2286,4.2338,4.2713,4.3,4.3,4.3051,4.3101,4.3101,4.3151,4.3402,4.3801,4.389,4.3743,4.3341,4.3319,4.3452,4.384,4.3901,4.4027,4.4403,4.4539,4.4539,4.4579,4.4654,4.4715,4.4715,4.4805,4.484,4.4865,4.4966,4.4991,4.4916,4.5016,4.5081,4.5221,4.5666,4.6059,4.6094,4.5673,4.5518,4.5142,4.4402,4.4402,4.3843,4.2967,4.3027,4.2877,4.2623,4.3181,4.3595,4.3861,4.3664,4.3768,4.4042,4.4186,4.4003,4.3598,4.4147,4.4473,4.4644,4.5088,4.5597,4.6147,4.6147,4.6147,4.6147,4.578,4.5583,4.5583,4.5217,4.4846,4.4468,4.4405,4.4449,4.4517,0.0,0.0,0.0,4.4566,4.4668,4.4314,4.4349,4.4531,4.4837,4.4547,0.0,4.4676,4.4999,4.4995,4.4589,4.3664,0.0,0.0,0.0,0.0,0.0,0.0,0.0,0.0,0.0,0.0,0.0,4.1419,4.134,4.1387,4.172,4.2074,4.2343,4.2565,4.2688,4.2743,4.2701,4.2724,4.2838,4.2838,4.2838,4.2864,4.295,4.3,4.3,4.3377,4.3653,4.3664,4.4016,4.4328,4.4428,4.4453,4.4403,4.4328,4.4278,4.4313,4.4453,4.4478,4.4503,4.4564,4.4665,4.4765,4.464,4.5045,4.5321,4.5397,4.5733,4.5959,4.5999,4.6336,4.6597,4.6597,4.6973,4.7154,4.728,4.733,4.709,4.5944,4.5836,4.6119,4.5052,0.0,4.4597,4.4309,0.0,4.4146,4.4133,4.3873,4.3572,4.3768,4.4304,4.4278,4.4617,4.5153,4.5139,4.5166,4.5194,4.5454,4.5611,4.5664,4.5898,4.6055,4.6055,4.6055,4.5898,4.5597,4.5609,4.5583,4.5583,4.5597,4.5233,4.452,4.4658,4.445,4.3854,4.3598,4.3584,4.3886,4.4183,4.4242,4.4061,4.3936,4.4314,4.5243,0.0,0.0,0.0,0.0,0.0,0.0,0.0,0.0,0.0,0.0,0.0,4.4031,4.3754,4.3683,4.3824,4.3319,4.3056,4.317,4.3059,4.2805,4.2388,4.2718,4.2944,4.2792,4.2933,4.3101,4.3352,4.3151,4.3101,4.3352,4.3402,4.3402,4.3427,4.3639,4.379,4.3815,4.4027,4.4202,4.4202,4.4403,4.4715,4.498,4.5045,4.5171,4.5332,4.4955,4.4679,4.4995,4.5321,4.5543,4.5784,4.5844,4.5934,4.621,4.6502,4.6652,4.6677,4.6888,4.7104,4.7114,4.7299,4.7516,4.7516,4.7716,4.7908,4.7908,4.7908,4.7707,4.6828,4.6903,4.7089,4.5022,4.5008,4.5022,4.5022,4.5074,4.5544,4.5754,4.5701,0.0,0.0,0.0,4.5008,4.5283,4.5754,4.578,4.6029,4.6475,4.6383,4.6409,4.6487,4.6383,4.6133,4.578,4.578,4.5477,4.4952,4.5331,4.5486,4.5457,4.5863,4.5505,4.4566,4.4749,4.4266,4.3081,4.3,4.3237,4.3706,4.3619,4.3545,4.345,4.3308,4.3962,4.5462,4.4905,4.5342,4.6873,4.6522,4.6512,4.6923,4.6888,4.6612,4.62,4.606,4.5583,4.4679,4.4177,4.394,4.394,4.3926,4.394,4.3926,4.3865,4.3614,4.3176,4.3553,4.3614,4.3176,4.3226,4.3478,4.3876,4.3578,4.3438,4.389,4.394,4.394,4.3966,4.4303,4.4539,4.4614,4.4679,4.4754,4.4754,4.4966,4.5206,4.5673,4.5939,4.6065,4.6351,4.5784,4.5407,4.5924,4.6336,4.6737,4.7074,4.7189,4.744,4.7641,4.7807,4.7908,4.7908,4.7908,4.7908,4.7807,4.7958,4.8058,4.8058,4.8184,4.8168,4.8209,4.8209,4.8209,4.8209,4.8209,4.8118,4.6226,4.6252,4.6252,4.6252,4.6252,4.633,4.6356,4.6356,4.6173,4.6173,4.6252,4.6252,4.6278,4.6383,4.6383,4.6409,4.6461,4.5976,4.6003,0.0,4.5976,4.5963,4.6356,4.6383,4.6164,4.5807,4.5432,4.5085,4.4797,4.4474,4.4037,4.3658,4.3633,4.3466,4.3028,4.3,4.3056,4.3126,4.3804,4.4043,4.376,4.3987,4.4554,4.5426,4.4905,4.5181,4.6361,4.6336,4.6311,4.6386,4.5974,4.5688,4.5612,4.5171,4.4765,4.4614,4.4514,4.4489,4.4503,4.4489,4.4478,4.4453,4.4066,4.3765,4.3704,4.374,4.3765,4.3714,4.4052,4.4403,4.4464,4.4378,4.4338,4.4453,4.4478,4.4489,4.4478,4.4604,4.469,4.4729,4.507,4.5412,4.5522,4.616,4.6672,4.6898,4.7064,4.7531,4.749,4.7149,4.7023,4.7415,4.7616,4.7732,4.7782,4.7792,4.7867,4.7867,4.7983,4.8033,4.8058,4.8058,4.8058,4.7958,4.8426,4.8677,4.8752,4.9079,4.9289,4.938,4.9364,4.9364,4.938,4.9364,4.9088,4.6527,4.6527,4.6527,4.6527,4.6513,4.6813,4.6929,4.6944,4.6944,4.6761,4.6527,4.6527,4.6527,4.6527,4.6527,4.6527,4.6487,4.6226,4.6252,4.6475,4.6212,4.6055,4.5989,4.6003,4.5762,4.5271,4.4899,4.4787,4.4852,4.4519,4.4321,4.4308,4.4135,4.3993,4.3879,4.3865,4.389,4.3865,4.3694,4.3518,4.3377,4.3518,4.391,4.4558,4.4292,4.4529,4.5357,4.5367,4.5533,4.5849,4.5638,4.5638,4.5899,4.5658,4.5533,4.5533,4.5533,4.5533,4.5508,4.5533,4.5658,4.5894,4.5196,4.4719,4.4733,4.4403,4.4227,4.4227,4.4478,4.4589,4.4589,4.4589,4.4589,4.4589,4.4589,4.4729,4.507,4.5357,4.5633,4.5944,4.6476,4.6803,4.6803,4.7214,4.7541,4.7566,4.7792,4.8008,4.8335,4.8184,4.7967,4.7917,4.7908,4.8058,4.8309,4.8385,4.8485,4.8761,4.8812,4.8812,4.8812,4.8812,4.8937,4.9197,4.949,4.9766,5.0033,5.0351,5.051,5.0535,5.0519,5.0535,5.0535,5.0535,5.0218,4.6894,4.6879,4.6749,4.6618,4.6554,4.6929,4.7112,4.7138,4.7098,4.6891,4.6539,4.6527,4.6527,4.6527,4.6527,4.6527,4.6487,4.6356,4.6276,4.6194,4.6206,4.5915,4.5467,4.5519,4.5296,4.4823,4.4591,4.4684,4.4918,4.4758,4.4789,4.494,4.472,4.4589,4.4589,4.4589,4.4589,4.4539,4.379,4.3366,4.3352,4.3377,4.3614,4.4141,4.4206,4.4493,4.5116,4.5167,4.5432,4.5974,4.6039,4.6225,4.6627,4.6662,4.6662,4.6662,4.6662,4.6652,4.6637,4.6436,4.6486,4.6848,4.5909,4.5311,4.5271,4.5006,4.4715,4.4614,4.4589,4.464,4.4805,4.483,4.4865,4.5091,4.5181,4.5468,4.5974,4.6426,4.6813,4.7249,4.7641,4.7883,4.7933,4.8033,4.8159,4.8284,4.8385,4.8661,4.9079,4.9229,4.9154,4.8802,4.8485,4.8485,4.8903,4.9104,4.9314,4.9741,4.9891,4.9941,4.9967,4.9967,5.0092,5.0444,5.0528,5.0695,5.1163,5.1239,5.1214,5.1188,5.1163,5.1214,5.1188,5.1339,5.1247,4.8004,4.7951,4.74,4.6929,4.6539,4.6592,4.6618,4.6618,4.6578,4.6552,4.6527,4.6527,4.6487,4.6527,4.6487,4.6473,4.6407,4.5936,4.5589,4.5354,4.5258,4.5065,4.4895,4.5303,4.5366,4.5089,4.5007,4.4903,4.476,4.4698,4.4651,4.4647,4.4604,4.464,4.4614,4.4614,4.4614,4.4604,4.4503,4.4453,4.4453,4.4439,4.4729,4.5321,4.5336,4.5824,4.6662,4.6873,4.7099,4.7631,4.7591,4.7666,4.7732,4.7757,4.7757,4.7732,4.7732,4.7757,4.7682,4.6838,4.6336,4.6286,4.5432,4.4805,4.483,4.5196,4.5181,4.4855,4.4665,4.4955,4.5336,4.5447,4.5859,4.6637,4.6747,4.7074,4.7465,4.7732,4.7782,4.7817,4.7942,4.7933,4.8083,4.8476,4.8928,4.9389,4.9741,5.0001,5.0167,5.0535,5.0812,5.0661,5.0134,4.954,4.9615,4.9967,5.0176,5.0352,5.077,5.0937,5.0937,5.0987,5.1188,5.1122,5.1214,5.1264,5.1364,5.1314,5.1364,5.154,5.149,5.1381,5.1389,5.1699,5.1774,4.7193,4.7167,4.6917,4.6891,4.6955,4.6955,4.6955,4.6982,4.6982,4.6801,4.6527,4.6527,4.6403,4.6219,4.6205,4.6094,4.5884,4.5649,4.5489,4.5391,4.5337,4.5291,4.5204,4.5383,4.544,4.5325,4.5178,4.52,4.5369,4.5536,4.5608,4.5608,4.5608,4.5608,4.5593,4.5608,4.5608,4.5623,4.5608,4.5593,4.5533,4.4941,4.4729,4.497,4.5311,4.5673,4.6125,4.6436,4.6888,4.735,4.7425,4.755,4.7892,4.7908,4.7908,4.7908,4.7908,4.7908,4.7892,4.7189,4.6788,4.6788,4.6346,4.607,4.6095,4.6587,4.6788,4.6562,4.6245,4.6195,4.6411,4.6712,4.7104,4.749,4.755,4.7666,4.7883,4.825,4.8426,4.8435,4.8711,4.8887,4.8987,4.9389,4.9941,5.0485,5.082,5.0921,5.0946,5.1163,5.1264,5.1239,5.0862,5.0661,5.0611,5.0745,5.0921,5.0971,5.1138,5.1289,5.1339,5.1314,5.1364,5.1699,5.1749,5.1925,5.2234,5.2234,5.2234,5.2251,5.2234,5.2234,5.2234,5.241,5.2435,4.6958,4.6932,4.6801,4.6865,4.7086,4.7072,4.7086,4.7086,4.7086,4.6865,4.6513,4.6417,4.6269,4.6102,4.603,4.581,4.554,4.5511,4.5454,4.5422,4.5535,4.5554,4.5511,4.5675,4.5712,4.5683,4.5559,4.5645,4.5994,4.6194,4.6311,4.6311,4.6311,4.6311,4.6311,4.6311,4.6311,4.6286,4.6311,4.6311,4.6185,4.5482,4.5141,4.5332,4.5708,4.6075,4.6391,4.6778,4.723,4.7767,4.7792,4.7967,4.8319,4.836,4.8385,4.8385,4.8385,4.8385,4.836,4.7992,4.7716,4.7591,4.7566,4.7475,4.74,4.7666,4.7883,4.7817,4.7691,4.7516,4.7375,4.7666,4.7942,4.8109,4.8134,4.8184,4.8385,4.8802,4.9079,4.9254,4.9565,4.9891,5.0083,5.0393,5.077,5.1138,5.1389,5.1515,5.1565,5.1649,5.1774,5.1724,5.1749,5.159,5.1389,5.144,5.1473,5.1574,5.1641,5.1825,5.1724,5.1749,5.1774,5.2285,5.231,5.2385,5.2636,5.2837,5.3188,5.3314,5.3314,5.3289,5.3364,5.3364,5.3364,4.8149,4.8004,4.7504,4.6982,4.6566,4.6592,4.6566,4.6668,4.6618,4.6566,4.6481,4.6215,4.6174,4.6378,4.6146,4.5822,4.5551,4.5545,4.5441,4.5287,4.5664,4.5746,4.5531,4.6019,4.6245,4.6205,4.615,4.6195,4.6255,4.6301,4.6311,4.6311,4.6386,4.6336,4.6386,4.6411,4.6351,4.6411,4.6411,4.6361,4.6336,4.6286,4.6461,4.6898,4.6998,4.7465,4.84,4.8642,4.8903,4.9439,4.9389,4.9439,4.949,4.9506,4.949,4.9515,4.9531,4.949,4.9464,4.9364,4.9129,4.8727,4.8551,4.8451,4.7958,4.7983,4.8058,4.7942,4.8476,4.8526,4.8083,4.8083,4.8284,4.8736,4.8793,4.9003,4.9464,4.959,4.9816,5.0167,5.0343,5.0594,5.1113,5.1239,5.1289,5.149,5.1774,5.2076,5.2126,5.246,5.2661,5.2711,5.2686,5.2503,5.1641,5.1892,5.2126,5.2226,5.2503,5.2812,5.2837,5.2837,5.2837,5.2887,5.2988,5.3038,5.3038,5.3331,5.3808,5.4059,5.4228,5.4278,5.4102,5.4378,5.4328,4.7129,4.7103,4.6865,4.6865,4.7008,4.7008,4.7102,4.7271,4.7282,4.714,4.6951,4.6795,4.6729,4.6654,4.6553,4.6319,4.6024,4.6024,4.595,4.5886,4.6088,4.6089,4.6024,4.6225,4.6311,4.6311,4.6311,4.6311,4.6336,4.6637,4.6838,4.6888,4.7164,4.733,4.7315,4.7315,4.733,4.733,4.733,4.733,4.7315,4.7315,4.7606,4.8124,4.7807,4.7983,4.8752,4.9129,4.943,4.959,4.959,4.959,4.964,4.9941,5.0293,5.0619,5.0686,5.0385,4.9715,4.959,4.9188,4.836,4.8601,4.8768,4.8601,4.8777,4.8987,4.9063,4.949,4.9665,4.9515,4.9213,4.9213,4.969,4.9816,5.0017,5.0535,5.0686,5.077,5.0937,5.0987,5.1197,5.1649,5.18,5.195,5.2277,5.2511,5.2586,5.2636,5.2795,5.292,5.297,5.3188,5.3306,5.298,5.298,5.313,5.3155,5.3331,5.3607,5.3733,5.3507,5.3432,5.3733,5.3808,5.3909,5.3959,5.4152,5.4579,5.4755,5.4924,5.5082,5.4597,5.5074,5.4949,4.7036,4.7036,4.705,4.7245,4.7597,4.7583,4.7702,4.7865,4.7762,4.756,4.7353,4.7161,4.6974,4.6821,4.6686,4.6511,4.6301,4.6286,4.6286,4.6311,4.6311,4.6311,4.6311,4.6311,4.6371,4.6587,4.6737,4.6813,4.6863,4.7174,4.7324,4.74,4.7716,4.7908,4.7908,4.7908,4.7967,4.8134,4.8184,4.8259,4.841,4.846,4.8736,4.9154,4.8896,4.8786,4.9095,4.9565,4.9866,4.9891,5.0058,5.0159,5.0209,5.0494,5.0754,5.0971,5.0996,5.0594,4.9791,4.975,4.9464,4.8595,4.8962,4.928,4.9129,4.954,4.9816,4.9967,5.0352,5.0678,5.0645,5.0343,5.0293,5.0619,5.0678,5.0845,5.1255,5.1289,5.1364,5.154,5.1749,5.2,5.226,5.2335,5.2511,5.2887,5.2895,5.2937,5.3113,5.3163,5.3281,5.3432,5.3783,5.3976,5.3926,5.4027,5.4027,5.4027,5.3984,5.4303,5.4504,5.4228,5.4253,5.4529,5.4723,5.4848,5.4974,5.5099,5.5275,5.5483,5.5961,5.6312,5.6011,5.5835,5.586,4.8161,4.8108,4.8187,4.8094,4.8065,4.805,4.8131,4.7997,4.7788,4.7634,4.7482,4.7095,4.6953,4.6792,4.6678,4.6401,4.6476,4.6486,4.6436,4.6386,4.6411,4.6436,4.6436,4.6486,4.6697,4.7099,4.7616,4.7832,4.7782,4.7892,4.8008,4.7933,4.8134,4.8309,4.8008,4.8234,4.8385,4.8827,4.8978,4.9154,4.954,4.9615,4.9841,5.0302,5.0302,5.0076,4.9665,5.0142,5.0402,5.0469,5.087,5.1239,5.1138,5.1214,5.1063,5.0678,5.0503,5.0193,4.9791,5.0076,5.0076,4.9649,5.0026,5.0067,4.9866,5.0126,5.0402,5.0477,5.0921,5.1314,5.1314,5.1314,5.1289,5.1289,5.1289,5.1339,5.1414,5.1364,5.1515,5.2051,5.246,5.282,5.287,5.2912,5.2962,5.297,5.3071,5.3264,5.3632,5.3733,5.3959,5.4328,5.4504,5.4554,5.478,5.4956,5.4881,5.4848,5.4755,5.4881,5.5132,5.5039,5.5214,5.5483,5.5634,5.576,5.6136,5.6287,5.6589,5.6865,5.7273,5.7374,5.7123,5.6947,5.7223,4.8187,4.8187,4.8187,4.8055,4.788,4.785,4.763,4.7308,4.7481,4.7505,4.7354,4.7485,4.7559,4.7529,4.7436,4.7405,4.739,4.739,4.7214,4.6988,4.7214,4.7365,4.738,4.7405,4.7481,4.7641,4.7817,4.7908,4.8083,4.867,4.8928,4.8752,4.9681,4.9992,4.9599,5.0017,5.036,5.0485,5.051,5.0594,5.0761,5.0745,5.0862,5.0987,5.1038,5.0921,5.0795,5.0937,5.1013,5.1013,5.0795,5.0845,5.1214,5.1289,5.1389,5.1507,5.1197,5.077,5.0252,5.0302,5.0368,5.0201,5.0327,5.0544,5.0736,5.0896,5.1021,5.1071,5.1498,5.185,5.19,5.2184,5.2226,5.19,5.185,5.2,5.2285,5.2385,5.2485,5.2611,5.2812,5.2895,5.2995,5.3163,5.349,5.354,5.3783,5.4152,5.4303,5.4403,5.4328,5.4597,5.4805,5.5282,5.5534,5.5767,5.5817,5.5735,5.5634,5.5684,5.5867,5.5917,5.6143,5.6369,5.652,5.6746,5.7148,5.7424,5.7625,5.775,5.7801,5.7851,5.7876,5.8001,5.8152,4.823,4.8309,4.8309,4.8247,4.816,4.8146,4.7947,4.7622,4.7805,4.7774,4.7676,4.7788,4.7908,4.7908,4.7908,4.7908,4.7917,4.8109,4.8058,4.7741,4.7767,4.7908,4.7958,4.8159,4.825,4.8284,4.8435,4.8535,4.856,4.9213,4.9414,4.938,5.036,5.0745,5.0477,5.0987,5.1381,5.1565,5.1574,5.1674,5.185,5.19,5.19,5.19,5.19,5.19,5.1875,5.1716,5.149,5.1289,5.0921,5.1021,5.1515,5.144,5.1364,5.1398,5.1348,5.1021,5.0503,5.0603,5.0745,5.0754,5.0904,5.1071,5.1364,5.1548,5.1841,5.1716,5.2076,5.2402,5.246,5.2862,5.2988,5.2754,5.2528,5.2661,5.3063,5.3188,5.3314,5.3457,5.3582,5.3515,5.3632,5.3984,5.431,5.4386,5.4655,5.5182,5.5282,5.5315,5.5383,5.5534,5.5942,5.6269,5.6369,5.657,5.6728,5.6646,5.652,5.6671,5.6872,5.6702,5.6753,5.7148,5.7374,5.7549,5.7876,5.8033,5.8208,5.8278,5.8403,5.8579,5.873,5.8654,5.8755,4.8373,4.8528,4.8538,4.8657,4.8764,4.8774,4.8702,4.8702,4.8517,4.8377,4.8325,4.8218,4.8109,4.8058,4.8184,4.8184,4.8109,4.8601,4.8843,4.8652,4.8385,4.8184,4.8259,4.8652,4.8827,4.8903,4.928,4.949,4.943,4.9615,4.964,4.9741,5.0327,5.0528,5.0678,5.1113,5.1674,5.1975,5.2101,5.2377,5.2762,5.2837,5.2837,5.2795,5.277,5.2762,5.2669,5.2277,5.18,5.1389,5.1314,5.1565,5.1875,5.1615,5.1172,5.0829,5.1071,5.0971,5.0703,5.0921,5.1264,5.1348,5.1674,5.1925,5.1674,5.2251,5.2586,5.231,5.2611,5.2912,5.3063,5.3339,5.3632,5.3683,5.3356,5.3356,5.3658,5.3783,5.4059,5.4454,5.4647,5.4697,5.4723,5.5157,5.5415,5.5534,5.5609,5.6143,5.6502,5.6627,5.6878,5.6979,5.6979,5.7029,5.7097,5.7072,5.728,5.7481,5.733,5.738,5.7706,5.7606,5.7631,5.8001,5.8152,5.8334,5.851,5.866,5.8836,5.9006,5.9182,5.9477,5.9427,5.9226,5.9151,4.8997,4.9148,4.9174,4.8917,4.8558,4.8512,4.8398,4.8248,4.8573,4.8709,4.8737,4.9051,4.9088,4.9138,4.9113,4.9163,4.9138,4.9264,4.9405,4.938,4.9264,4.9163,4.9163,4.9289,4.938,4.9389,4.949,4.959,4.964,4.9941,5.0126,5.0226,5.1005,5.1398,5.1247,5.195,5.2277,5.2184,5.2511,5.2719,5.2845,5.2895,5.2895,5.2895,5.2895,5.2895,5.2845,5.2385,5.185,5.1389,5.1716,5.1925,5.2059,5.1925,5.1699,5.1574,5.1373,5.1264,5.1163,5.1239,5.1473,5.185,5.2101,5.2209,5.2485,5.2711,5.3013,5.3088,5.3138,5.3239,5.3858,5.3884,5.3934,5.4253,5.4328,5.4278,5.4403,5.473,5.5031,5.5182,5.5541,5.5742,5.5892,5.62,5.6577,5.6652,5.6922,5.7248,5.7556,5.7581,5.7606,5.765,5.7675,5.7725,5.775,5.77,5.7851,5.8208,5.8133,5.7932,5.8309,5.861,5.8786,5.9106,5.888,5.8981,5.9131,5.9257,5.9458,5.9483,5.9483,5.9527,5.9527,5.9402,5.9377,4.9343,4.9554,4.9374,4.9161,4.891,4.8894,4.8784,4.8718,4.8978,4.9129,4.9204,4.9455,4.959,4.959,4.959,4.959,4.959,4.959,4.959,4.959,4.9565,4.9565,4.959,4.959,4.959,4.959,4.959,4.959,4.964,4.9941,5.0151,5.0427,5.1055,5.1423,5.1674,5.2176,5.2561,5.2485,5.2744,5.2895,5.2895,5.2895,5.2895,5.2895,5.2895,5.2837,5.2561,5.2277,5.2026,5.195,5.1875,5.185,5.2034,5.1892,5.1774,5.1749,5.1649,5.1641,5.1691,5.1825,5.2209,5.2653,5.2762,5.2912,5.3138,5.3239,5.3406,5.3239,5.3239,5.3482,5.3808,5.4135,5.4787,5.5516,5.5835,5.5785,5.5358,5.5742,5.6168,5.6445,5.6696,5.6922,5.6922,5.738,5.7631,5.7757,5.7951,5.8252,5.8504,5.8378,5.8303,5.8353,5.8328,5.8334,5.8403,5.8378,5.8403,5.8736,5.8786,5.8579,5.871,5.9162,5.9332,5.9433,5.9477,5.9527,5.9527,5.9527,5.9502,5.9502,5.9527,5.9527,5.9527,5.9527,5.9527,4.9647,4.9818,4.9484,4.9431,4.9563,4.959,4.9506,4.9565,4.954,4.954,4.9565,4.959,4.959,4.959,4.959,4.959,4.959,4.959,4.959,4.959,4.959,4.959,4.959,4.959,4.959,4.959,4.959,4.959,4.964,4.969,5.0042,5.0494,5.0628,5.113,5.1825,5.2151,5.2377,5.2661,5.2812,5.2895,5.2895,5.2895,5.2895,5.2895,5.2895,5.2711,5.241,5.2234,5.236,5.2862,5.19,5.18,5.2076,5.1741,5.1666,5.1774,5.2101,5.2226,5.2302,5.2636,5.3063,5.3414,5.3507,5.3658,5.3607,5.3607,5.3507,5.3196,5.349,5.3733,5.3966,5.4813,5.5942,5.6803,5.7481,5.738,5.6872,5.6903,5.7405,5.7901,5.7976,5.8052,5.8177,5.8434,5.878,5.8554,5.873,5.8855,5.9006,5.8905,5.8981,5.9176,5.9081,5.8961,5.9012,5.9056,5.9106,5.9257,5.9257,5.9131,5.8961,5.9212,5.9408,5.9527,5.9527,5.9527,5.9527,5.9527,5.9489,5.9527,5.9527,5.9527,5.9527,5.9527,5.9527,5.0104,5.0047,5.0244,5.0009,4.9638,4.959,4.959,4.959,4.959,4.959,4.959,4.959,4.959,4.959,4.959,4.959,4.959,4.959,4.959,4.959,4.959,4.959,4.9615,4.9615,4.9615,4.959,4.959,4.9615,4.9665,5.0026,5.0544,5.1038,5.1071,5.1423,5.2026,5.2126,5.2126,5.2335,5.2686,5.2895,5.2895,5.292,5.2945,5.2945,5.292,5.2845,5.277,5.2737,5.2787,5.2711,5.2335,5.2159,5.2536,5.2561,5.2628,5.2804,5.2762,5.2887,5.3188,5.3088,5.3181,5.369,5.3532,5.3264,5.3683,5.3775,5.3683,5.3632,5.4077,5.468,5.539,5.657,5.7273,5.77,5.8177,5.8434,5.8234,5.8234,5.8359,5.8554,5.8855,5.9131,5.9106,5.9106,5.9282,5.9307,5.9332,5.9382,5.9357,5.9332,5.9408,5.9527,5.9433,5.9257,5.9218,5.9205,5.9203,5.922,5.927,5.9276,5.9081,5.9089,5.9226,5.9372,5.9527,5.9469,5.9256,5.9353,5.9295,5.9411,5.945,5.9353,5.9295,5.9372,5.9353,5.0168,5.0088,5.0136,4.9928,4.9622,4.959,4.959,4.959,4.959,4.959,4.959,4.959,4.959,4.959,4.959,4.959,4.959,4.959,4.959,4.959,4.959,4.959,4.969,4.9816,4.9866,4.9665,4.959,4.9715,4.9992,5.0302,5.082,5.1574,5.1465,5.1749,5.2302,5.2226,5.2277,5.2511,5.2719,5.2895,5.2895,5.3163,5.3264,5.3188,5.3046,5.2895,5.287,5.287,5.2895,5.282,5.2636,5.2569,5.282,5.2895,5.3063,5.3188,5.3113,5.3163,5.3414,5.3532,5.3683,5.4386,5.3984,5.4084,5.4235,5.4303,5.4127,5.4303,5.4888,5.5792,5.6872,5.7399,5.7926,5.8328,5.8755,5.9037,5.9062,5.9081,5.9081,5.9131,5.9282,5.9408,5.9502,5.9527,5.9502,5.9427,5.9427,5.9458,5.9458,5.9433,5.9433,5.9527,5.9527,5.9458,5.94,5.9303,5.9129,5.8998,5.8867,5.8814,5.8681,5.8779,5.8945,5.9062,5.9159,5.8926,5.8795,5.8906,5.8984,5.8848,5.8828,5.8906,5.8926,5.8848,5.8814,5.0097,5.0017,4.9767,4.9638,4.959,4.959,4.959,4.959,4.959,4.959,4.959,4.959,4.959,4.959,4.959,4.959,4.959,4.959,4.959,4.959,4.975,4.98,4.99,5.0218,5.0368,4.9907,4.9992,5.0218,5.0469,5.0678,5.1272,5.1883,5.1674,5.1975,5.2561,5.241,5.2427,5.2937,5.3088,5.3096,5.3121,5.3457,5.3582,5.3364,5.3289,5.2995,5.2945,5.2895,5.2895,5.2895,5.2895,5.2895,5.2895,5.2895,5.3063,5.3138,5.3188,5.3389,5.3808,5.3909,5.4235,5.5207,5.483,5.4848,5.5082,5.4956,5.4755,5.5107,5.5717,5.6872,5.7876,5.8227,5.8428,5.8761,5.9257,5.9477,5.9527,5.9527,5.9433,5.9458,5.9433,5.9502,5.9527,5.9527,5.9527,5.9508,5.9508,5.9469,5.945,5.9411,5.9353,5.9217,5.9159,5.9043,5.8984,5.8965,5.8828,5.8731,5.8541,5.8443,5.8305,5.8325,5.8418,5.8614,5.8633,5.8462,5.8403,5.8541,5.8501,5.8286,5.8345,5.856,5.8482,5.8305,5.835,4.9953,4.9703,4.9928,4.9847,4.9622,4.959,4.959,4.959,4.959,4.959,4.959,4.959,4.959,4.959,4.959,4.9615,4.964,4.9674,4.969,4.9816,5.0067,5.0277,5.0377,5.0845,5.1046,5.1063,5.1063,5.1163,5.1222,5.1599,5.1808,5.2034,5.2076,5.2427,5.2636,5.246,5.2779,5.3457,5.3582,5.3582,5.3515,5.3607,5.3532,5.3289,5.3364,5.3264,5.297,5.2895,5.2895,5.2895,5.2895,5.2895,5.2895,5.2895,5.3289,5.3733,5.3607,5.3615,5.4202,5.4403,5.4504,5.4672,5.4755,5.4931,5.5257,5.5408,5.5458,5.5835,5.6721,5.7876,5.8485,5.8855,5.9156,5.9382,5.9408,5.9527,5.9527,5.9527,5.9527,5.9527,5.9527,5.9527,5.9527,5.9489,5.945,5.9386,5.9328,5.9198,5.9023,5.9004,5.8984,5.8828,5.8677,5.8541,5.8448,5.8443,5.8384,5.8364,5.8227,5.8168,5.803,5.7853,5.7912,5.8065,5.8227,5.8168,5.8168,5.8148,5.8109,5.7991,5.8109,5.8227,5.807,5.7932,5.807,4.9751,4.9622,4.9792,4.9735,4.9606,4.959,4.959,4.959,4.959,4.959,4.959,4.959,4.959,4.959,4.959,4.9724,4.995,5.0001,5.0167,5.0469,5.0745,5.087,5.0946,5.1473,5.1649,5.1892,5.2193,5.2168,5.1774,5.1925,5.2285,5.2561,5.2754,5.3063,5.3331,5.3474,5.3625,5.4127,5.4152,5.4027,5.3758,5.3733,5.3532,5.3507,5.3507,5.3406,5.302,5.2895,5.2895,5.2895,5.2895,5.2895,5.2895,5.297,5.3163,5.3607,5.3515,5.3733,5.4421,5.4622,5.4823,5.5383,5.539,5.5516,5.5817,5.6075,5.6426,5.7123,5.7549,5.8554,5.9081,5.9357,5.9477,5.9527,5.9527,5.9527,5.9527,5.9527,5.9527,5.9508,5.9489,5.9489,5.9527,5.9469,5.9367,5.9289,5.9192,5.8945,5.8633,5.8575,5.8575,5.8462,5.8305,5.8246,5.8114,5.7971,5.7951,5.7912,5.7853,5.7794,5.7695,5.7497,5.7418,5.7497,5.7596,5.7774,5.7616,5.7497,5.7576,5.7675,5.7636,5.7616,5.7596,5.7616,5.7739,4.959,4.959,4.959,4.959,4.959,4.959,4.959,4.959,4.959,4.959,4.959,4.959,4.959,4.964,4.9791,5.0067,5.0553,5.0578,5.0896,5.1297,5.1423,5.149,5.1766,5.2101,5.2477,5.2628,5.3055,5.3256,5.2678,5.2746,5.2929,5.3281,5.3733,5.3884,5.3959,5.4195,5.4572,5.4748,5.4748,5.4454,5.416,5.3951,5.3801,5.3758,5.3808,5.3607,5.297,5.2895,5.2895,5.2895,5.2895,5.2895,5.2895,5.3013,5.3063,5.3088,5.3163,5.3808,5.4479,5.4981,5.5365,5.5924,5.6251,5.6401,5.6677,5.7104,5.7681,5.851,5.8855,5.8981,5.9357,5.9502,5.9527,5.9527,5.9527,5.9527,5.9527,5.9527,5.9527,5.9508,5.9469,5.9431,5.9431,5.9295,5.9179,5.9043,5.8926,5.8516,5.8246,5.8168,5.8129,5.803,5.7951,5.7971,5.7833,5.7576,5.7537,5.7497,5.7418,5.7339,5.722,5.71,5.712,5.718,5.716,5.7279,5.7061,5.7001,5.72,5.7259,5.708,5.708,5.7239,5.7308,5.7396,4.959,4.959,4.959,4.959,4.959,4.959,4.959,4.959,4.959,4.959,4.9615,4.964,4.9665,4.9791,5.0167,5.0645,5.1071,5.1222,5.1523,5.2026,5.2051,5.2226,5.2661,5.3239,5.3083,5.3053,5.3356,5.3658,5.3211,5.356,5.4127,5.4228,5.4177,5.4429,5.4253,5.4572,5.4848,5.5189,5.5257,5.5182,5.4981,5.4597,5.4152,5.3909,5.4009,5.3778,5.2813,5.2577,5.2594,5.2525,5.2688,5.2809,5.297,5.3381,5.3557,5.3758,5.4084,5.4655,5.5171,5.5591,5.5699,5.6044,5.6387,5.7073,5.7024,5.7409,5.7851,5.8616,5.8966,5.9294,5.94,5.9502,5.9527,5.9527,5.9527,5.9527,5.9508,5.8818,5.8876,5.9056,5.8901,5.9115,5.9276,5.9101,5.8945,5.8789,5.8599,5.8168,5.7853,5.7754,5.7675,5.7596,5.7576,5.7596,5.7576,5.7319,5.7259,5.716,5.71,5.7001,5.7001,5.7001,5.7001,5.7041,5.7001,5.7001,5.7001,5.7001,5.7001,5.7001,5.7001,5.7001,5.7021,5.7073,5.7241,4.959,4.959,4.959,4.959,4.959,4.959,4.959,4.959,4.959,4.959,4.9665,4.9967,5.0218,5.0561,5.0862,5.1398,5.1958,5.19,5.2251,5.2729,5.2711,5.2686,5.2845,5.3052,5.3053,5.2632,5.2532,5.2236,5.2477,5.3063,5.3741,5.4107,5.4092,5.4027,5.4378,5.478,5.5107,5.5257,5.5107,5.4755,5.4461,5.4167,5.3798,5.3287,5.3746,5.3033,5.2003,5.1583,5.1075,5.0648,5.0454,5.1157,5.1888,5.251,5.2884,5.3276,5.3704,5.4394,5.5267,5.5815,5.5694,5.5452,5.5629,5.5736,5.5655,5.5791,5.6637,5.759,5.7864,5.8442,5.9289,5.9508,5.9527,5.9508,5.9347,5.927,5.9012,5.8246,5.7952,5.8129,5.829,5.8271,5.8354,5.8256,5.8163,5.8222,5.807,5.7774,5.7477,5.7299,5.722,5.714,5.718,5.722,5.72,5.71,5.712,5.708,5.708,5.7001,5.7001,5.7001,5.7001,5.7001,5.7001,5.7001,5.7001,5.7001,5.7001,5.7001,5.7001,5.7121,5.7265,5.7458,5.7698,4.959,4.959,4.959,4.959,4.959,4.959,4.959,4.959,4.959,4.9665,4.9916,5.0393,5.0996,5.1574,5.1774,5.2209,5.3013,5.2678,5.3005,5.3314,5.3339,5.3138,5.3115,5.3034,5.2483,5.1459,5.1628,5.1388,5.1186,5.1458,5.2332,5.3598,5.3798,5.3996,5.4408,5.5039,5.5591,5.534,5.4906,5.4298,5.3658,5.3215,5.2703,5.2379,5.2196,5.1769,5.0353,5.0175,4.9482,4.907,4.919,5.0026,5.0831,5.1404,5.1908,5.236,5.2844,5.343,5.4143,5.4616,5.4797,5.4674,5.46,5.4788,5.3985,5.363,5.4564,5.6884,5.7051,5.7947,5.8973,5.9527,5.9527,5.9289,5.8998,5.8876,5.8442,5.7174,5.6578,5.69,5.6944,5.6765,5.6869,5.7092,5.7275,5.7532,5.7497,5.7279,5.718,5.7021,5.7021,5.7001,5.7021,5.7061,5.7041,5.7001,5.7001,5.7001,5.7001,5.7001,5.7001,5.7001,5.7001,5.7001,5.7001,5.7001,5.7001,5.7001,5.7001,5.7049,5.7145,5.743,5.7622,5.7818,5.8155,4.959,4.959,4.959,4.959,4.959,4.959,4.959,4.9615,4.9615,4.9967,5.0553,5.1021,5.1875,5.2561,5.2762,5.3038,5.3658,5.3607,5.339,5.344,5.3605,5.3043,5.2788,5.2415,5.2173,5.1529,5.0732,5.029,5.0151,4.9138,5.1028,5.32,5.2788,5.4034,5.4526,5.4508,5.4766,5.4511,5.4101,5.3463,5.2592,5.1886,5.1093,5.0245,4.971,4.912,4.8531,4.8808,4.8731,4.8347,4.8614,4.9162,4.9707,5.0382,5.0887,5.1259,5.188,5.22,5.2367,5.2981,5.3204,5.356,5.3667,5.3561,5.2854,5.3701,5.4983,5.6055,5.6095,5.7237,5.8506,5.9444,5.9056,5.8246,5.7514,5.6995,5.6375,5.5372,5.4948,5.55,5.55,5.5157,5.4914,5.5015,5.5362,5.5604,5.6534,5.6374,5.7021,5.7001,5.7001,5.7001,5.7001,5.7021,5.7021,5.7001,5.7001,5.7001,5.7001,5.7001,5.7001,5.7001,5.7001,5.7001,5.7001,5.7001,5.7049,5.7169,5.7261,5.7213,5.7357,5.7742,5.8055,5.8295,5.8656,4.959,4.959,4.959,4.959,4.959,4.959,4.959,4.9665,4.995,5.0829,5.1883,5.2234,5.2904,5.3582,5.3557,5.3708,5.3969,5.2692,5.2416,5.1852,5.1417,5.0854,5.0562,5.0433,4.9818,4.9525,4.8659,4.783,4.7367,4.7132,4.8118,4.9611,5.0677,5.1063,5.1734,5.2548,5.2397,5.2222,5.1833,5.1153,5.0292,5.0045,4.9537,4.8955,4.9094,4.8298,4.7563,4.7741,4.7314,4.6999,4.7153,4.7851,4.8661,4.9415,4.986,5.0154,5.0817,5.0747,5.0548,5.14,5.2497,5.1737,5.1499,5.1155,5.1166,5.1134,5.2035,5.3234,5.4786,5.5858,5.6099,5.7138,5.7455,5.6538,5.5755,5.513,5.4276,5.3273,5.2985,5.3398,5.3421,5.3236,5.3009,5.2844,5.3238,5.367,5.4693,5.5732,5.6498,5.7001,5.7001,5.7001,5.7001,5.7001,5.7001,5.7001,5.7001,5.7001,5.7001,5.7001,5.7001,5.7001,5.7001,5.7001,5.7073,5.7193,5.7313,5.7454,5.755,5.7598,5.7862,5.8227,5.8512,5.8752,5.9065,4.959,4.959,4.959,4.959,4.959,4.959,4.9707,4.9891,5.0201,5.123,5.2661,5.2837,5.3406,5.3914,5.3346,5.3106,5.28,5.1639,5.0788,5.0212,4.9613,4.8882,4.8607,4.8403,4.8261,4.7599,4.6846,4.6206,4.604,4.5433,4.6324,4.7335,4.7813,4.8592,5.0037,4.9928,4.9989,5.0008,4.9774,4.9134,4.8349,4.8127,4.7809,4.7399,4.7392,4.7103,4.6476,4.6489,4.6358,4.6026,4.6103,4.6777,4.7588,4.835,4.8844,4.9252,4.9473,4.9382,4.9383,5.0029,5.1213,5.0281,4.985,4.9319,4.8956,4.904,5.0442,5.1828,5.3009,5.3686,5.4013,5.5473,5.5755,5.4905,5.3704,5.2964,5.2095,5.1199,5.1157,5.1262,5.122,5.1199,5.1094,5.1073,5.2242,5.2925,5.4242,5.5466,5.6638,5.7001,5.7001,5.7001,5.7001,5.7001,5.7001,5.7001,5.7001,5.7001,5.7001,5.7001,5.7001,5.7001,5.7025,5.7025,5.7145,5.7385,5.7674,5.7983,5.8055,5.8079,5.844,5.8824,5.9113,5.9353,5.9402,4.9615,4.959,4.9615,4.9615,4.9715,4.9631,4.9875,5.0302,5.0503,5.1281,5.2476,5.2801,5.3156,5.3299,5.2291,5.1615,5.1267,4.9951,4.8928,4.8562,4.8271,4.8392,4.8035,4.749,4.7051,4.7004,4.6321,4.5729,4.5664,4.5498,4.5779,4.5944,4.6528,4.7408,5.0095,5.038,5.038,5.0311,4.9692,4.8525,4.7533,4.6988,4.6423,4.5998,4.5833,4.5721,4.5709,4.6054,4.6087,4.6013,4.6513,4.7027,4.7316,4.7481,4.792,4.8547,4.8254,4.8233,4.8461,4.9003,4.9153,4.9028,4.896,4.8978,4.8687,4.8939,4.9593,5.0969,5.1869,5.2637,5.346,5.4176,5.3786,5.2902,5.1638,5.0779,4.9913,5.0019,5.0125,4.9658,4.9296,4.9126,4.9083,4.9446,5.103,5.2323,5.3749,5.5038,5.6194,5.6498,5.6318,5.6538,5.6538,5.7001,5.7001,5.7001,5.7001,5.7001,5.7001,5.7001,5.7001,5.7001,5.7025,5.7049,5.7193,5.7385,5.7986,5.8608,5.868,5.8824,5.9089,5.9446,5.9735,5.9807,5.9687,4.9816,5.0101,4.9741,5.0042,5.0611,5.0293,5.0252,5.0528,5.1256,5.2528,5.3631,5.2809,5.2631,5.2623,5.1107,4.9961,4.9905,4.8252,4.7228,4.7113,4.6617,4.6328,4.6207,4.6102,4.59,4.6191,4.5763,4.5498,4.5685,4.554,4.5539,4.5643,4.6076,4.6641,4.7331,4.7498,4.7262,4.7281,4.7053,4.6734,4.6283,4.6096,4.5859,4.5456,4.5456,4.5498,4.558,4.6161,4.6492,4.6575,4.7196,4.7444,4.7527,4.7631,4.8045,4.848,4.8376,4.8708,4.8853,4.9041,4.8895,4.8728,4.877,4.8997,4.8894,4.8977,4.9508,5.0061,5.0948,5.1326,5.1011,5.1764,5.145,5.0167,4.9103,4.861,4.8222,4.9082,4.9381,4.8439,4.7857,4.7609,4.7464,4.8293,4.9765,5.0651,5.1885,5.3419,5.4693,5.4957,5.4977,5.5527,5.5893,5.6598,5.6941,5.6458,5.6458,5.6538,5.6762,5.7001,5.7001,5.7001,5.7001,5.7025,5.7193,5.7385,5.8031,5.8656,5.9305,5.9618,5.9543,5.9543,5.9687,5.9663,5.9519,4.9757,4.9611,4.9446,4.9427,4.9765,5.0182,5.0678,5.1306,5.2067,5.3088,5.3356,5.1895,5.1309,5.1082,4.9466,4.8244,4.8445,4.6757,4.5789,4.5717,4.5083,4.5186,4.5197,4.496,4.5405,4.5706,4.5705,4.5478,4.5913,4.5623,4.5789,4.6182,4.641,4.68,4.6881,4.6755,4.6464,4.6564,4.648,4.6233,4.599,4.5847,4.5722,4.5768,4.5933,4.6182,4.6368,4.6761,4.7258,4.7382,4.7631,4.7921,4.8065,4.819,4.8501,4.8708,4.8874,4.9081,4.9081,4.9081,4.8915,4.8749,4.8956,4.906,4.9102,4.9102,4.8952,4.938,5.0104,4.9721,4.9231,4.9892,4.9338,4.8092,4.7746,4.7311,4.7226,4.8093,4.8201,4.7228,4.6925,4.6554,4.6459,4.7375,4.8571,4.9214,4.9892,5.1468,5.2927,5.3238,5.3444,5.3875,5.4469,5.5041,5.5385,5.5385,5.5527,5.5993,5.6194,5.6358,5.7001,5.7001,5.7001,5.7049,5.7289,5.7602,5.8079,5.8632,5.9041,5.9281,5.9326,5.9398,5.9615,5.9615,5.9519,4.9545,4.8298,4.867,4.8094,4.733,4.9358,5.112,5.2646,5.2765,5.2305,5.1411,5.0765,4.9899,4.8684,4.6835,4.6296,4.6455,4.5128,4.4867,4.4757,4.4872,4.5043,4.5167,4.5147,4.5436,4.5623,4.5747,4.5851,4.6265,4.6245,4.6472,4.6803,4.6948,4.7175,4.7237,4.7217,4.6948,4.6741,4.6617,4.6513,4.6472,4.6182,4.6222,4.6367,4.6658,4.6865,4.7092,4.7403,4.7651,4.7879,4.8169,4.8356,4.8418,4.8418,4.8707,4.8957,4.9081,4.9102,4.9102,4.9102,4.9102,4.8977,4.906,4.9102,4.9016,4.893,4.8737,4.8522,4.8824,4.8393,4.807,4.7984,4.7854,4.7354,4.7137,4.6811,4.6505,4.6638,4.666,4.642,4.6442,4.6344,4.64,4.7088,4.7602,4.7827,4.8428,4.9149,5.0505,5.1388,5.1597,5.189,5.2494,5.3155,5.3505,5.3813,5.4,5.4265,5.4896,5.522,5.6033,5.6881,5.7001,5.7121,5.7458,5.777,5.8079,5.8295,5.8536,5.8728,5.8945,5.9257,5.9494,5.9735,5.9735,5.0129,4.8728,4.8838,4.8484,4.8024,4.89,4.9863,5.0704,5.1435,5.1429,5.0727,4.8644,4.7914,4.7623,4.5696,4.5289,4.5046,4.4858,4.4974,4.5022,4.5147,4.5478,4.5603,4.5664,4.583,4.5975,4.6141,4.6182,4.6369,4.6555,4.6824,4.6989,4.7382,4.7589,4.7755,4.79,4.7548,4.7279,4.7196,4.7237,4.7237,4.703,4.7113,4.7361,4.7361,4.7527,4.761,4.7941,4.8169,4.8273,4.8667,4.8894,4.8894,4.8894,4.9039,4.906,4.9102,4.9102,4.9102,4.9102,4.9102,4.908,4.9059,4.8866,4.8737,4.8587,4.8415,4.8113,4.7919,4.7701,4.7463,4.7289,4.7159,4.6963,4.6767,4.6527,4.6308,4.6308,4.6308,4.6308,4.6308,4.6274,4.635,4.6475,4.6886,4.6835,4.7055,4.769,4.8268,4.9232,4.9722,4.9977,5.0885,5.1661,5.191,5.2181,5.2327,5.2556,5.33,5.4161,5.5099,5.5933,5.6658,5.7097,5.7289,5.7578,5.7866,5.8035,5.8059,5.844,5.8704,5.9041,5.9353,5.9519,5.9639,4.9394,4.7527,4.7629,4.734,4.6969,4.8052,4.8413,4.8318,4.9669,5.0016,4.9151,4.7456,4.654,4.6275,4.5217,4.479,4.5017,4.508,4.5209,4.5415,4.5561,4.5851,4.6058,4.6099,4.6079,4.6245,4.6348,4.6389,4.6638,4.703,4.732,4.7631,4.79,4.8065,4.8293,4.8459,4.821,4.792,4.7796,4.7962,4.7921,4.7796,4.7921,4.8086,4.7941,4.7982,4.8024,4.8418,4.8604,4.8687,4.9039,4.9102,4.9102,4.9102,4.9102,4.9102,4.9102,4.9102,4.9102,4.9102,4.9102,4.9037,4.8909,4.8544,4.8415,4.8286,4.7941,4.7595,4.7485,4.7333,4.7115,4.692,4.6811,4.6702,4.6527,4.633,4.6308,4.6308,4.6308,4.6308,4.625,4.6172,4.6194,4.625,4.6311,4.6411,4.6501,4.6712,4.7054,4.7531,4.7857,4.8008,4.9189,5.0273,5.0379,5.0421,5.0695,5.1116,5.2119,5.3032,5.4079,5.5486,5.6678,5.7001,5.7025,5.7289,5.7554,5.7506,5.7554,5.7914,5.8151,5.8271,5.856,5.8897,5.9037,4.7907,4.5219,4.5577,4.5424,4.4833,4.6912,4.6887,4.5413,4.7651,4.8137,4.7253,4.6675,4.5901,4.5388,4.4957,4.4981,4.5228,4.5394,4.554,4.5767,4.5996,4.6224,4.6245,4.6327,4.6431,4.6389,4.6534,4.6844,4.7113,4.7486,4.7941,4.8397,4.8459,4.8584,4.8853,4.8936,4.8707,4.8459,4.8376,4.8418,4.8273,4.8045,4.7817,4.7983,4.821,4.8459,4.8563,4.879,4.9081,4.906,4.9039,4.8998,4.8998,4.9102,4.9102,4.9102,4.9102,4.9102,4.9102,4.9102,4.9102,4.8952,4.8673,4.8264,4.8113,4.7919,4.753,4.7117,4.6963,4.6876,4.668,4.6614,4.6527,4.6483,4.6396,4.6308,4.6308,4.6308,4.6308,4.6308,4.6289,4.6211,4.623,4.6308,4.6308,4.6269,4.625,4.6289,4.6374,4.6529,4.6617,4.6682,4.7596,4.8547,4.818,4.8311,4.8954,4.9637,5.0927,5.2513,5.4038,5.5486,5.6921,5.7001,5.7001,5.7001,5.7121,5.7169,5.7193,5.7241,5.7409,5.7385,5.7674,5.8175,5.8536,4.7255,4.5102,4.4805,4.4899,4.5391,4.5997,4.6039,4.5579,4.6105,4.6246,4.5625,4.5483,4.5326,4.5121,4.5105,4.5229,4.5498,4.5664,4.5892,4.6037,4.6286,4.6307,4.6369,4.6534,4.67,4.6948,4.7134,4.7382,4.761,4.7962,4.8273,4.8438,4.8667,4.8998,4.9081,4.9081,4.8936,4.877,4.8687,4.8521,4.8314,4.8666,4.8791,4.8749,4.8852,4.877,4.8832,4.8936,4.8853,4.8667,4.8604,4.8584,4.8563,4.8894,4.906,4.9102,4.9102,4.9102,4.9102,4.908,4.908,4.893,4.863,4.8178,4.7853,4.7508,4.7139,4.6745,4.6483,4.6396,4.6352,4.633,4.6308,4.6308,4.6308,4.6308,4.6308,4.6308,4.6308,4.6308,4.6308,4.6308,4.6308,4.6308,4.6308,4.6289,4.6289,4.6308,4.6308,4.6396,4.6418,4.6442,4.6398,4.6834,4.6507,4.6747,4.7619,4.9061,5.0548,5.2201,5.4059,5.5587,5.7001,5.7001,5.7001,5.7001,5.7001,5.7025,5.7025,5.7001,5.7025,5.7145,5.7145,5.7526,5.7959,4.6245,4.4824,4.4894,4.5228,4.5684,4.5872,4.5851,4.5747,4.5892,4.5706,4.5373,4.5311,4.5291,4.5354,4.5458,4.5498,4.5768,4.5892,4.6079,4.6245,4.6307,4.6307,4.6451,4.6617,4.6782,4.7031,4.7693,4.8024,4.8086,4.8438,4.8728,4.8707,4.8998,4.906,4.9018,4.8915,4.877,4.8749,4.8646,4.8376,4.8148,4.85,4.8791,4.8791,4.8646,4.8584,4.8501,4.8501,4.8356,4.8273,4.8293,4.8439,4.8542,4.8874,4.9081,4.9102,4.9102,4.9102,4.908,4.9059,4.8973,4.8737,4.835,4.7831,4.7376,4.705,4.6789,4.6396,4.6396,4.633,4.633,4.6308,4.6308,4.6308,4.6308,4.6308,4.6308,4.6308,4.6308,4.6308,4.6308,4.6308,4.6308,4.6308,4.6308,4.6308,4.6308,4.6308,4.6308,4.6308,4.6308,4.6308,4.6308,4.6308,4.6374,4.6464,4.6791,4.8353,5.0188,5.2742,5.4937,5.6073,5.7001,5.6981,5.6981,5.7001,5.7001,5.7001,5.7001,5.7001,5.7001,5.7025,5.7001,5.7001,5.7361,4.5157,4.4562,4.5332,4.5746,4.583,4.6141,4.6099,4.5892,4.6141,4.6099,4.5809,4.5768,4.5768,4.5892,4.6017,4.5995,4.6016,4.6141,4.6286,4.6389,4.6327,4.6307,4.6348,4.6451,4.6865,4.7382,4.8003,4.8335,4.85,4.8811,4.8977,4.9039,4.8998,4.8956,4.8811,4.8584,4.8335,4.8252,4.8086,4.7838,4.7879,4.8065,4.8252,4.8169,4.7962,4.7734,4.7713,4.7713,4.7713,4.7734,4.79,4.8065,4.8335,4.8646,4.8957,4.906,4.9102,4.9037,4.8952,4.8909,4.8673,4.835,4.7874,4.7441,4.6985,4.668,4.6418,4.6308,4.6308,4.6308,4.6308,4.6308,4.6308,4.6308,4.6308,4.6308,4.6308,4.6308,4.6308,4.6308,4.6308,4.6308,4.6308,4.6308,4.6308,4.6308,4.6308,4.6308,4.6308,4.6308,4.6308,4.6308,4.6308,4.6308,4.6308,4.6374,4.6505,4.8202,5.0294,5.3258,5.5365,5.5304,5.5792,5.6901,5.6901,5.6478,5.6821,5.7001,5.7001,5.6961,5.7001,5.7001,5.7001,5.7001,5.7001,4.4379,4.4898,4.5477,4.5892,4.6162,4.6265,4.6245,4.6203,4.6245,4.6245,4.6162,4.6162,4.6183,4.6162,4.5871,4.5954,4.6451,4.6472,4.6617,4.6803,4.6431,4.6327,4.6431,4.672,4.7361,4.7879,4.8293,4.8584,4.8645,4.8894,4.8873,4.8563,4.8521,4.8355,4.8003,4.7858,4.7838,4.7755,4.7713,4.7527,4.7589,4.7734,4.7796,4.7796,4.7734,4.7713,4.7713,4.7713,4.7465,4.7299,4.7299,4.7548,4.7941,4.8355,4.8728,4.906,4.9102,4.8887,4.878,4.8673,4.8415,4.7876,4.7463,4.7181,4.6811,4.6551,4.6374,4.6308,4.6308,4.6308,4.6308,4.6308,4.6308,4.6308,4.6308,4.6308,4.6308,4.6308,4.6308,4.6308,4.6308,4.6308,4.6308,4.6308,4.6308,4.6308,4.6308,4.6308,4.6308,4.6308,4.6308,4.6308,4.6308,4.6308,4.6308,4.633,4.6704,4.8374,5.0083,5.2473,5.369,5.332,5.3936,5.5203,5.5567,5.5264,5.5792,5.6438,5.6881,5.6861,5.6961,5.7001,5.7001,5.7001,5.7001]},{"header":{"parameterUnit":"m.s-1","parameterCategory":1,"la1":31.0,"la2":29.5877,"lo1":-88.7671,"lo2":-86.6584,"dx":0.0162,"dy":0.0185,"nx":115,"ny":88,"refTime":"2022-11-04T18:00:00:Z","depth":0,"parameterNumber":3,"parameterNumberName":"V-component_of_WINDS"},"data":[0.0,0.0,0.0,0.0,0.0,0.0,0.0,0.0,0.0,0.0,0.0,0.0,0.0,0.0,0.0,0.0,0.0,0.0,0.0,0.0,0.0,0.0,0.0,0.0,0.0,0.0,0.0,0.0,0.0,0.0,0.0,0.0,0.0,0.0,0.0,0.0,0.0,0.0,0.0,0.0,0.0,0.0,0.0,0.0,0.0,0.0,0.0,0.0,0.0,0.0,0.0,0.0,0.0,0.0,0.0,0.0,0.0,0.0,0.0,0.0,0.0,0.0,0.0,0.0,0.0,0.0,0.0,0.0,0.0,0.0,0.0,0.0,0.0,0.0,0.0,0.0,0.0,0.0,0.0,0.0,0.0,0.0,0.0,0.0,0.0,0.0,0.0,0.0,0.0,0.0,0.0,0.0,0.0,0.0,0.0,0.0,0.0,0.0,0.0,0.0,0.0,0.0,0.0,0.0,0.0,0.0,0.0,0.0,0.0,0.0,0.0,0.0,0.0,0.0,0.0,0.0,0.0,0.0,0.0,0.0,0.0,0.0,0.0,0.0,0.0,0.0,0.0,0.0,0.0,0.0,0.0,0.0,0.0,0.0,0.0,0.0,0.0,0.0,0.0,0.0,0.0,0.0,0.0,0.0,0.0,0.0,0.0,0.0,0.0,0.0,0.0,0.0,0.0,0.0,0.0,0.0,0.0,0.0,0.0,0.0,0.0,0.0,0.0,0.0,0.0,0.0,0.0,0.0,0.0,0.0,0.0,0.0,0.0,0.0,0.0,0.0,0.0,0.0,0.0,0.0,0.0,0.0,0.0,0.0,0.0,0.0,0.0,0.0,0.0,0.0,0.0,0.0,0.0,0.0,0.0,0.0,0.0,0.0,0.0,0.0,0.0,0.0,0.0,0.0,0.0,0.0,0.0,0.0,0.0,0.0,0.0,0.0,0.0,0.0,0.0,0.0,0.0,0.0,0.0,0.0,0.0,0.0,0.0,0.0,0.0,0.0,0.0,0.0,0.0,0.0,0.0,0.0,0.0,0.0,0.0,0.0,0.0,0.0,0.0,0.0,0.0,0.0,0.0,0.0,0.0,0.0,0.0,0.0,0.0,0.0,0.0,0.0,0.0,0.0,0.0,0.0,0.0,0.0,0.0,0.0,0.0,0.0,0.0,0.0,0.0,0.0,0.0,0.0,0.0,0.0,0.0,0.0,0.0,0.0,0.0,0.0,0.0,0.0,0.0,0.0,0.0,0.0,0.0,0.0,0.0,0.0,0.0,0.0,0.0,0.0,0.0,0.0,0.0,0.0,0.0,0.0,0.0,0.0,0.0,0.0,0.0,0.0,0.0,0.0,0.0,0.0,0.0,0.0,0.0,0.0,0.0,0.0,0.0,0.0,0.0,0.0,0.0,0.0,0.0,0.0,0.0,0.0,0.0,0.0,0.0,0.0,0.0,0.0,0.0,0.0,0.0,0.0,0.0,0.0,0.0,0.0,0.0,0.0,0.0,0.0,0.0,0.0,0.0,0.0,0.0,0.0,0.0,0.0,0.0,0.0,0.0,0.0,0.0,0.0,0.0,0.0,0.0,0.0,0.0,0.0,0.0,0.0,0.0,0.0,0.0,0.0,0.0,0.0,0.0,0.0,0.0,0.0,0.0,0.0,0.0,0.0,0.0,0.0,0.0,0.0,0.0,0.0,0.0,0.0,0.0,0.0,0.0,0.0,0.0,0.0,0.0,0.0,0.0,0.0,0.0,0.0,0.0,0.0,0.0,0.0,0.0,0.0,0.0,0.0,0.0,0.0,0.0,0.0,0.0,0.0,0.0,0.0,0.0,0.0,0.0,0.0,0.0,0.0,0.0,0.0,0.0,0.0,0.0,0.0,0.0,0.0,0.0,0.0,0.0,0.0,0.0,0.0,0.0,0.0,0.0,0.0,0.0,0.0,0.0,0.0,0.0,0.0,0.0,0.0,0.0,0.0,0.0,0.0,0.0,0.0,0.0,0.0,0.0,0.0,0.0,0.0,0.0,0.0,0.0,0.0,0.0,0.0,0.0,0.0,0.0,0.0,0.0,0.0,0.0,0.0,0.0,0.0,0.0,0.0,0.0,0.0,0.0,0.0,0.0,0.0,0.0,0.0,0.0,0.0,0.0,0.0,0.0,0.0,0.0,0.0,0.0,0.0,0.0,0.0,0.0,0.0,0.0,0.0,0.0,0.0,0.0,0.0,0.0,0.0,0.0,0.0,0.0,0.0,0.0,0.0,0.0,0.0,0.0,0.0,0.0,0.0,0.0,0.0,0.0,0.0,0.0,0.0,0.0,0.0,0.0,0.0,0.0,0.0,0.0,0.0,0.0,0.0,0.0,0.0,0.0,0.0,0.0,0.0,0.0,0.0,0.0,0.0,0.0,0.0,0.0,0.0,0.0,0.0,0.0,0.0,0.0,0.0,0.0,0.0,0.0,0.0,0.0,0.0,0.0,0.0,0.0,0.0,0.0,0.0,0.0,0.0,0.0,0.0,0.0,0.0,0.0,0.0,0.0,0.0,0.0,0.0,0.0,0.0,0.0,0.0,0.0,0.0,0.0,0.0,0.0,0.0,0.0,0.0,0.0,0.0,0.0,0.0,0.0,0.0,0.0,0.0,0.0,0.0,0.0,0.0,0.0,0.0,0.0,0.0,0.0,0.0,0.0,0.0,0.0,0.0,0.0,0.0,0.0,0.0,0.0,0.0,0.0,0.0,0.0,0.0,0.0,0.0,0.0,0.0,0.0,0.0,0.0,0.0,0.0,0.0,0.0,0.0,0.0,0.0,0.0,0.0,0.0,0.0,0.0,0.0,0.0,0.0,0.0,0.0,0.0,0.0,0.0,0.0,0.0,0.0,0.0,0.0,0.0,0.0,0.0,0.0,0.0,0.0,0.0,0.0,0.0,0.0,0.0,0.0,0.0,0.0,0.0,0.0,0.0,0.0,0.0,0.0,0.0,0.0,0.0,0.0,0.0,0.0,0.0,0.0,0.0,0.0,0.0,0.0,0.0,0.0,0.0,0.0,0.0,0.0,0.0,0.0,0.0,0.0,0.0,0.0,0.0,0.0,0.0,0.0,0.0,0.0,0.0,0.0,0.0,0.0,0.0,0.0,0.0,0.0,0.0,0.0,0.0,0.0,0.0,0.0,0.0,0.0,0.0,0.0,0.0,0.0,0.0,0.0,0.0,0.0,0.0,0.0,0.0,0.0,0.0,0.0,0.0,0.0,0.0,0.0,0.0,0.0,0.0,0.0,0.0,0.0,0.0,0.0,0.0,0.0,0.0,0.0,0.0,0.0,0.0,0.0,0.0,0.0,0.0,0.0,0.0,0.0,0.0,0.0,0.0,0.0,0.0,0.0,0.0,0.0,0.0,0.0,0.0,0.0,0.0,0.0,0.0,0.0,0.0,0.0,0.0,0.0,0.0,0.0,0.0,0.0,0.0,0.0,0.0,0.0,0.0,0.0,0.0,0.0,0.0,0.0,0.0,0.0,0.0,0.0,0.0,0.0,0.0,0.0,0.0,0.0,0.0,0.0,0.0,0.0,0.0,0.0,0.0,0.0,0.0,0.0,0.0,0.0,0.0,0.0,0.0,0.0,0.0,0.0,0.0,0.0,0.0,0.0,0.0,0.0,0.0,0.0,0.0,0.0,0.0,0.0,0.0,0.0,0.0,0.0,0.0,0.0,0.0,0.0,0.0,0.0,0.0,0.0,0.0,0.0,0.0,0.0,0.0,0.0,0.0,0.0,0.0,0.0,0.0,0.0,0.0,0.0,0.0,0.0,0.0,0.0,0.0,0.0,0.0,0.0,0.0,0.0,0.0,0.0,0.0,0.0,0.0,0.0,0.0,0.0,0.0,0.0,0.0,0.0,0.0,0.0,0.0,0.0,0.0,0.0,0.0,0.0,0.0,0.0,0.0,0.0,0.0,0.0,0.0,0.0,0.0,0.0,0.0,0.0,0.0,0.0,0.0,0.0,0.0,0.0,0.0,0.0,0.0,0.0,0.0,0.0,0.0,0.0,0.0,0.0,0.0,0.0,0.0,0.0,0.0,0.0,0.0,0.0,0.0,0.0,0.0,0.0,0.0,0.0,0.0,0.0,0.0,0.0,0.0,0.0,0.0,0.0,0.0,0.0,0.0,0.0,0.0,0.0,0.0,0.0,0.0,0.0,0.0,0.0,0.0,0.0,0.0,0.0,0.0,0.0,0.0,0.0,0.0,0.0,0.0,0.0,1.7671,0.0,0.0,0.0,1.7562,0.0,0.0,0.0,0.0,0.0,0.0,0.0,0.0,0.0,0.0,0.0,0.0,0.0,0.0,0.0,0.0,0.0,0.0,0.0,0.0,0.0,0.0,0.0,0.0,0.0,0.0,0.0,0.0,0.0,0.0,0.0,0.0,0.0,0.0,0.0,0.0,0.0,0.0,0.0,0.0,0.0,0.0,0.0,0.0,0.0,0.0,0.0,0.0,0.0,0.0,0.0,0.0,0.0,0.0,0.0,0.0,0.0,0.0,0.0,0.0,0.0,0.0,0.0,0.0,0.0,0.0,0.0,0.0,0.0,0.0,0.0,0.0,0.0,0.0,0.0,0.0,0.0,0.0,0.0,0.0,0.0,0.0,0.0,0.0,0.0,0.0,0.0,0.0,0.0,0.0,0.0,0.0,0.0,0.0,0.0,0.0,0.0,0.0,0.0,0.0,0.0,0.0,0.0,0.0,0.0,0.0,0.0,0.0,0.0,0.0,1.764,1.6581,1.8492,1.8875,1.7473,0.0,0.0,0.0,0.0,0.0,0.0,0.0,0.0,0.0,0.0,0.0,0.0,0.0,0.0,0.0,0.0,0.0,0.0,0.0,0.0,0.0,0.0,0.0,0.0,0.0,0.0,0.0,0.0,0.0,0.0,0.0,0.0,0.0,0.0,0.0,0.0,0.0,0.0,0.0,0.0,0.0,0.0,0.0,0.0,0.0,0.0,0.0,0.0,0.0,0.0,0.0,0.0,0.0,0.0,0.0,0.0,0.0,0.0,0.0,0.0,0.0,0.0,0.0,0.0,0.0,0.0,0.0,0.0,0.0,0.0,0.0,0.0,0.0,0.0,0.0,0.0,0.0,0.0,0.0,0.0,0.0,0.0,0.0,0.0,0.0,0.0,0.0,0.0,0.0,0.0,0.0,0.0,0.0,0.0,0.0,0.0,0.0,0.0,0.0,0.0,0.0,0.0,0.0,0.0,0.0,0.0,0.0,0.0,0.0,0.0,0.0,0.0,1.912,1.9579,1.8046,0.0,0.0,0.0,0.0,0.0,0.0,0.0,0.0,0.0,0.0,0.0,0.0,0.0,0.0,0.0,0.0,0.0,0.0,0.0,0.0,0.0,0.0,0.0,0.0,0.0,0.0,0.0,0.0,0.0,0.0,0.0,0.0,0.0,0.0,0.0,0.0,0.0,0.0,0.0,0.0,0.0,0.0,0.0,0.0,0.0,0.0,0.0,0.0,0.0,0.0,0.0,0.0,0.0,0.0,0.0,0.0,0.0,0.0,0.0,0.0,0.0,0.0,0.0,0.0,0.0,0.0,0.0,0.0,0.0,0.0,0.0,0.0,0.0,0.0,0.0,0.0,0.0,0.0,0.0,0.0,0.0,0.0,0.0,0.0,0.0,0.0,0.0,0.0,0.0,0.0,0.0,0.0,0.0,0.0,0.0,0.0,0.0,0.0,0.0,0.0,0.0,0.0,0.0,0.0,0.0,0.0,0.0,0.0,0.0,0.0,1.7088,1.8016,1.8757,0.0,1.9528,0.0,0.0,0.0,0.0,0.0,0.0,0.0,0.0,0.0,0.0,0.0,0.0,0.0,0.0,0.0,0.0,0.0,0.0,0.0,0.0,0.0,0.0,0.0,0.0,0.0,0.0,0.0,0.0,0.0,0.0,0.0,0.0,0.0,0.0,0.0,0.0,0.0,0.0,0.0,0.0,0.0,0.0,0.0,0.0,0.0,0.0,0.0,0.0,0.0,0.0,0.0,0.0,0.0,0.0,0.0,0.0,0.0,0.0,0.0,0.0,0.0,0.0,0.0,0.0,0.0,0.0,0.0,0.0,0.0,0.0,0.0,0.0,0.0,0.0,0.0,0.0,0.0,0.0,0.0,0.0,0.0,0.0,0.0,0.0,0.0,0.0,0.0,0.0,0.0,0.0,0.0,0.0,0.0,0.0,0.0,0.0,0.0,0.0,0.0,0.0,0.0,0.0,0.0,0.0,0.0,0.0,0.0,0.0,0.0,0.0,1.7545,1.8663,1.9535,1.9792,0.0,0.0,0.0,0.0,0.0,0.0,0.0,0.0,0.0,0.0,0.0,0.0,0.0,0.0,0.0,0.0,0.0,0.0,0.0,0.0,0.0,0.0,0.0,0.0,0.0,0.0,0.0,0.0,0.0,0.0,0.0,0.0,0.0,0.0,0.0,0.0,0.0,0.0,0.0,0.0,0.0,0.0,0.0,0.0,0.0,0.0,0.0,0.0,0.0,0.0,0.0,0.0,0.0,0.0,0.0,0.0,0.0,0.0,0.0,0.0,0.0,0.0,0.0,0.0,0.0,0.0,0.0,0.0,0.0,0.0,0.0,0.0,0.0,0.0,0.0,0.0,0.0,0.0,0.0,0.0,0.0,0.0,0.0,0.0,0.0,0.0,0.0,0.0,0.0,0.0,0.0,0.0,0.0,0.0,0.0,0.0,0.0,0.0,0.0,0.0,0.0,0.0,0.0,0.0,0.0,0.0,0.0,0.0,0.0,0.0,1.7777,1.8574,2.0023,2.0646,2.0521,1.9716,0.0,0.0,0.0,0.0,0.0,0.0,0.0,0.0,0.0,0.0,0.0,0.0,0.0,0.0,0.0,0.0,0.0,0.0,0.0,0.0,0.0,0.0,0.0,0.0,0.0,0.0,0.0,0.0,0.0,0.0,0.0,0.0,0.0,0.0,0.0,0.0,0.0,0.0,0.0,0.0,0.0,0.0,0.0,0.0,0.0,0.0,0.0,0.0,0.0,0.0,0.0,0.0,0.0,0.0,0.0,0.0,0.0,0.0,0.0,0.0,0.0,0.0,0.0,0.0,0.0,0.0,0.0,0.0,0.0,0.0,0.0,0.0,0.0,0.0,0.0,0.0,0.0,0.0,0.0,0.0,0.0,0.0,0.0,0.0,0.0,0.0,0.0,0.0,0.0,0.0,0.0,0.0,0.0,0.0,0.0,0.0,0.0,0.0,0.0,0.0,0.0,0.0,0.0,0.0,0.0,0.0,0.0,0.0,2.0296,1.9484,2.0211,2.2744,2.197,2.1432,0.0,0.0,0.0,0.0,0.0,0.0,0.0,0.0,0.0,0.0,0.0,0.0,0.0,0.0,0.0,0.0,0.0,0.0,0.0,0.0,0.0,0.0,0.0,0.0,0.0,0.0,0.0,0.0,0.0,0.0,0.0,0.0,0.0,0.0,0.0,0.0,0.0,0.0,0.0,0.0,0.0,0.0,0.0,0.0,0.0,0.0,0.0,0.0,0.0,0.0,0.0,0.0,0.0,0.0,0.0,0.0,0.0,0.0,0.0,0.0,0.0,0.0,0.0,0.0,0.0,0.0,0.0,0.0,0.0,0.0,0.0,0.0,0.0,0.0,0.0,0.0,0.0,0.0,0.0,0.0,0.0,0.0,0.0,0.0,0.0,0.0,0.0,0.0,0.0,0.0,0.0,0.0,0.0,0.0,0.0,0.0,0.0,0.0,0.0,0.0,0.0,0.0,0.0,0.0,0.0,0.0,0.0,0.0,0.0,1.9114,2.0413,2.1748,2.3005,2.2726,2.2357,0.0,0.0,0.0,0.0,0.0,0.0,0.0,0.0,0.0,0.0,0.0,0.0,0.0,0.0,0.0,0.0,0.0,0.0,0.0,0.0,0.0,0.0,0.0,0.0,0.0,0.0,0.0,0.0,0.0,0.0,0.0,0.0,0.0,0.0,0.0,0.0,0.0,0.0,0.0,0.0,0.0,0.0,0.0,0.0,0.0,0.0,0.0,0.0,0.0,0.0,0.0,0.0,0.0,0.0,0.0,0.0,0.0,0.0,0.0,0.0,0.0,0.0,0.0,0.0,0.0,0.0,0.0,0.0,0.0,0.0,0.0,0.0,0.0,0.0,0.0,0.0,0.0,0.0,0.0,0.0,0.0,0.0,0.0,0.0,0.0,0.0,0.0,0.0,0.0,0.0,0.0,0.0,0.0,0.0,0.0,0.0,0.0,0.0,0.0,0.0,0.0,0.0,0.0,0.0,0.0,0.0,0.0,0.0,0.0,1.9823,2.2146,2.3461,2.3622,2.3479,2.306,0.0,0.0,0.0,0.0,0.0,0.0,0.0,0.0,0.0,0.0,0.0,0.0,0.0,0.0,0.0,0.0,0.0,0.0,0.0,0.0,0.0,0.0,0.0,0.0,0.0,0.0,0.0,0.0,0.0,0.0,0.0,0.0,0.0,0.0,0.0,0.0,0.0,0.0,0.0,0.0,0.0,0.0,0.0,0.0,0.0,0.0,0.0,0.0,0.0,0.0,0.0,0.0,0.0,0.0,0.0,0.0,0.0,0.0,0.0,0.0,0.0,0.0,0.0,0.0,0.0,0.0,0.0,0.0,0.0,0.0,0.0,0.0,0.0,0.0,0.0,0.0,0.0,0.0,0.0,0.0,0.0,0.0,0.0,0.0,0.0,0.0,0.0,0.0,0.0,0.0,0.0,0.0,0.0,0.0,0.0,0.0,0.0,0.0,0.0,0.0,0.0,0.0,0.0,0.0,0.0,0.0,0.0,0.0,1.9855,2.2927,2.4616,2.5176,2.4783,2.4239,2.3469,0.0,0.0,0.0,0.0,0.0,0.0,0.0,0.0,0.0,0.0,0.0,0.0,0.0,0.0,0.0,0.0,0.0,0.0,0.0,0.0,0.0,0.0,0.0,0.0,0.0,0.0,0.0,0.0,0.0,0.0,0.0,0.0,0.0,0.0,0.0,0.0,0.0,0.0,0.0,0.0,0.0,0.0,0.0,0.0,0.0,0.0,0.0,0.0,0.0,0.0,0.0,0.0,0.0,0.0,0.0,0.0,0.0,0.0,0.0,0.0,0.0,0.0,0.0,0.0,0.0,0.0,0.0,0.0,0.0,0.0,0.0,0.0,0.0,0.0,0.0,0.0,0.0,0.0,0.0,0.0,0.0,0.0,0.0,0.0,0.0,0.0,0.0,0.0,0.0,0.0,0.0,0.0,0.0,0.0,0.0,0.0,0.0,0.0,0.0,0.0,0.0,0.0,0.0,0.0,0.0,0.0,0.0,0.0,0.0,2.2576,2.4197,2.4799,2.4272,2.4079,2.4004,0.0,0.0,0.0,0.0,0.0,0.0,0.0,0.0,0.0,0.0,0.0,0.0,0.0,0.0,0.0,0.0,0.0,0.0,0.0,0.0,0.0,0.0,0.0,0.0,0.0,0.0,0.0,0.0,0.0,0.0,0.0,0.0,0.0,0.0,0.0,0.0,0.0,0.0,0.0,0.0,0.0,0.0,0.0,0.0,0.0,0.0,0.0,0.0,0.0,0.0,0.0,0.0,0.0,0.0,0.0,0.0,0.0,0.0,0.0,0.0,0.0,0.0,0.0,0.0,0.0,0.0,0.0,0.0,0.0,0.0,0.0,0.0,0.0,0.0,0.0,0.0,0.0,0.0,0.0,0.0,0.0,0.0,0.0,0.0,0.0,0.0,0.0,0.0,0.0,0.0,0.0,0.0,0.0,0.0,0.0,0.0,0.0,0.0,0.0,0.0,0.0,0.0,0.0,0.0,0.0,0.0,0.0,0.0,0.0,2.362,2.4782,2.5159,2.4599,2.4398,2.4272,2.4131,0.0,0.0,0.0,0.0,0.0,0.0,0.0,0.0,0.0,0.0,0.0,0.0,0.0,0.0,0.0,0.0,0.0,0.0,0.0,0.0,0.0,0.0,0.0,0.0,0.0,0.0,0.0,0.0,0.0,0.0,0.0,0.0,0.0,0.0,0.0,0.0,0.0,0.0,0.0,0.0,0.0,0.0,0.0,0.0,0.0,0.0,0.0,0.0,0.0,0.0,0.0,0.0,0.0,0.0,0.0,0.0,0.0,0.0,0.0,0.0,0.0,0.0,0.0,0.0,0.0,0.0,0.0,0.0,0.0,0.0,0.0,0.0,0.0,0.0,0.0,0.0,0.0,0.0,0.0,0.0,0.0,0.0,0.0,0.0,0.0,0.0,0.0,0.0,0.0,0.0,0.0,0.0,0.0,0.0,0.0,0.0,0.0,0.0,0.0,0.0,0.0,0.0,0.0,0.0,0.0,0.0,0.0,0.0,2.5653,2.6264,2.6273,2.5603,2.5101,2.4315,0.0,0.0,0.0,0.0,0.0,0.0,0.0,0.0,0.0,0.0,0.0,0.0,0.0,0.0,0.0,0.0,0.0,0.0,0.0,0.0,0.0,0.0,0.0,0.0,0.0,0.0,0.0,0.0,0.0,0.0,0.0,0.0,0.0,0.0,0.0,0.0,0.0,0.0,0.0,0.0,0.0,0.0,0.0,0.0,0.0,0.0,0.0,0.0,0.0,0.0,0.0,0.0,0.0,0.0,0.0,0.0,0.0,0.0,0.0,0.0,0.0,0.0,0.0,0.0,0.0,0.0,0.0,0.0,0.0,0.0,0.0,0.0,0.0,0.0,0.0,0.0,0.0,0.0,0.0,0.0,0.0,0.0,0.0,0.0,0.0,0.0,0.0,0.0,0.0,0.0,0.0,0.0,0.0,0.0,0.0,0.0,0.0,0.0,0.0,0.0,0.0,0.0,0.0,0.0,0.0,0.0,0.0,0.0,0.0,2.6273,2.7185,2.7017,2.567,2.546,2.4875,0.0,0.0,0.0,0.0,0.0,0.0,0.0,0.0,0.0,0.0,0.0,0.0,0.0,0.0,0.0,0.0,0.0,0.0,0.0,0.0,0.0,0.0,0.0,0.0,0.0,0.0,0.0,0.0,0.0,0.0,0.0,0.0,0.0,0.0,0.0,0.0,0.0,0.0,0.0,0.0,0.0,0.0,0.0,0.0,0.0,0.0,0.0,0.0,0.0,0.0,0.0,0.0,0.0,0.0,0.0,0.0,0.0,0.0,0.0,0.0,0.0,0.0,0.0,0.0,0.0,0.0,0.0,0.0,0.0,0.0,0.0,0.0,0.0,0.0,0.0,0.0,0.0,0.0,0.0,0.0,0.0,0.0,0.0,0.0,0.0,0.0,0.0,0.0,0.0,0.0,0.0,0.0,0.0,0.0,0.0,0.0,0.0,0.0,0.0,0.0,0.0,0.0,0.0,0.0,0.0,0.0,0.0,0.0,2.6356,2.7857,2.8508,2.8222,2.7017,2.654,2.5561,0.0,0.0,0.0,0.0,0.0,0.0,0.0,0.0,0.0,0.0,0.0,0.0,0.0,0.0,0.0,0.0,0.0,0.0,0.0,0.0,0.0,0.0,0.0,0.0,0.0,0.0,0.0,0.0,0.0,0.0,0.0,0.0,0.0,0.0,0.0,0.0,0.0,0.0,0.0,0.0,0.0,0.0,0.0,0.0,0.0,0.0,0.0,0.0,0.0,0.0,0.0,0.0,0.0,0.0,0.0,0.0,0.0,0.0,0.0,0.0,0.0,0.0,0.0,0.0,0.0,0.0,0.0,0.0,0.0,0.0,0.0,0.0,0.0,0.0,0.0,0.0,0.0,0.0,0.0,0.0,0.0,0.0,0.0,0.0,0.0,0.0,0.0,0.0,0.0,0.0,0.0,0.0,0.0,0.0,0.0,0.0,0.0,0.0,0.0,0.0,0.0,0.0,0.0,0.0,0.0,0.0,0.0,0.0,2.7209,2.9814,2.988,2.9603,2.9007,2.7946,2.6331,0.0,0.0,0.0,0.0,0.0,0.0,0.0,0.0,0.0,0.0,0.0,0.0,0.0,0.0,0.0,0.0,0.0,0.0,0.0,0.0,0.0,0.0,0.0,0.0,0.0,0.0,0.0,0.0,0.0,0.0,0.0,0.0,0.0,0.0,0.0,0.0,0.0,0.0,0.0,0.0,0.0,0.0,0.0,0.0,0.0,0.0,0.0,0.0,0.0,0.0,0.0,0.0,0.0,0.0,0.0,0.0,0.0,0.0,0.0,0.0,0.0,0.0,0.0,0.0,0.0,0.0,0.0,0.0,0.0,0.0,0.0,0.0,0.0,0.0,0.0,0.0,0.0,0.0,0.0,0.0,0.0,0.0,0.0,0.0,0.0,0.0,0.0,0.0,0.0,0.0,0.0,0.0,0.0,0.0,0.0,0.0,0.0,0.0,0.0,0.0,0.0,0.0,0.0,0.0,0.0,0.0,0.0,0.0,2.8907,3.0372,3.0422,3.0171,2.9628,2.8524,2.6699,0.0,0.0,0.0,0.0,0.0,0.0,0.0,0.0,0.0,0.0,0.0,0.0,0.0,0.0,0.0,0.0,0.0,0.0,0.0,0.0,0.0,0.0,0.0,0.0,0.0,0.0,0.0,0.0,0.0,0.0,0.0,0.0,0.0,0.0,0.0,0.0,0.0,0.0,0.0,0.0,0.0,0.0,0.0,0.0,0.0,0.0,0.0,0.0,2.3477,0.0,0.0,0.0,0.0,0.0,0.0,0.0,0.0,0.0,0.0,0.0,0.0,0.0,0.0,0.0,0.0,0.0,0.0,0.0,0.0,0.0,0.0,0.0,0.0,0.0,0.0,0.0,0.0,0.0,0.0,0.0,0.0,0.0,0.0,0.0,0.0,0.0,0.0,0.0,0.0,0.0,0.0,0.0,0.0,0.0,0.0,0.0,0.0,0.0,0.0,0.0,0.0,0.0,0.0,0.0,0.0,0.0,0.0,0.0,2.971,3.1286,3.1376,3.1215,3.0919,3.0196,2.8216,0.0,0.0,0.0,0.0,0.0,0.0,0.0,0.0,0.0,0.0,0.0,0.0,0.0,0.0,0.0,0.0,0.0,0.0,0.0,0.0,0.0,0.0,0.0,0.0,0.0,0.0,0.0,0.0,0.0,0.0,0.0,0.0,0.0,0.0,0.0,0.0,0.0,0.0,0.0,0.0,0.0,0.0,0.0,0.0,0.0,0.0,0.0,0.0,0.0,0.0,0.0,0.0,0.0,0.0,0.0,0.0,0.0,0.0,0.0,0.0,0.0,0.0,0.0,0.0,0.0,0.0,0.0,0.0,0.0,0.0,0.0,0.0,0.0,0.0,0.0,0.0,0.0,0.0,0.0,0.0,0.0,0.0,0.0,0.0,0.0,0.0,0.0,0.0,0.0,0.0,0.0,0.0,0.0,0.0,0.0,0.0,0.0,0.0,0.0,0.0,0.0,0.0,0.0,0.0,0.0,0.0,0.0,2.879,3.0262,3.2229,3.233,3.2342,3.2388,3.1996,2.9989,2.624,0.0,0.0,0.0,0.0,0.0,0.0,0.0,0.0,0.0,0.0,0.0,0.0,0.0,0.0,0.0,0.0,0.0,0.0,0.0,0.0,0.0,0.0,0.0,0.0,0.0,0.0,0.0,0.0,0.0,0.0,0.0,0.0,0.0,0.0,0.0,0.0,0.0,0.0,2.1018,2.2046,0.0,0.0,0.0,0.0,0.0,0.0,0.0,0.0,2.5477,0.0,0.0,0.0,0.0,0.0,0.0,0.0,0.0,0.0,0.0,0.0,0.0,0.0,0.0,0.0,0.0,0.0,0.0,0.0,0.0,0.0,0.0,0.0,0.0,0.0,0.0,0.0,0.0,0.0,0.0,0.0,0.0,0.0,0.0,0.0,0.0,0.0,0.0,0.0,0.0,0.0,0.0,0.0,0.0,0.0,0.0,0.0,0.0,0.0,0.0,0.0,0.0,0.0,0.0,0.0,0.0,3.002,3.0683,3.1622,3.2914,3.2928,3.3062,3.327,3.2531,3.0863,2.8246,0.0,0.0,0.0,0.0,0.0,0.0,0.0,0.0,0.0,0.0,0.0,0.0,0.0,0.0,0.0,0.0,0.0,0.0,0.0,0.0,0.0,0.0,0.0,0.0,0.0,0.0,0.0,0.0,0.0,0.0,0.0,0.0,0.0,0.0,0.0,0.0,0.0,0.0,0.0,2.3996,2.4782,0.0,0.0,0.0,0.0,0.0,0.0,0.0,0.0,2.6239,0.0,0.0,0.0,0.0,0.0,0.0,0.0,0.0,0.0,0.0,0.0,0.0,0.0,0.0,0.0,0.0,0.0,0.0,0.0,0.0,0.0,0.0,0.0,0.0,0.0,0.0,0.0,0.0,0.0,0.0,0.0,0.0,0.0,0.0,0.0,0.0,0.0,0.0,0.0,0.0,0.0,0.0,0.0,0.0,0.0,0.0,0.0,0.0,0.0,0.0,0.0,0.0,0.0,0.0,0.0,2.9684,3.1411,3.2828,3.3883,3.4401,3.4702,3.4784,3.4705,3.3203,0.0,0.0,0.0,0.0,0.0,0.0,0.0,0.0,0.0,0.0,0.0,0.0,0.0,0.0,0.0,0.0,0.0,0.0,0.0,0.0,0.0,0.0,0.0,0.0,0.0,0.0,0.0,0.0,0.0,0.0,0.0,0.0,0.0,0.0,0.0,0.0,0.0,0.0,0.0,0.0,2.5318,2.6398,2.8357,0.0,0.0,0.0,0.0,0.0,0.0,2.798,2.6993,0.0,0.0,0.0,0.0,0.0,0.0,0.0,0.0,0.0,0.0,0.0,0.0,0.0,0.0,0.0,0.0,0.0,0.0,0.0,0.0,0.0,0.0,0.0,0.0,0.0,0.0,0.0,0.0,0.0,0.0,0.0,0.0,0.0,0.0,0.0,0.0,0.0,0.0,0.0,0.0,0.0,0.0,0.0,0.0,0.0,0.0,0.0,0.0,0.0,0.0,0.0,0.0,0.0,0.0,0.0,2.9151,3.1887,3.3879,3.4964,3.5838,3.6372,3.6543,3.6845,3.5269,0.0,0.0,0.0,0.0,0.0,0.0,0.0,0.0,0.0,0.0,0.0,0.0,0.0,0.0,0.0,0.0,0.0,0.0,0.0,0.0,0.0,0.0,0.0,0.0,0.0,0.0,0.0,0.0,0.0,0.0,0.0,0.0,0.0,0.0,0.0,0.0,0.0,0.0,0.0,0.0,0.0,2.809,3.0146,3.1286,0.0,0.0,0.0,0.0,3.0467,2.9145,0.0,0.0,0.0,0.0,0.0,0.0,0.0,0.0,0.0,0.0,0.0,0.0,0.0,0.0,0.0,0.0,0.0,0.0,0.0,0.0,0.0,0.0,0.0,0.0,0.0,0.0,0.0,0.0,0.0,0.0,0.0,0.0,0.0,0.0,0.0,0.0,0.0,0.0,0.0,0.0,0.0,0.0,0.0,0.0,0.0,0.0,0.0,0.0,0.0,0.0,0.0,0.0,0.0,0.0,0.0,0.0,2.9771,3.2715,3.4787,3.5887,3.6556,3.7357,3.8345,3.7702,3.5786,0.0,0.0,0.0,0.0,0.0,0.0,0.0,0.0,0.0,0.0,0.0,0.0,0.0,0.0,0.0,0.0,0.0,0.0,0.0,0.0,0.0,0.0,0.0,0.0,0.0,0.0,0.0,0.0,0.0,0.0,0.0,0.0,0.0,0.0,0.0,0.0,0.0,0.0,0.0,0.0,0.0,3.0071,2.9905,3.2024,3.3068,0.0,0.0,3.3266,3.2778,3.1698,0.0,0.0,0.0,0.0,0.0,0.0,0.0,0.0,0.0,0.0,0.0,0.0,0.0,0.0,0.0,0.0,0.0,0.0,0.0,0.0,0.0,0.0,0.0,0.0,0.0,0.0,0.0,0.0,0.0,0.0,0.0,0.0,0.0,0.0,0.0,0.0,0.0,0.0,0.0,0.0,0.0,0.0,0.0,0.0,0.0,0.0,0.0,0.0,0.0,0.0,0.0,0.0,0.0,0.0,0.0,2.9292,2.9897,3.3426,3.5563,3.6125,3.75,3.8581,3.9266,3.9404,3.816,0.0,0.0,0.0,0.0,0.0,0.0,0.0,0.0,0.0,0.0,0.0,0.0,0.0,0.0,0.0,0.0,0.0,0.0,0.0,0.0,0.0,0.0,0.0,0.0,0.0,0.0,0.0,0.0,0.0,0.0,0.0,0.0,0.0,0.0,0.0,0.0,0.0,0.0,0.0,0.0,0.0,0.0,3.2305,3.361,0.0,0.0,0.0,3.4048,3.3251,0.0,0.0,0.0,0.0,0.0,0.0,0.0,0.0,0.0,0.0,0.0,0.0,0.0,0.0,0.0,0.0,0.0,0.0,0.0,0.0,0.0,0.0,0.0,0.0,0.0,0.0,0.0,0.0,0.0,0.0,0.0,0.0,0.0,0.0,0.0,0.0,0.0,0.0,0.0,0.0,0.0,0.0,0.0,0.0,0.0,0.0,0.0,0.0,0.0,0.0,0.0,0.0,0.0,0.0,0.0,0.0,0.0,3.0616,3.4753,3.7041,3.7299,3.8782,3.9789,4.0279,4.1001,0.0,0.0,0.0,0.0,0.0,0.0,0.0,0.0,0.0,0.0,0.0,0.0,0.0,0.0,0.0,0.0,0.0,0.0,0.0,0.0,0.0,0.0,0.0,0.0,0.0,0.0,0.0,1.9497,0.0,0.0,0.0,0.0,0.0,0.0,0.0,0.0,0.0,0.0,0.0,0.0,0.0,0.0,3.114,3.4175,3.5001,3.5342,0.0,0.0,3.4743,3.4056,3.3682,3.3255,0.0,0.0,0.0,0.0,0.0,0.0,0.0,0.0,0.0,0.0,0.0,0.0,0.0,0.0,0.0,0.0,0.0,0.0,0.0,0.0,0.0,0.0,0.0,0.0,0.0,0.0,0.0,0.0,0.0,0.0,0.0,0.0,0.0,0.0,0.0,0.0,0.0,0.0,0.0,0.0,0.0,0.0,0.0,0.0,0.0,0.0,0.0,0.0,0.0,0.0,0.0,0.0,0.0,0.0,0.0,3.2752,3.7123,3.975,4.0448,4.05,4.0954,4.192,4.2003,4.0815,0.0,0.0,0.0,0.0,0.0,0.0,0.0,0.0,0.0,0.0,0.0,0.0,0.0,0.0,0.0,0.0,0.0,0.0,0.0,0.0,0.0,0.0,0.0,0.0,0.0,0.0,0.0,0.0,0.0,0.0,0.0,0.0,0.0,0.0,0.0,0.0,0.0,0.0,0.0,0.0,0.0,3.339,3.4212,3.5825,3.6595,0.0,0.0,3.5918,3.6138,3.5289,3.4728,3.5143,0.0,0.0,0.0,0.0,0.0,0.0,0.0,0.0,0.0,0.0,0.0,0.0,0.0,0.0,0.0,0.0,0.0,0.0,0.0,0.0,0.0,0.0,0.0,0.0,0.0,0.0,0.0,0.0,0.0,0.0,0.0,0.0,0.0,0.0,0.0,0.0,0.0,0.0,0.0,0.0,0.0,0.0,0.0,0.0,0.0,0.0,0.0,0.0,0.0,0.0,0.0,0.0,0.0,3.359,3.419,3.7799,4.0231,4.1295,4.1258,4.1675,4.2633,4.2654,4.1812,0.0,0.0,0.0,0.0,0.0,0.0,0.0,0.0,0.0,0.0,0.0,0.0,0.0,0.0,0.0,0.0,0.0,0.0,0.0,0.0,0.0,0.0,0.0,0.0,0.0,0.0,0.0,0.0,2.4799,2.5175,2.4264,0.0,0.0,0.0,0.0,0.0,0.0,0.0,0.0,0.0,0.0,3.4649,3.5916,3.6701,0.0,0.0,3.6845,3.6727,3.6814,3.6029,3.5622,3.6166,3.5649,0.0,0.0,0.0,0.0,0.0,0.0,0.0,0.0,0.0,0.0,0.0,0.0,0.0,0.0,0.0,0.0,0.0,0.0,0.0,0.0,0.0,0.0,0.0,0.0,0.0,0.0,0.0,0.0,0.0,0.0,0.0,0.0,0.0,0.0,0.0,0.0,0.0,0.0,0.0,0.0,0.0,0.0,0.0,0.0,0.0,0.0,0.0,0.0,0.0,0.0,0.0,0.0,3.5311,3.5886,3.925,4.1437,4.2354,4.235,4.2707,4.3533,4.338,4.2789,0.0,0.0,0.0,0.0,0.0,0.0,0.0,0.0,0.0,0.0,0.0,0.0,0.0,0.0,0.0,0.0,0.0,0.0,0.0,0.0,0.0,0.0,0.0,0.0,0.0,0.0,0.0,0.0,2.5569,2.6172,2.6038,0.0,0.0,0.0,0.0,0.0,0.0,0.0,0.0,0.0,0.0,3.6043,3.7374,3.7613,3.7732,3.7964,3.7741,3.7519,3.7402,3.7045,3.6953,3.7513,0.0,0.0,0.0,0.0,0.0,0.0,0.0,0.0,0.0,0.0,0.0,0.0,0.0,0.0,0.0,0.0,0.0,0.0,0.0,0.0,0.0,0.0,0.0,0.0,0.0,0.0,0.0,0.0,0.0,0.0,1.9804,0.0,0.0,0.0,0.0,0.0,0.0,0.0,0.0,0.0,0.0,0.0,0.0,0.0,0.0,0.0,0.0,0.0,0.0,0.0,0.0,0.0,0.0,3.8553,3.8017,4.183,4.3889,4.3965,4.3947,4.4248,4.4803,4.4309,4.367,4.2944,0.0,0.0,0.0,0.0,0.0,0.0,0.0,0.0,0.0,0.0,0.0,0.0,0.0,0.0,0.0,0.0,0.0,0.0,0.0,0.0,0.0,0.0,0.0,0.0,0.0,0.0,2.2741,2.4381,2.6515,0.0,0.0,0.0,0.0,0.0,0.0,0.0,0.0,0.0,0.0,3.741,3.7681,3.8329,3.8558,3.861,3.8188,3.8267,3.8312,3.81,3.8451,3.894,0.0,0.0,0.0,0.0,0.0,0.0,0.0,0.0,0.0,0.0,0.0,0.0,0.0,0.0,0.0,0.0,0.0,0.0,0.0,0.0,0.0,0.0,0.0,0.0,0.0,0.0,0.0,2.4773,2.4799,0.0,0.0,0.0,0.0,0.0,0.0,0.0,0.0,0.0,0.0,0.0,3.4215,3.6003,0.0,0.0,0.0,0.0,0.0,0.0,0.0,0.0,0.0,0.0,0.0,0.0,4.0427,4.0806,4.2876,4.4629,4.5826,4.5459,4.5354,4.5569,4.5354,4.4811,4.3884,0.0,0.0,0.0,0.0,0.0,0.0,0.0,0.0,0.0,0.0,0.0,0.0,0.0,0.0,0.0,0.0,0.0,0.0,0.0,0.0,0.0,0.0,0.0,0.0,0.0,2.6114,0.0,0.0,0.0,0.0,0.0,0.0,0.0,0.0,0.0,0.0,0.0,3.6383,3.6881,3.8949,4.0399,4.0332,4.0612,4.1054,0.0,0.0,0.0,0.0,0.0,0.0,0.0,0.0,0.0,0.0,0.0,0.0,0.0,0.0,3.8548,3.6881,3.6567,3.6684,3.6976,0.0,0.0,0.0,0.0,0.0,0.0,0.0,0.0,0.0,0.0,0.0,0.0,0.0,0.0,0.0,0.0,2.8165,0.0,0.0,0.0,0.0,0.0,0.0,0.0,0.0,3.5561,3.7177,3.7486,3.9299,4.0068,0.0,3.9047,3.7194,0.0,0.0,0.0,0.0,0.0,0.0,0.0,0.0,4.1796,4.2158,4.3816,4.5256,4.6406,4.6534,4.6556,4.6556,4.6177,4.5401,4.4136,4.2431,4.1548,0.0,0.0,0.0,0.0,0.0,0.0,0.0,0.0,0.0,0.0,0.0,0.0,0.0,0.0,0.0,0.0,0.0,0.0,0.0,0.0,0.0,0.0,0.0,2.9823,0.0,0.0,0.0,0.0,0.0,0.0,0.0,0.0,0.0,3.4481,3.6589,3.8462,3.8971,4.0665,4.194,4.2006,0.0,0.0,0.0,0.0,0.0,0.0,0.0,4.2206,4.2254,4.2211,4.1942,4.1208,4.122,4.1558,4.225,0.0,0.0,3.9814,3.9266,3.9196,3.9292,3.8785,3.8509,3.8917,3.939,3.9903,0.0,0.0,0.0,0.0,0.0,0.0,0.0,0.0,2.9939,2.9965,0.0,3.0073,0.0,0.0,0.0,0.0,0.0,3.4701,0.0,0.0,4.1166,4.2514,4.1801,4.2653,4.3446,4.4005,4.2579,4.1536,4.0837,3.8502,0.0,0.0,0.0,0.0,0.0,0.0,4.277,4.2364,4.4658,4.5906,4.6034,4.7126,4.7735,4.7689,4.6755,4.5456,4.3916,4.324,4.2643,4.2159,3.9417,0.0,0.0,0.0,0.0,0.0,0.0,0.0,0.0,0.0,0.0,0.0,0.0,0.0,0.0,0.0,0.0,0.0,0.0,0.0,0.0,3.243,0.0,0.0,0.0,0.0,0.0,0.0,0.0,0.0,0.0,0.0,3.9231,3.8631,3.9551,4.2905,0.0,0.0,0.0,0.0,4.3228,4.241,4.2605,4.3009,4.3185,4.4038,4.5061,4.6078,0.0,0.0,4.5382,4.4447,4.3733,4.3916,4.47,4.5089,4.3998,4.2436,4.1467,4.1761,4.1876,4.1849,4.1243,4.1839,4.2631,3.2505,0.0,0.0,0.0,0.0,3.1024,3.1677,3.2717,3.2717,3.2706,3.282,3.433,0.0,0.0,0.0,0.0,0.0,0.0,3.751,3.9344,4.1224,4.2995,4.4686,4.5394,4.6069,4.665,4.579,4.5233,4.5032,4.3909,4.2174,3.9869,0.0,0.0,0.0,0.0,4.4523,4.4832,4.5529,4.6353,4.7253,4.7143,4.7074,4.7074,4.6843,4.6402,4.5794,4.5009,4.4272,4.3556,4.2664,0.0,0.0,0.0,0.0,0.0,0.0,0.0,0.0,0.0,0.0,0.0,0.0,0.0,0.0,0.0,0.0,0.0,0.0,0.0,3.1957,3.5292,3.751,0.0,0.0,0.0,0.0,0.0,0.0,0.0,0.0,0.0,4.3641,4.2962,4.2814,0.0,0.0,4.5251,4.4961,4.5825,4.6747,4.7314,0.0,0.0,0.0,4.7293,4.6978,4.6894,4.6389,4.6043,4.6043,4.5761,4.5763,4.6493,4.6295,4.624,4.6885,4.4937,4.3285,4.3154,4.268,4.2291,4.241,4.2749,4.3101,3.4977,3.4357,3.3467,3.3244,3.3498,3.3488,3.4288,3.5529,3.5529,3.5771,3.6217,3.7236,3.723,3.6476,3.6572,0.0,0.0,0.0,4.0233,4.2314,4.3031,4.4402,4.6209,4.6615,4.7161,4.7724,4.6506,4.6218,4.6778,4.5567,4.4436,4.3311,0.0,0.0,4.4442,4.5,4.5511,4.5888,4.6138,4.6766,4.7764,4.7654,4.7311,4.6841,4.7259,4.7233,4.6631,4.6534,4.616,4.5397,4.4727,4.3832,0.0,0.0,0.0,0.0,0.0,0.0,0.0,0.0,0.0,0.0,0.0,3.1079,3.0865,0.0,0.0,0.0,3.5839,3.6038,3.7382,3.9979,0.0,0.0,0.0,0.0,0.0,0.0,0.0,4.1557,4.4649,4.6954,4.6988,4.6579,4.6194,4.599,4.6689,4.7153,4.702,0.0,4.8518,4.8853,4.8205,4.808,4.9103,4.8923,4.8627,4.8749,4.8228,4.8004,4.8189,4.8032,4.8034,4.8344,4.8342,4.8398,4.8907,4.7377,4.5931,4.5535,4.4947,4.4446,4.4105,4.4484,4.4842,3.6541,3.6422,3.4454,3.4432,3.566,3.5736,3.6662,3.8148,3.8223,3.8809,3.9659,3.9262,3.9333,3.977,3.9355,0.0,4.1898,4.2612,4.3989,4.5906,4.5935,4.633,4.6934,4.6975,4.7294,4.7927,4.5886,4.5641,4.683,4.4961,4.5241,4.7695,4.6644,4.6051,4.6098,4.5964,4.5964,4.6138,4.6627,4.719,4.7805,4.8398,4.8137,4.6992,4.8101,4.8117,4.69,4.7855,4.8147,4.7448,4.6052,4.524,4.521,0.0,0.0,0.0,0.0,0.0,0.0,0.0,0.0,0.0,0.0,0.0,0.0,0.0,0.0,3.8333,4.1344,0.0,4.475,4.5244,0.0,0.0,0.0,4.3918,4.4317,4.5653,4.6436,4.6126,0.0,0.0,4.9366,0.0,4.9438,4.9468,4.8614,4.8318,4.9211,4.9362,4.9109,4.8395,4.8546,4.8842,4.9184,4.9484,4.9999,5.0757,5.0715,5.0503,5.0981,5.0801,5.0295,5.0021,5.0709,5.1072,5.0065,4.9866,4.9584,4.8622,4.8135,4.7524,4.6242,4.698,4.7306,3.7844,3.8227,3.8111,3.7742,3.7284,3.7805,3.8638,3.9699,4.0169,4.0509,4.0842,4.239,4.3405,4.3976,4.4556,4.4191,4.3139,4.4502,4.5407,4.5895,4.6377,4.719,4.8223,4.8252,4.8583,4.9146,4.8218,4.7888,4.8182,4.7276,4.7143,4.7735,4.7515,4.7561,4.7973,4.6632,4.6632,4.8031,4.7712,4.7648,4.7805,4.829,4.8336,4.7881,4.959,4.9869,4.846,4.9245,4.9452,4.8828,4.7994,4.7524,4.7513,4.6361,0.0,0.0,0.0,0.0,0.0,0.0,0.0,0.0,0.0,3.9882,3.9663,0.0,4.2446,0.0,4.5395,4.5532,4.382,4.5343,0.0,0.0,4.6218,4.6362,4.7197,4.7625,4.7811,4.7759,4.9059,4.9979,4.9991,5.044,5.0739,5.0739,5.0094,4.9597,4.9579,5.0253,5.0681,5.0406,5.0442,5.0596,5.0614,5.0715,5.0899,5.117,5.1487,5.1798,5.1935,5.2288,5.2461,5.2363,5.2514,5.2587,5.2326,5.2344,5.2241,5.1881,5.0268,4.8655,4.8245,4.8912,4.9344,4.0382,4.0704,4.0974,4.0985,4.0757,4.0393,4.0663,4.1389,4.1995,4.2524,4.3061,4.4768,4.5567,4.5682,4.6449,4.6131,4.5087,4.62,4.6893,4.7172,4.7468,4.8165,4.9134,4.9146,4.9361,4.9693,4.9611,4.9582,4.9569,4.9524,4.941,4.9215,4.8841,4.8929,4.9429,4.7916,4.7799,4.9105,4.8626,4.826,4.801,4.8594,4.9027,4.9257,5.0419,5.0958,5.0662,5.0939,5.1079,5.1013,5.0403,4.9924,4.9613,4.9089,4.8712,0.0,0.0,0.0,0.0,0.0,0.0,0.0,0.0,0.0,0.0,0.0,4.5669,4.6648,4.7612,4.7503,4.59,4.7052,4.8019,4.8319,4.8332,4.8545,4.9108,4.9434,4.9583,4.9595,5.023,5.0626,5.0656,5.0978,5.1307,5.1606,5.1325,5.0887,5.0484,5.0846,5.1295,5.1576,5.1636,5.1768,5.2037,5.2097,5.2085,5.2127,5.2408,5.2648,5.2636,5.2947,5.3198,5.3198,5.3198,5.3198,5.3198,5.3198,5.3198,5.3022,5.2241,5.1121,5.0341,5.0835,5.1231,4.3281,4.3389,4.3389,4.3994,4.4823,4.3385,4.2959,4.3365,4.3953,4.4794,4.5784,4.6661,4.6812,4.6429,4.6928,4.712,4.7091,4.7735,4.8304,4.8832,4.8931,4.9279,4.9954,4.9942,4.9942,4.9971,5.0448,5.0681,5.071,5.1149,5.1204,5.0856,5.013,5.0031,5.0541,4.9488,4.9201,4.9778,4.9505,4.9086,4.8647,4.9334,5.0064,5.0773,5.1042,5.1708,5.2792,5.2587,5.2677,5.3126,5.2486,5.1816,5.1236,5.1081,5.0584,0.0,4.8402,0.0,0.0,0.0,0.0,0.0,0.0,0.0,0.0,4.7818,4.8115,4.7931,4.8898,4.9437,4.9221,4.9433,4.9744,5.0249,5.0327,5.0338,5.0345,5.0847,5.1217,5.1217,5.1277,5.1337,5.1337,5.1397,5.1696,5.2229,5.2306,5.2073,5.1594,5.1511,5.1756,5.2247,5.2348,5.2498,5.2947,5.3139,5.3139,5.3156,5.3246,5.3348,5.3348,5.3426,5.3498,5.3528,5.3648,5.3677,5.3588,5.3707,5.3755,5.3892,5.4182,5.3899,5.2473,5.2686,5.2768,4.4848,4.558,4.558,4.6226,4.7147,4.6827,4.6435,4.6084,4.6739,4.742,4.8076,4.8255,4.8583,4.8967,4.91,4.8844,4.8368,4.903,4.942,4.9528,5.0075,5.0668,5.1224,5.1224,5.1224,5.1224,5.0871,5.0681,5.0681,5.0274,5.0135,5.0262,5.0108,5.0435,5.1154,0.0,0.0,0.0,5.054,5.071,5.0865,5.099,5.1453,5.2323,5.2621,0.0,5.3125,5.3569,5.3623,5.3198,5.2037,0.0,0.0,0.0,0.0,0.0,0.0,0.0,0.0,0.0,0.0,0.0,4.8872,4.8887,4.8592,4.9282,4.9699,4.9522,5.0307,5.0817,5.077,5.0805,5.0888,5.0996,5.0996,5.0996,5.1026,5.1158,5.1217,5.1217,5.1666,5.1995,5.2037,5.2456,5.2857,5.2977,5.3007,5.2947,5.2857,5.2797,5.2869,5.3007,5.3037,5.3067,5.3169,5.3288,5.3408,5.3258,5.3683,5.4012,5.4102,5.4533,5.4803,5.482,5.5251,5.5593,5.5593,5.6042,5.6196,5.6346,5.6406,5.5995,5.4151,5.4294,5.4719,4.7449,0.0,4.7929,4.8249,0.0,4.9083,4.9042,4.8699,4.8391,4.8583,4.9204,4.9175,4.9553,5.0174,5.0187,5.0162,5.0138,5.0481,5.0656,5.066,5.0975,5.1149,5.1149,5.1149,5.0975,5.0668,5.071,5.0681,5.0681,5.0668,5.0679,5.0737,5.0615,5.0798,5.1262,5.1018,5.0722,5.0513,5.0771,5.0979,5.1136,5.1244,5.1999,5.3414,0.0,0.0,0.0,0.0,0.0,0.0,0.0,0.0,0.0,0.0,0.0,5.1983,5.1655,5.1459,5.1339,5.1255,5.117,5.1023,5.1117,5.0872,5.0099,5.074,5.1009,5.0576,5.0968,5.1337,5.1636,5.1397,5.1337,5.1636,5.1696,5.1696,5.1726,5.2007,5.2187,5.2217,5.2498,5.2707,5.2707,5.2947,5.3348,5.3635,5.3683,5.3832,5.4054,5.3605,5.3276,5.3623,5.4012,5.4336,5.4593,5.4695,5.4773,5.5102,5.5418,5.5598,5.5628,5.591,5.6137,5.6179,5.6432,5.6658,5.6658,5.6898,5.7094,5.7094,5.7094,5.6855,5.5807,5.5897,5.6149,5.0029,5.0042,5.0029,5.0029,5.0087,5.061,5.0842,5.0784,0.0,0.0,0.0,5.0042,5.032,5.0842,5.0871,5.112,5.1559,5.1485,5.1514,5.1601,5.1485,5.1236,5.0871,5.0871,5.0618,5.0144,5.0539,5.0767,5.0846,5.1216,5.1378,5.1267,5.1055,5.1062,5.12,5.1217,5.1017,5.0668,5.0846,5.1012,5.1042,5.1214,5.2246,5.4149,5.3545,5.4097,5.5923,5.5504,5.5461,5.5983,5.591,5.5581,5.5059,5.4922,5.4354,5.3276,5.2677,5.2366,5.2366,5.2378,5.2366,5.2378,5.2276,5.1977,5.1427,5.1876,5.1977,5.1427,5.1487,5.1786,5.2318,5.1905,5.1768,5.2306,5.2366,5.2366,5.2396,5.2827,5.3139,5.3228,5.3276,5.3366,5.3366,5.3648,5.3905,5.4431,5.4718,5.4867,5.5239,5.4593,5.4144,5.473,5.5251,5.573,5.6162,5.6269,5.6568,5.6808,5.6974,5.7094,5.7094,5.7094,5.7094,5.6974,5.7154,5.7274,5.7274,5.7423,5.7436,5.7453,5.7453,5.7453,5.7453,5.7453,5.7377,5.1311,5.134,5.134,5.134,5.134,5.1427,5.1456,5.1456,5.1253,5.1253,5.134,5.134,5.1369,5.1485,5.1485,5.1514,5.1572,5.1062,5.1091,0.0,5.1062,5.1075,5.1456,5.1485,5.1524,5.1633,5.1182,5.1072,5.1221,5.0881,5.0743,5.0864,5.0834,5.0977,5.1194,5.1217,5.117,5.1112,5.1458,5.1768,5.2007,5.1816,5.2513,5.4077,5.3545,5.3875,5.5281,5.5251,5.5222,5.5311,5.479,5.4418,5.4329,5.3832,5.3408,5.3228,5.3109,5.3079,5.3067,5.3079,5.3037,5.3007,5.2516,5.2157,5.2055,5.2127,5.2157,5.2097,5.2528,5.2947,5.3049,5.2917,5.2899,5.3007,5.3037,5.3079,5.3037,5.3186,5.3318,5.3336,5.3713,5.4089,5.4251,5.5042,5.5683,5.5953,5.6119,5.6645,5.6628,5.6252,5.6102,5.6539,5.6778,5.6885,5.6944,5.6987,5.7077,5.7077,5.7184,5.7244,5.7274,5.7274,5.7274,5.7154,5.7679,5.7979,5.8068,5.8457,5.874,5.8816,5.883,5.883,5.8816,5.883,5.8501,5.1617,5.1617,5.1617,5.1617,5.163,5.1991,5.2149,5.2136,5.2136,5.1933,5.1617,5.1617,5.1617,5.1617,5.1617,5.1617,5.1601,5.1311,5.134,5.1559,5.1323,5.1149,5.1104,5.1091,5.0992,5.075,5.061,5.0762,5.1172,5.1101,5.1324,5.185,5.2048,5.2169,5.2264,5.2276,5.2306,5.2276,5.1757,5.1548,5.1666,5.1548,5.1983,5.3072,5.2785,5.3097,5.4084,5.4127,5.4294,5.464,5.4359,5.4359,5.47,5.4443,5.4294,5.4294,5.4294,5.4294,5.4264,5.4294,5.4443,5.4755,5.3862,5.3294,5.3282,5.2947,5.2737,5.2737,5.3037,5.3198,5.3198,5.3198,5.3198,5.3198,5.3198,5.3336,5.3713,5.4084,5.4413,5.4815,5.5388,5.5777,5.5777,5.6299,5.6688,5.6718,5.6987,5.7214,5.7603,5.7423,5.7197,5.7137,5.7094,5.7274,5.7573,5.7663,5.7782,5.8112,5.8171,5.8171,5.8171,5.8171,5.8321,5.8664,5.8979,5.9308,5.9594,5.9939,6.0162,6.0192,6.0206,6.0192,6.0192,6.0192,5.9847,5.2023,5.2036,5.1891,5.1746,5.1646,5.2149,5.2352,5.2381,5.2365,5.2078,5.1659,5.1617,5.1617,5.1617,5.1617,5.1617,5.1601,5.1456,5.1423,5.1444,5.1486,5.1275,5.0942,5.1,5.0833,5.0469,5.0623,5.1008,5.153,5.1773,5.221,5.2851,5.3089,5.3198,5.3198,5.3198,5.3198,5.3139,5.2187,5.1624,5.1636,5.1666,5.1977,5.2606,5.2653,5.3025,5.3827,5.3887,5.4174,5.479,5.4837,5.5089,5.5568,5.5641,5.5641,5.5641,5.5641,5.5598,5.5611,5.5371,5.5431,5.5893,5.4743,5.397,5.3952,5.3665,5.3348,5.3228,5.3198,5.3258,5.3426,5.3456,5.3528,5.3797,5.3875,5.4246,5.479,5.5329,5.582,5.6372,5.6808,5.7064,5.7124,5.7244,5.7393,5.7543,5.7663,5.7992,5.8457,5.8637,5.8547,5.8128,5.7782,5.7782,5.8248,5.8487,5.877,5.9279,5.9458,5.9518,5.9548,5.9548,5.9697,6.0116,6.025,6.0416,6.094,6.103,6.1,6.097,6.094,6.1,6.097,6.115,6.1074,5.3284,5.3226,5.2672,5.2149,5.1659,5.1717,5.1746,5.1746,5.173,5.1701,5.1617,5.1617,5.1601,5.1617,5.1601,5.1614,5.1568,5.1046,5.0938,5.1095,5.1127,5.1246,5.1447,5.1972,5.2331,5.2415,5.2435,5.2575,5.2902,5.3005,5.3096,5.315,5.3186,5.3258,5.3228,5.3228,5.3228,5.3186,5.3067,5.3007,5.3007,5.3019,5.3336,5.4012,5.4,5.461,5.5641,5.5923,5.6192,5.6765,5.6748,5.6838,5.6885,5.6915,5.6915,5.6885,5.6885,5.6915,5.6825,5.585,5.5251,5.5192,5.4174,5.3426,5.3456,5.3862,5.3875,5.3486,5.3288,5.3605,5.4,5.4162,5.4683,5.5611,5.5773,5.6162,5.6598,5.6885,5.6944,5.7017,5.7167,5.7124,5.7304,5.7739,5.8278,5.886,5.9279,5.9621,5.9787,6.0192,6.0521,6.0342,5.9714,5.9039,5.9129,5.9548,5.9831,6.004,6.0505,6.0671,6.0671,6.0731,6.097,6.0924,6.1,6.106,6.118,6.112,6.118,6.1389,6.1329,6.1166,6.121,6.1613,6.1702,5.2385,5.2356,5.2107,5.2078,5.2178,5.2178,5.2178,5.2207,5.2207,5.1949,5.1617,5.1617,5.1677,5.1841,5.1854,5.19,5.2034,5.1824,5.1757,5.1843,5.1839,5.193,5.2058,5.2265,5.2474,5.2573,5.2751,5.304,5.3563,5.4087,5.4384,5.4384,5.4384,5.4384,5.4396,5.4384,5.4384,5.4371,5.4384,5.4396,5.4294,5.3618,5.3336,5.3593,5.397,5.4431,5.497,5.5371,5.591,5.6492,5.6581,5.6731,5.7107,5.7094,5.7094,5.7094,5.7094,5.7094,5.7107,5.6269,5.579,5.579,5.5294,5.4965,5.4995,5.5551,5.579,5.5521,5.5174,5.5114,5.5341,5.57,5.6137,5.6628,5.6731,5.6838,5.7064,5.747,5.7679,5.7723,5.8052,5.8261,5.8381,5.886,5.9518,6.0133,6.0565,6.0685,6.0715,6.094,6.106,6.103,6.0581,6.0342,6.0282,6.0475,6.0685,6.0745,6.091,6.109,6.115,6.112,6.118,6.1613,6.1672,6.1882,6.2285,6.2285,6.2285,6.2271,6.2285,6.2285,6.2285,6.2495,6.2525,5.2123,5.2094,5.1949,5.2049,5.2323,5.2336,5.2323,5.2323,5.2323,5.2049,5.163,5.1664,5.1954,5.231,5.2113,5.2151,5.2387,5.2412,5.2462,5.2541,5.2701,5.2839,5.2877,5.3096,5.3168,5.3193,5.3402,5.3739,5.4211,5.4809,5.5222,5.5222,5.5222,5.5222,5.5222,5.5222,5.5222,5.5192,5.5222,5.5222,5.5072,5.4234,5.3857,5.4054,5.4503,5.491,5.5256,5.5748,5.6286,5.6958,5.6987,5.7197,5.7616,5.7633,5.7663,5.7663,5.7663,5.7663,5.7633,5.7227,5.6898,5.6748,5.6718,5.6641,5.6551,5.6838,5.7064,5.7017,5.6868,5.6658,5.6521,5.6838,5.7167,5.7334,5.7363,5.7423,5.7663,5.8128,5.8457,5.8667,5.9069,5.9458,5.9654,6.0057,6.0505,6.091,6.121,6.1359,6.1419,6.1553,6.1702,6.1642,6.1672,6.1449,6.121,6.1269,6.1343,6.1463,6.1509,6.1762,6.1642,6.1672,6.1702,6.2345,6.2375,6.2465,6.2764,6.3003,6.3422,6.3572,6.3572,6.3542,6.3632,6.3632,6.3632,5.3416,5.3284,5.2788,5.2207,5.1688,5.1717,5.1688,5.1859,5.1746,5.1688,5.1764,5.195,5.2507,5.3263,5.2532,5.2193,5.2429,5.2538,5.2679,5.2966,5.3466,5.3858,5.4142,5.4752,5.5021,5.4852,5.4847,5.4962,5.5064,5.5179,5.5222,5.5222,5.5311,5.5251,5.5311,5.5341,5.5239,5.5341,5.5341,5.5281,5.5251,5.5192,5.5401,5.5953,5.6072,5.6598,5.7649,5.7905,5.8248,5.8919,5.886,5.8919,5.8979,5.8966,5.8979,5.9009,5.8996,5.8979,5.8949,5.883,5.8517,5.8038,5.7829,5.7709,5.7154,5.7184,5.7274,5.7167,5.7739,5.7799,5.7304,5.7304,5.7543,5.8082,5.8085,5.8367,5.8949,5.9099,5.9368,5.9787,5.9997,6.0296,6.088,6.103,6.109,6.1329,6.1702,6.2061,6.2121,6.2555,6.2794,6.2854,6.2824,6.257,6.1509,6.1808,6.2121,6.2241,6.257,6.2974,6.3003,6.3003,6.3003,6.3063,6.3183,6.3243,6.3243,6.3558,6.4126,6.4425,6.459,6.465,6.4441,6.477,6.471,5.2285,5.2256,5.2049,5.2049,5.2236,5.2236,5.2571,5.3049,5.3092,5.3165,5.3332,5.3418,5.3786,5.4264,5.3938,5.3934,5.4186,5.4186,5.4248,5.4353,5.4592,5.4745,5.485,5.5089,5.5222,5.5222,5.5222,5.5222,5.5251,5.5611,5.585,5.591,5.6239,5.6406,5.6419,5.6419,5.6406,5.6406,5.6406,5.6406,5.6419,5.6419,5.6735,5.732,5.6974,5.7184,5.8068,5.8517,5.8876,5.9099,5.9099,5.9099,5.9159,5.9518,5.9937,6.0326,6.0372,6.0013,5.9249,5.9099,5.862,5.7633,5.7889,5.8055,5.7889,5.8098,5.8381,5.8471,5.8979,5.9189,5.9009,5.865,5.865,5.9219,5.9368,5.9608,6.0192,6.0372,6.0505,6.0671,6.0731,6.1014,6.1553,6.1732,6.1912,6.2301,6.2614,6.2704,6.2764,6.2988,6.3138,6.3197,6.3422,6.3528,6.3139,6.3139,6.3318,6.3348,6.3558,6.3887,6.4036,6.3767,6.3677,6.4036,6.4126,6.4246,6.4306,6.45,6.5009,6.5218,6.5383,6.5607,6.4994,6.5562,6.5413,5.221,5.221,5.2198,5.2443,5.2862,5.2875,5.324,5.3775,5.3867,5.3993,5.4175,5.4342,5.4607,5.479,5.4905,5.5002,5.5179,5.5192,5.5192,5.5222,5.5222,5.5222,5.5222,5.5222,5.5324,5.5551,5.573,5.582,5.588,5.6282,5.6462,5.6551,5.6898,5.7094,5.7094,5.7094,5.7197,5.7363,5.7423,5.7513,5.7693,5.7752,5.8082,5.8547,5.8304,5.8141,5.8444,5.9069,5.9428,5.9458,5.9624,5.9744,5.9803,6.0176,6.0519,6.0745,6.0775,6.0296,5.9338,5.9322,5.8949,5.7945,5.8351,5.8697,5.8517,5.9039,5.9368,5.9548,6.004,6.0429,6.0356,5.9997,5.9937,6.0326,6.0429,6.0595,6.1016,6.109,6.118,6.1389,6.1672,6.1972,6.2315,6.2405,6.2614,6.3063,6.3108,6.3123,6.3333,6.3393,6.3498,6.3677,6.4096,6.4291,6.4231,6.4351,6.4351,6.4351,6.4336,6.468,6.4919,6.459,6.462,6.4949,6.5144,6.5293,6.5443,6.5592,6.5802,6.6086,6.6654,6.7073,6.6714,6.6505,6.6535,5.3458,5.34,5.3487,5.3413,5.344,5.3453,5.3485,5.3658,5.3896,5.4137,5.4322,5.4657,5.5036,5.4968,5.5321,5.5299,5.5388,5.5431,5.5371,5.5311,5.5341,5.5371,5.5371,5.5431,5.5713,5.6192,5.6778,5.7004,5.6944,5.7107,5.7214,5.7124,5.7363,5.7573,5.7214,5.7483,5.7663,5.8158,5.8338,5.8547,5.9039,5.9129,5.9398,5.998,5.998,5.9711,5.9189,5.9757,6.01,6.0146,6.0625,6.103,6.091,6.1,6.0821,6.0429,6.022,5.9817,5.9338,5.9711,5.9711,5.9202,5.9651,5.9668,5.9428,5.9771,6.01,6.019,6.0685,6.112,6.112,6.112,6.109,6.109,6.109,6.115,6.1239,6.118,6.1359,6.2032,6.2555,6.3018,6.3078,6.3093,6.3153,6.3197,6.3317,6.3512,6.3917,6.4036,6.4306,6.471,6.4919,6.4979,6.5248,6.5458,6.5368,6.5293,6.5218,6.5368,6.5667,6.5592,6.5802,6.6086,6.6265,6.6415,6.6864,6.7043,6.7402,6.7731,6.8256,6.8375,6.8076,6.7867,6.8196,5.3487,5.3487,5.3487,5.3605,5.3762,5.3789,5.3984,5.4422,5.4892,5.5284,5.5567,5.6122,5.6366,5.6392,5.647,5.6496,5.6509,5.6509,5.6299,5.603,5.6299,5.6479,5.6466,5.6496,5.6585,5.6808,5.7017,5.7094,5.7304,5.8035,5.8278,5.8068,5.9175,5.9578,5.9142,5.9608,5.9983,6.0133,6.0162,6.0296,6.0462,6.0475,6.0581,6.0731,6.0791,6.0685,6.0535,6.0671,6.0761,6.0761,6.0535,6.0595,6.1,6.109,6.121,6.1417,6.1014,6.0505,5.9921,5.998,6.0027,5.9861,6.001,6.0236,6.0432,6.0655,6.0805,6.0864,6.1373,6.1792,6.1852,6.2225,6.2241,6.1852,6.1792,6.1972,6.2345,6.2465,6.2584,6.2734,6.2974,6.3108,6.3227,6.3393,6.3782,6.3842,6.4096,6.45,6.468,6.48,6.471,6.4994,6.5278,6.5847,6.6146,6.646,6.652,6.6385,6.6265,6.6325,6.658,6.664,6.6909,6.7178,6.7358,6.7627,6.8106,6.8435,6.8675,6.8824,6.8884,6.8944,6.8974,6.9123,6.9303,5.3711,5.4007,5.4007,5.4324,5.4766,5.4779,5.5005,5.539,5.5849,5.6184,5.6473,5.6889,5.7094,5.7094,5.7094,5.7094,5.7137,5.7334,5.7274,5.6928,5.6958,5.7094,5.7154,5.7393,5.747,5.7543,5.7723,5.7842,5.7872,5.865,5.889,5.8816,5.9983,6.0475,6.019,6.0731,6.1166,6.1419,6.1463,6.1583,6.1792,6.1852,6.1852,6.1852,6.1852,6.1852,6.1822,6.1598,6.1329,6.109,6.0685,6.0805,6.1359,6.1269,6.118,6.1253,6.1194,6.0805,6.022,6.034,6.0475,6.0519,6.0699,6.0864,6.118,6.1433,6.1748,6.1598,6.2061,6.245,6.2555,6.3033,6.3183,6.2869,6.26,6.2794,6.3273,6.3422,6.3572,6.3707,6.3857,6.3812,6.3917,6.4336,6.4725,6.4814,6.5099,6.5727,6.5847,6.5922,6.5966,6.6146,6.667,6.7059,6.7178,6.7418,6.7643,6.7508,6.7358,6.7537,6.7777,6.7613,6.7673,6.8106,6.8375,6.8585,6.8974,6.9199,6.9409,6.9453,6.9602,6.9812,6.9991,6.9901,7.0021,5.4108,5.4911,5.4953,5.5422,5.6158,5.6201,5.6211,5.6366,5.668,5.6799,5.6895,5.7242,5.7334,5.7274,5.7423,5.7423,5.7334,5.7889,5.8145,5.7949,5.7663,5.7423,5.7513,5.7949,5.8158,5.8248,5.8697,5.8979,5.8876,5.9129,5.9159,5.9279,6.001,6.025,6.0429,6.088,6.1583,6.1942,6.2091,6.2421,6.2914,6.3003,6.3003,6.2988,6.2958,6.2914,6.2838,6.2301,6.1732,6.121,6.112,6.1419,6.1822,6.1479,6.0984,6.0609,6.0864,6.0745,6.0459,6.0685,6.106,6.1194,6.1583,6.1882,6.1583,6.2271,6.2704,6.2375,6.2734,6.3093,6.3273,6.3602,6.3917,6.3977,6.3588,6.3588,6.3947,6.4096,6.4425,6.4859,6.5054,6.5114,6.5144,6.5697,6.6041,6.6146,6.6236,6.6909,6.7373,6.7523,6.7822,6.7942,6.7942,6.8002,6.8046,6.8016,6.8301,6.8541,6.8361,6.8421,6.881,6.869,6.872,6.9123,6.9303,6.9558,6.9768,6.9947,7.0157,7.032,7.053,7.0843,7.0783,7.0544,7.0454,5.4807,5.5613,5.5643,5.6025,5.6542,5.6581,5.673,5.6961,5.7504,5.7696,5.7826,5.8327,5.8501,5.856,5.853,5.859,5.856,5.871,5.8846,5.8816,5.871,5.859,5.859,5.874,5.8816,5.886,5.8979,5.9099,5.9159,5.9518,5.9771,5.9891,6.0819,6.1253,6.1074,6.1912,6.2301,6.2225,6.2614,6.2898,6.3048,6.3108,6.3108,6.3108,6.3108,6.3108,6.3048,6.2465,6.1792,6.121,6.1598,6.1882,6.2076,6.1882,6.1613,6.1463,6.1224,6.106,6.094,6.103,6.1343,6.1792,6.2091,6.2255,6.2584,6.2854,6.3213,6.3303,6.3363,6.3482,6.4186,6.4216,6.4276,6.462,6.471,6.465,6.48,6.5188,6.5547,6.5727,6.6191,6.643,6.661,6.7014,6.7463,6.7553,6.7837,6.8226,6.863,6.866,6.869,6.8704,6.8734,6.8794,6.8824,6.8764,6.8944,6.9409,6.9319,6.9079,6.9528,6.9887,7.0097,7.044,7.0171,7.029,7.047,7.062,7.0859,7.0889,7.0889,7.0903,7.0903,7.0753,7.0723,5.565,5.6505,5.6611,5.7054,5.7679,5.7693,5.7786,5.7995,5.8338,5.8517,5.8607,5.8906,5.9099,5.9099,5.9099,5.9099,5.9099,5.9099,5.9099,5.9099,5.9069,5.9069,5.9099,5.9099,5.9099,5.9099,5.9099,5.9099,5.9159,5.9518,5.9801,6.013,6.0878,6.1283,6.1583,6.2181,6.2674,6.2584,6.2928,6.3108,6.3108,6.3108,6.3108,6.3108,6.3108,6.3003,6.2674,6.2301,6.2002,6.1912,6.1822,6.1792,6.2046,6.1808,6.1702,6.1672,6.1553,6.1509,6.1569,6.1762,6.2255,6.275,6.2914,6.3093,6.3363,6.3482,6.3647,6.3482,6.3482,6.3737,6.4126,6.4515,6.5293,6.6161,6.6505,6.6445,6.5936,6.643,6.6939,6.7268,6.7567,6.7837,6.7837,6.8421,6.872,6.887,6.9064,6.9423,6.9722,6.9572,6.9482,6.9542,6.9512,6.9558,6.9602,6.9572,6.9602,7.0037,7.0097,6.9812,7.0007,7.0546,7.0709,7.0829,7.0843,7.0903,7.0903,7.0903,7.0873,7.0873,7.0903,7.0903,7.0903,7.0903,7.0903,5.658,5.7467,5.7652,5.8262,5.8969,5.9099,5.8966,5.9069,5.9039,5.9039,5.9069,5.9099,5.9099,5.9099,5.9099,5.9099,5.9099,5.9099,5.9099,5.9099,5.9099,5.9099,5.9099,5.9099,5.9099,5.9099,5.9099,5.9099,5.9159,5.9219,5.9638,6.0176,6.037,6.0968,6.1762,6.2151,6.2421,6.2794,6.2974,6.3108,6.3108,6.3108,6.3108,6.3108,6.3108,6.2854,6.2495,6.2285,6.2435,6.3033,6.1852,6.1732,6.2061,6.1628,6.1539,6.1702,6.2091,6.2241,6.2331,6.2764,6.3273,6.3692,6.3767,6.3947,6.3887,6.3887,6.3767,6.3467,6.3782,6.4036,6.435,6.5323,6.667,6.7732,6.8541,6.8421,6.7777,6.7852,6.8451,6.9004,6.9093,6.9183,6.9333,6.9678,7.0051,6.9782,6.9991,7.0141,7.032,7.0201,7.029,7.0484,7.041,7.0306,7.0366,7.038,7.044,7.062,7.062,7.047,7.0306,7.0606,7.0799,7.0903,7.0903,7.0903,7.0903,7.0903,7.0935,7.0903,7.0903,7.0903,7.0903,7.0903,7.0903,5.7322,5.8404,5.8183,5.8488,5.9058,5.9099,5.9099,5.9099,5.9099,5.9099,5.9099,5.9099,5.9099,5.9099,5.9099,5.9099,5.9099,5.9099,5.9099,5.9099,5.9099,5.9099,5.9129,5.9129,5.9129,5.9099,5.9099,5.9129,5.9189,5.9651,6.0236,6.0791,6.0864,6.1283,6.2002,6.2121,6.2121,6.2405,6.2824,6.3108,6.3108,6.3138,6.3168,6.3168,6.3138,6.3048,6.2958,6.2884,6.2944,6.2854,6.2405,6.2195,6.2644,6.2674,6.272,6.2929,6.2914,6.3063,6.3422,6.3303,6.3378,6.4021,6.3797,6.3512,6.3977,6.4052,6.3977,6.3917,6.4411,6.5129,6.6011,6.7418,6.8256,6.8764,6.9333,6.9678,6.9439,6.9439,6.9588,6.9782,7.0141,7.047,7.044,7.044,7.0649,7.0679,7.0709,7.0769,7.0739,7.0709,7.0799,7.0903,7.0829,7.062,7.0652,7.0714,7.0869,7.1007,7.1067,7.1113,7.0919,7.0811,7.1053,7.1032,7.0903,7.0951,7.1129,7.1048,7.1097,7.1,7.0967,7.1048,7.1097,7.1032,7.1048,5.8094,5.8678,5.8637,5.8814,5.9072,5.9099,5.9099,5.9099,5.9099,5.9099,5.9099,5.9099,5.9099,5.9099,5.9099,5.9099,5.9099,5.9099,5.9099,5.9099,5.9099,5.9099,5.9219,5.9368,5.9428,5.9189,5.9099,5.9249,5.9578,5.998,6.0565,6.1463,6.1299,6.1672,6.2331,6.2241,6.2301,6.2614,6.2898,6.3108,6.3108,6.3393,6.3512,6.3422,6.3287,6.3108,6.3078,6.3078,6.3108,6.3018,6.2764,6.2718,6.3018,6.3108,6.3273,6.3422,6.3333,6.3393,6.3692,6.3797,6.3977,6.4814,6.4336,6.4455,6.4635,6.468,6.447,6.468,6.5413,6.649,6.7777,6.8405,6.9034,6.9512,7.0021,7.0396,7.0426,7.041,7.041,7.047,7.0649,7.0799,7.0873,7.0903,7.0873,7.0783,7.0783,7.0859,7.0859,7.0829,7.0829,7.0903,7.0903,7.0859,7.0908,7.0988,7.1134,7.1293,7.1451,7.1546,7.1503,7.1423,7.1387,7.1291,7.121,7.1403,7.1562,7.1419,7.1355,7.1468,7.1484,7.1419,7.1403,7.1468,7.1546,5.8721,5.8789,5.895,5.9058,5.9099,5.9099,5.9099,5.9099,5.9099,5.9099,5.9099,5.9099,5.9099,5.9099,5.9099,5.9099,5.9099,5.9099,5.9099,5.9099,5.9322,5.9382,5.9502,5.9847,6.0027,5.9444,5.9578,5.9847,6.0146,6.0429,6.1104,6.1866,6.1583,6.1942,6.2674,6.2495,6.248,6.3123,6.3303,6.3347,6.3377,6.3707,6.3857,6.3632,6.3542,6.3227,6.3168,6.3108,6.3108,6.3108,6.3108,6.3108,6.3108,6.3108,6.3273,6.3363,6.3422,6.3662,6.4126,6.4246,6.4635,6.5757,6.5308,6.5293,6.5607,6.5458,6.5218,6.5637,6.64,6.7777,6.8974,6.9393,6.9632,7.0067,7.062,7.0843,7.0903,7.0903,7.0829,7.0859,7.0829,7.0873,7.0903,7.0903,7.0903,7.0919,7.0919,7.0951,7.0967,7.1,7.1048,7.1162,7.121,7.1307,7.1355,7.1371,7.1484,7.1564,7.177,7.185,7.1961,7.1945,7.1819,7.166,7.1644,7.1834,7.1881,7.177,7.1802,7.1977,7.1929,7.1754,7.1818,7.1961,7.1975,5.8844,5.9004,5.8814,5.8882,5.9072,5.9099,5.9099,5.9099,5.9099,5.9099,5.9099,5.9099,5.9099,5.9099,5.9099,5.9129,5.9159,5.9232,5.9219,5.9368,5.9668,5.9951,6.007,6.0595,6.0835,6.0821,6.0821,6.094,6.1044,6.1493,6.1776,6.2046,6.2061,6.248,6.2764,6.2555,6.2899,6.3707,6.3857,6.3857,6.3812,6.3887,6.3797,6.3542,6.3632,6.3512,6.3197,6.3108,6.3108,6.3108,6.3108,6.3108,6.3108,6.3108,6.3542,6.4036,6.3887,6.3931,6.456,6.48,6.4919,6.5084,6.5218,6.5428,6.5817,6.5996,6.6056,6.6505,6.7597,6.8974,6.9738,7.0141,7.05,7.0769,7.0799,7.0903,7.0903,7.0903,7.0903,7.0903,7.0903,7.0903,7.0903,7.0935,7.0967,7.097,7.1018,7.1178,7.1323,7.1339,7.1355,7.1484,7.1658,7.177,7.1896,7.185,7.1897,7.1913,7.2025,7.2072,7.2183,7.2325,7.2278,7.2105,7.2025,7.2072,7.2072,7.2088,7.212,7.2215,7.212,7.2025,7.2151,7.2262,7.2151,5.8964,5.9072,5.898,5.8977,5.9085,5.9099,5.9099,5.9099,5.9099,5.9099,5.9099,5.9099,5.9099,5.9099,5.9099,5.9292,5.9561,5.9621,5.9787,6.0146,6.0475,6.0625,6.0715,6.1343,6.1553,6.1808,6.2167,6.2137,6.1702,6.1882,6.2345,6.2674,6.2869,6.3273,6.3558,6.3693,6.3872,6.447,6.45,6.4351,6.4066,6.4036,6.3797,6.3767,6.3767,6.3647,6.3257,6.3108,6.3108,6.3108,6.3108,6.3108,6.3108,6.3197,6.3393,6.3887,6.3812,6.4036,6.4785,6.5024,6.5263,6.5966,6.6011,6.6161,6.652,6.6864,6.7284,6.8076,6.8585,6.9782,7.041,7.0739,7.0843,7.0903,7.0903,7.0903,7.0903,7.0903,7.0903,7.0919,7.0935,7.0935,7.0903,7.0951,7.0986,7.1051,7.1132,7.1387,7.1644,7.1692,7.1692,7.1834,7.1961,7.2009,7.2166,7.2231,7.2246,7.2278,7.2325,7.2373,7.2451,7.2608,7.2671,7.2608,7.253,7.2388,7.2514,7.2608,7.2546,7.2467,7.2499,7.2514,7.253,7.2514,7.2466,5.9099,5.9099,5.9099,5.9099,5.9099,5.9099,5.9099,5.9099,5.9099,5.9099,5.9099,5.9099,5.9099,5.9159,5.9338,5.9668,6.028,6.031,6.0655,6.1134,6.1283,6.1329,6.1658,6.2091,6.254,6.272,6.3228,6.3468,6.278,6.2825,6.3079,6.3498,6.4036,6.4216,6.4306,6.4516,6.4964,6.5174,6.5174,6.4859,6.4545,6.4261,6.4082,6.4066,6.4126,6.3887,6.3197,6.3108,6.3108,6.3108,6.3108,6.3108,6.3108,6.3213,6.3273,6.3303,6.3393,6.4126,6.4889,6.5488,6.5981,6.6685,6.7074,6.7254,6.7583,6.8092,6.878,6.9768,7.0141,7.029,7.0739,7.0873,7.0903,7.0903,7.0903,7.0903,7.0903,7.0903,7.0903,7.0919,7.0951,7.0984,7.0984,7.1097,7.1194,7.1307,7.1403,7.174,7.2009,7.2072,7.2104,7.2183,7.2246,7.2231,7.2341,7.2546,7.2577,7.2608,7.2671,7.2734,7.2827,7.2921,7.2905,7.2859,7.2874,7.2781,7.2952,7.2999,7.2843,7.2796,7.2936,7.2936,7.2812,7.2858,7.2888,5.9099,5.9099,5.9099,5.9099,5.9099,5.9099,5.9099,5.9099,5.9099,5.9099,5.9129,5.9159,5.9189,5.9338,5.9787,6.0356,6.0864,6.1044,6.1403,6.2002,6.2032,6.2241,6.2794,6.3482,6.3613,6.379,6.4046,6.3947,6.4014,6.4435,6.447,6.459,6.453,6.4829,6.462,6.4964,6.5293,6.5772,6.5817,6.5727,6.5488,6.4994,6.45,6.4246,6.4366,6.4304,6.3431,6.3322,6.3308,6.3365,6.328,6.318,6.3197,6.3617,6.3827,6.4066,6.4455,6.5099,6.5787,6.6251,6.6822,6.7348,6.7723,6.8168,6.9022,6.9565,7.0062,6.9933,7.0507,7.0742,7.0908,7.0873,7.0903,7.0903,7.0903,7.0903,7.0919,7.1391,7.1343,7.1244,7.1373,7.1196,7.1113,7.1258,7.1387,7.1516,7.1722,7.2072,7.2325,7.2404,7.2467,7.253,7.2546,7.253,7.2546,7.2749,7.2796,7.2874,7.2921,7.2999,7.2999,7.2999,7.2999,7.2968,7.2999,7.2999,7.2999,7.2999,7.2999,7.2999,7.2999,7.2999,7.2983,7.3091,7.3307,5.9099,5.9099,5.9099,5.9099,5.9099,5.9099,5.9099,5.9099,5.9099,5.9099,5.9189,5.9548,5.9847,6.0222,6.0581,6.1253,6.1956,6.1852,6.2271,6.2839,6.2854,6.2824,6.3048,6.3435,6.379,6.4995,6.5527,6.6559,6.6269,6.4946,6.4081,6.4589,6.45,6.4351,6.477,6.5248,6.5637,6.5817,6.5637,6.5218,6.4904,6.459,6.4185,6.3646,6.4229,6.4263,6.4147,6.3984,6.439,6.4826,6.5273,6.5221,6.4941,6.5244,6.5745,6.6232,6.684,6.6835,6.6267,6.6776,6.7638,6.8592,6.9352,7.0266,7.1275,7.1812,7.1844,7.1635,7.1816,7.1649,7.1051,7.0919,7.0903,7.0919,7.1002,7.1067,7.123,7.1808,7.2046,7.1903,7.1822,7.1838,7.1821,7.19,7.2026,7.1978,7.2151,7.2388,7.2624,7.2765,7.2827,7.289,7.2859,7.2827,7.2843,7.2921,7.2905,7.2936,7.2936,7.2999,7.2999,7.2999,7.2999,7.2999,7.2999,7.2999,7.2999,7.2999,7.2999,7.2999,7.2999,7.3153,7.3337,7.3584,7.3892,5.9099,5.9099,5.9099,5.9099,5.9099,5.9099,5.9099,5.9099,5.9099,5.9189,5.9488,6.0057,6.0775,6.1463,6.1702,6.2255,6.3213,6.278,6.3169,6.3572,6.3602,6.3363,6.3687,6.3908,6.5065,6.6125,6.7131,6.8001,6.7811,6.6571,6.4986,6.5164,6.5809,6.514,6.4949,6.5592,6.6251,6.5951,6.5398,6.5142,6.5165,6.4771,6.4685,6.4647,6.4744,6.4937,6.5105,6.539,6.5964,6.6466,6.7202,6.707,6.6658,6.7105,6.7801,6.8391,6.9102,6.9045,6.8488,6.8661,6.9315,7.0454,7.1398,7.2336,7.3082,7.373,7.3529,7.2644,7.2612,7.1999,7.1263,7.0903,7.0903,7.1051,7.1293,7.1343,7.1649,7.2565,7.3031,7.2829,7.2845,7.2984,7.2953,7.2828,7.2734,7.2531,7.2608,7.2781,7.2859,7.2983,7.2983,7.2999,7.2983,7.2952,7.2968,7.2999,7.2999,7.2999,7.2999,7.2999,7.2999,7.2999,7.2999,7.2999,7.2999,7.2999,7.2999,7.2999,7.2999,7.306,7.3183,7.3506,7.3753,7.4046,7.4477,5.9099,5.9099,5.9099,5.9099,5.9099,5.9099,5.9099,5.9129,5.9129,5.9548,6.028,6.0805,6.1822,6.2674,6.2914,6.3243,6.3947,6.3887,6.4017,6.4077,6.399,6.4204,6.4717,6.582,6.7005,6.7305,6.8249,6.9059,6.9305,6.8493,6.7832,6.8285,6.7566,6.7025,6.6626,6.664,6.6732,6.6385,6.5812,6.6131,6.6377,6.6337,6.6211,6.7248,6.7256,6.6914,6.6377,6.6948,6.7536,6.7859,6.8628,6.8764,6.8613,6.9185,6.988,7.0431,7.1284,7.1437,7.146,7.1396,7.2396,7.3298,7.3993,7.4358,7.4528,7.4595,7.4093,7.3384,7.3353,7.2565,7.1647,7.0921,7.1244,7.1808,7.2346,7.2705,7.3138,7.39,7.4216,7.3902,7.3902,7.4159,7.4339,7.4264,7.4054,7.3873,7.3262,7.3385,7.2983,7.2999,7.2999,7.2999,7.2999,7.2983,7.2983,7.2999,7.2999,7.2999,7.2999,7.2999,7.2999,7.2999,7.2999,7.2999,7.2999,7.2999,7.306,7.3214,7.3291,7.3229,7.3414,7.3907,7.4307,7.4615,7.5076,5.9099,5.9099,5.9099,5.9099,5.9099,5.9099,5.9099,5.9189,5.9561,6.0609,6.1866,6.2285,6.3049,6.3857,6.3827,6.4006,6.4603,6.4996,6.5018,6.5369,6.5663,6.605,6.6568,6.6813,6.771,6.9033,6.9694,7.0454,7.1564,7.0454,7.0258,7.0076,6.9115,6.8148,6.7689,6.7752,6.7672,6.756,6.717,6.7346,6.6626,6.7056,6.6946,6.7035,6.761,6.775,6.8125,6.8858,6.953,7.0214,7.0862,7.0818,7.0596,7.1357,7.1999,7.2508,7.338,7.4139,7.437,7.3878,7.3343,7.4928,7.6037,7.6786,7.6215,7.68,7.6334,7.5455,7.4336,7.3582,7.3399,7.2643,7.2393,7.3061,7.3612,7.4081,7.4661,7.538,7.5583,7.5339,7.5371,7.5502,7.5661,7.5776,7.5548,7.5242,7.455,7.3874,7.3339,7.2999,7.2999,7.2999,7.2999,7.2999,7.2999,7.2999,7.2999,7.2999,7.2999,7.2999,7.2999,7.2999,7.2999,7.2999,7.3091,7.3245,7.3399,7.3537,7.366,7.3722,7.4061,7.4569,7.4892,7.5199,7.56,5.9099,5.9099,5.9099,5.9099,5.9099,5.9099,5.9205,5.9458,5.9861,6.1088,6.2794,6.3003,6.3647,6.4394,6.4714,6.4709,6.5311,6.5836,6.6002,6.6295,6.6744,6.7281,6.7287,6.7819,6.8924,7.0611,7.1113,7.1577,7.2749,7.2531,7.2105,7.1304,7.0182,6.9598,6.8712,6.8839,6.8843,6.8829,6.8468,6.8448,6.7665,6.7823,6.8477,6.8286,6.8956,6.9343,7.0093,7.0739,7.1385,7.2203,7.2848,7.316,7.3148,7.3396,7.4146,7.4766,7.5369,7.6361,7.6453,7.6126,7.4909,7.6147,7.7315,7.8024,7.8298,7.8338,7.7536,7.6522,7.5661,7.5134,7.4899,7.3825,7.3612,7.42,7.5073,7.5597,7.6199,7.6851,7.6879,7.6855,7.6883,7.6897,7.6967,7.6981,7.6145,7.5672,7.483,7.4025,7.3231,7.2999,7.2999,7.2999,7.2999,7.2999,7.2999,7.2999,7.2999,7.2999,7.2999,7.2999,7.2999,7.2999,7.303,7.303,7.3183,7.3491,7.3861,7.4214,7.4307,7.4338,7.4799,7.5292,7.5661,7.5969,7.6031,5.9129,5.9099,5.9129,5.9129,5.9249,5.9115,5.9472,5.998,6.022,6.1148,6.2643,6.3135,6.3806,6.455,6.5519,6.5805,6.6175,6.6931,6.7151,6.7031,6.7673,6.7298,6.7889,6.8936,7.0085,7.068,7.1456,7.2345,7.3078,7.2767,7.2775,7.2948,7.2206,7.1584,6.9827,6.9621,6.9621,6.9526,6.9106,6.9502,6.9853,6.9704,7.0221,7.0873,7.1213,7.1424,7.1663,7.2509,7.3043,7.3413,7.4436,7.4805,7.49,7.5027,7.5766,7.6802,7.6525,7.6815,7.7272,7.7854,7.7667,7.7191,7.7973,7.8239,7.7868,7.794,7.8174,7.7143,7.6494,7.592,7.5295,7.4781,7.5015,7.564,7.6556,7.7129,7.7738,7.767,7.7648,7.7948,7.8177,7.8284,7.8311,7.8036,7.6916,7.6042,7.5137,7.4295,7.3523,7.3339,7.3478,7.3308,7.3308,7.2999,7.2999,7.2999,7.2999,7.2999,7.2999,7.2999,7.2999,7.2999,7.303,7.306,7.3245,7.3491,7.4261,7.5015,7.5107,7.5292,7.563,7.6045,7.6414,7.6507,7.6353,5.9368,5.9741,5.9279,5.9638,6.0282,5.9937,5.9921,6.025,6.1118,6.26,6.4377,6.4851,6.5797,6.6752,6.6792,6.7021,6.7597,6.8118,6.8357,6.839,6.9153,7.0285,7.0645,7.0526,7.1402,7.2375,7.297,7.2767,7.3111,7.2879,7.2833,7.2999,7.3603,7.3432,7.2709,7.2274,7.1915,7.1902,7.1725,7.1793,7.2085,7.188,7.1985,7.2701,7.2701,7.2813,7.29,7.3873,7.4403,7.4535,7.5529,7.5927,7.6059,7.6225,7.6841,7.749,7.7371,7.7855,7.8086,7.8291,7.8106,7.7934,7.8,7.8365,7.8199,7.8332,7.8182,7.7782,7.7157,7.686,7.7116,7.6518,7.6683,7.7621,7.8391,7.8697,7.8981,7.8404,7.817,7.8803,7.9158,7.8942,7.8847,7.8663,7.774,7.7026,7.6248,7.5324,7.455,7.4355,7.434,7.398,7.3753,7.3262,7.3045,7.337,7.337,7.3308,7.3185,7.2999,7.2999,7.2999,7.2999,7.303,7.3245,7.3491,7.4276,7.5076,7.5907,7.6308,7.6168,7.6168,7.6353,7.6322,7.6137,5.9926,6.0654,6.0486,6.1106,6.1937,6.0741,6.0429,6.1178,6.212,6.3761,6.5413,6.5534,6.6341,6.7596,6.7967,6.8028,6.8747,6.9483,6.9798,6.9938,7.0766,7.1486,7.1849,7.1951,7.218,7.319,7.3144,7.278,7.3521,7.3057,7.3322,7.3952,7.4316,7.4624,7.4482,7.4192,7.3775,7.3666,7.3488,7.3274,7.3288,7.3148,7.2949,7.3243,7.3508,7.3906,7.4204,7.4833,7.5675,7.5827,7.6225,7.6642,7.6874,7.7073,7.7523,7.7855,7.8119,7.8451,7.8451,7.8451,7.8232,7.7967,7.8298,7.8464,7.8484,7.8484,7.8577,7.8263,7.7708,7.8,7.8357,7.7845,7.8197,7.9107,7.9316,7.9621,7.9627,7.906,7.8994,7.958,7.9713,7.9478,7.9217,7.8992,7.8538,7.7952,7.738,7.6529,7.5719,7.5548,7.5403,7.5095,7.4713,7.4342,7.4086,7.4086,7.398,7.3676,7.3523,7.3447,7.2999,7.2999,7.2999,7.306,7.3368,7.3768,7.4338,7.5046,7.5569,7.5877,7.5891,7.5984,7.6261,7.6261,7.6137,6.0809,6.1853,6.2505,6.339,6.3963,6.1913,6.1739,6.3265,6.3267,6.4304,6.5915,6.5527,6.6482,6.7665,6.8106,6.8757,6.9403,7.0412,7.081,7.1064,7.1592,7.2084,7.2283,7.225,7.2713,7.3011,7.321,7.3421,7.413,7.4097,7.4461,7.4991,7.5178,7.5542,7.5641,7.5608,7.5178,7.4846,7.4647,7.4482,7.4415,7.3906,7.3926,7.4158,7.4668,7.5045,7.5409,7.5906,7.6258,7.6576,7.6994,7.7292,7.7437,7.7437,7.7901,7.8252,7.8451,7.8484,7.8484,7.8484,7.8484,7.8285,7.8418,7.8484,7.8537,7.8591,7.8711,7.8843,7.8611,7.8922,7.912,7.9172,7.9251,7.9596,7.9724,7.9917,8.0095,7.9972,7.9959,8.0099,8.0086,7.9917,7.9614,7.9345,7.9174,7.8719,7.8259,7.8132,7.7355,7.6771,7.6631,7.648,7.6067,7.5606,7.5359,7.5139,7.5053,7.4862,7.44,7.416,7.3646,7.3092,7.2999,7.3153,7.3584,7.3984,7.4338,7.4615,7.4922,7.5169,7.5446,7.5846,7.6107,7.6414,7.6414,6.1492,6.2509,6.2721,6.3977,6.5684,6.5522,6.602,6.6755,6.5649,6.6198,6.8398,6.8079,6.8309,6.9414,6.9905,7.0494,7.0835,7.1139,7.1712,7.2051,7.225,7.278,7.3024,7.3078,7.3343,7.362,7.3885,7.3952,7.4296,7.464,7.5025,7.529,7.5827,7.6159,7.6424,7.6609,7.6138,7.5708,7.5575,7.5595,7.5595,7.5264,7.5351,7.5794,7.5794,7.6059,7.6192,7.6722,7.704,7.7205,7.7788,7.8153,7.8199,7.8199,7.8384,7.8418,7.8484,7.8484,7.8484,7.8484,7.8484,7.8497,7.8511,7.8631,7.8711,7.8803,7.8909,7.9094,7.9211,7.9388,7.9531,7.9634,7.9712,7.9827,7.9942,8.0082,8.0209,8.0209,8.0209,8.0209,8.0209,8.0048,7.9778,7.9841,7.9646,7.9313,7.9092,7.9076,7.8862,7.8264,7.7907,7.7744,7.7152,7.6635,7.6419,7.6235,7.6181,7.6024,7.5504,7.4889,7.425,7.3722,7.3216,7.3122,7.3368,7.3738,7.4107,7.4323,7.4353,7.4799,7.5138,7.5569,7.5969,7.6137,7.6291,6.3079,6.4449,6.481,6.6178,6.8062,6.8784,6.9342,6.9408,6.7431,6.7709,6.9587,6.9291,6.9816,7.0833,7.119,7.1505,7.1824,7.1969,7.2349,7.2635,7.2912,7.3421,7.3753,7.3819,7.3832,7.4097,7.4262,7.4329,7.4726,7.531,7.5774,7.6225,7.6609,7.6874,7.7239,7.7504,7.7152,7.6689,7.649,7.6709,7.6642,7.6444,7.6642,7.6907,7.6722,7.6788,7.6808,7.7437,7.7735,7.7821,7.8384,7.8484,7.8484,7.8484,7.8484,7.8484,7.8484,7.8484,7.8484,7.8484,7.8484,7.8524,7.8604,7.883,7.8909,7.8988,7.9198,7.9407,7.9518,7.9609,7.9737,7.9853,7.9917,7.998,8.0082,8.0196,8.0209,8.0209,8.0209,8.0209,8.0107,7.9972,7.9959,8.0107,8.0162,7.9833,7.9736,7.9748,7.9683,7.9399,7.9158,7.9066,7.8291,7.7552,7.7484,7.7456,7.7277,7.6999,7.6324,7.5693,7.4948,7.401,7.32,7.2999,7.303,7.3368,7.3707,7.3645,7.3707,7.4169,7.443,7.4584,7.4953,7.5384,7.5522,6.5188,6.708,6.7969,6.9242,7.097,7.1256,7.16,7.1759,6.9252,6.8867,7.0138,6.9772,7.0471,7.159,7.1815,7.1985,7.2337,7.2602,7.2879,7.3198,7.3653,7.4064,7.4097,7.4229,7.4395,7.4329,7.4515,7.5012,7.5443,7.6039,7.6722,7.7404,7.7457,7.7656,7.8086,7.8219,7.7901,7.7504,7.7371,7.7437,7.7205,7.6841,7.6477,7.6742,7.7106,7.7504,7.7669,7.8033,7.8451,7.8418,7.8384,7.8318,7.8318,7.8484,7.8484,7.8484,7.8484,7.8484,7.8484,7.8484,7.8484,7.8577,7.875,7.9002,7.9094,7.9211,7.9446,7.9691,7.9827,7.9878,7.9993,8.0031,8.0082,8.0107,8.0158,8.0209,8.0209,8.0209,8.0209,8.0209,8.0175,8.004,8.0073,8.0209,8.0209,8.0141,8.0107,8.0175,8.0171,8.0036,7.9985,7.9947,7.936,7.869,7.8961,7.8836,7.8438,7.7961,7.7125,7.6006,7.4978,7.401,7.3061,7.2999,7.2999,7.2999,7.3153,7.3214,7.3245,7.3307,7.3522,7.3491,7.3861,7.4461,7.4922,6.6287,6.73,6.9366,7.116,7.2465,7.2637,7.2703,7.2809,7.2152,7.1597,7.1531,7.1437,7.1491,7.1989,7.2183,7.2382,7.2813,7.3078,7.3442,7.372,7.4163,7.4196,7.4296,7.4561,7.4872,7.5223,7.5476,7.5827,7.6192,7.6755,7.7205,7.747,7.7788,7.8318,7.8451,7.8451,7.8219,7.7954,7.7821,7.7603,7.7272,7.7835,7.7987,7.7921,7.8133,7.7954,7.8053,7.8219,7.8086,7.7788,7.7689,7.7656,7.7669,7.8199,7.8464,7.8484,7.8484,7.8484,7.8484,7.8497,7.8497,7.8591,7.8777,7.9054,7.9297,7.9459,7.9678,7.9955,8.0107,8.0158,8.0183,8.0196,8.0209,8.0209,8.0209,8.0209,8.0209,8.0209,8.0209,8.0209,8.0209,8.0209,8.0209,8.0209,8.0209,8.0175,8.0175,8.0209,8.0209,8.0158,8.0145,8.0086,8.0112,7.9857,8.0048,7.9908,7.9301,7.8371,7.7374,7.622,7.4963,7.3934,7.2999,7.2999,7.2999,7.2999,7.2999,7.303,7.303,7.2999,7.303,7.3183,7.3183,7.363,7.4184,6.7801,6.8981,7.1024,7.2337,7.3065,7.3455,7.3421,7.321,7.3442,7.319,7.2568,7.2469,7.2481,7.2581,7.2792,7.2813,7.3243,7.3488,7.3786,7.4097,7.4196,7.4196,7.4428,7.4693,7.4958,7.5356,7.6324,7.6808,7.6907,7.747,7.7934,7.7901,7.8318,7.8418,7.8398,7.8232,7.8,7.7967,7.7755,7.7371,7.7007,7.757,7.7987,7.7987,7.7755,7.7656,7.7523,7.7523,7.7292,7.7159,7.7239,7.7424,7.7636,7.8119,7.8451,7.8484,7.8484,7.8484,7.8497,7.8511,7.8564,7.8711,7.8949,7.931,7.9583,7.9776,7.9929,8.0158,8.0158,8.0196,8.0196,8.0209,8.0209,8.0209,8.0209,8.0209,8.0209,8.0209,8.0209,8.0209,8.0209,8.0209,8.0209,8.0209,8.0209,8.0209,8.0209,8.0209,8.0209,8.0209,8.0209,8.0209,8.0209,8.0209,8.0171,8.0074,7.9883,7.8856,7.7607,7.5895,7.437,7.3615,7.2999,7.3014,7.3014,7.2999,7.2999,7.2999,7.2999,7.2999,7.2999,7.303,7.2999,7.2999,7.3461,6.937,7.1141,7.2502,7.3165,7.3343,7.3931,7.3819,7.3442,7.3885,7.3819,7.331,7.3243,7.3243,7.3488,7.3687,7.3608,7.3641,7.3885,7.4163,7.4329,7.4229,7.4196,7.4262,7.4428,7.5091,7.5873,7.6775,7.7305,7.757,7.8067,7.8332,7.8384,7.8318,7.8298,7.8067,7.7656,7.7258,7.7126,7.6907,7.651,7.6576,7.6874,7.7172,7.704,7.6709,7.6344,7.6311,7.6311,7.6311,7.6344,7.6655,7.6874,7.7305,7.7755,7.8252,7.8418,7.8484,7.8524,7.8577,7.8604,7.875,7.8949,7.9284,7.9544,7.9814,7.9993,8.0145,8.0209,8.0209,8.0209,8.0209,8.0209,8.0209,8.0209,8.0209,8.0209,8.0209,8.0209,8.0209,8.0209,8.0209,8.0209,8.0209,8.0209,8.0209,8.0209,8.0209,8.0209,8.0209,8.0209,8.0209,8.0209,8.0209,8.0209,8.0209,8.0171,8.0095,7.8948,7.7539,7.5534,7.4101,7.4146,7.3829,7.3076,7.3076,7.3355,7.3138,7.2999,7.2999,7.303,7.2999,7.2999,7.2999,7.2999,7.2999,7.0379,7.1852,7.2734,7.3442,7.3964,7.413,7.4097,7.403,7.4097,7.4097,7.3964,7.3964,7.3997,7.3964,7.3409,7.3541,7.4382,7.4461,7.4693,7.4991,7.4395,7.4229,7.4395,7.4859,7.584,7.6622,7.7239,7.7656,7.7802,7.8199,7.8166,7.7669,7.7603,7.7338,7.6775,7.6543,7.651,7.6377,7.6311,7.6059,7.6159,7.6344,7.6444,7.6444,7.639,7.6311,7.6311,7.6311,7.596,7.5741,7.5741,7.6138,7.6722,7.7338,7.7934,7.8418,7.8484,7.8617,7.8684,7.875,7.8909,7.9237,7.9531,7.9699,7.9917,8.0023,8.0171,8.0209,8.0209,8.0209,8.0209,8.0209,8.0209,8.0209,8.0209,8.0209,8.0209,8.0209,8.0209,8.0209,8.0209,8.0209,8.0209,8.0209,8.0209,8.0209,8.0209,8.0209,8.0209,8.0209,8.0209,8.0209,8.0209,8.0209,8.0209,8.0196,7.9934,7.8843,7.7676,7.6081,7.5227,7.549,7.5051,7.4221,7.3949,7.4176,7.3829,7.3385,7.3092,7.3107,7.303,7.2999,7.2999,7.2999,7.2999]}]]